[[{"header":{"parameterUnit":"m.s-1","parameterCategory":1,"la1":30.6,"la2":29.2853,"lo1":-89.7004,"lo2":-87.6739,"dy":0.0162,"dx":0.0183,"nx":112,"ny":82,"refTime":"2023-04-14T12:00:00:Z","depth":0,"parameterNumber":2,"parameterNumberName":"U-component_of_WINDS"},"data":[0.0,0.0,0.0,0.0,0.0,0.0,0.0,0.0,0.0,0.0,0.0,0.0,0.0,0.0,0.0,0.0,0.0,0.0,0.0,0.0,0.0,0.0,0.0,0.0,0.0,0.0,0.0,0.0,0.0,0.0,0.0,0.0,0.0,0.0,0.0,0.0,0.0,0.0,0.0,0.0,0.0,0.0,0.0,0.0,0.0,0.0,0.0,0.0,0.0,0.0,0.0,0.0,0.0,0.0,0.0,0.0,0.0,0.0,0.0,0.0,0.0,0.0,0.0,0.0,0.0,0.0,0.0,0.0,0.0,0.0,0.0,0.0,0.0,0.0,0.0,0.0,0.0,0.0,0.0,0.0,0.0,0.0,0.0,0.0,0.0,0.0,0.0,0.0,0.0,0.0,-3.6179,-3.6179,-3.632,-3.6429,-3.6429,-3.6289,-3.6242,-3.6429,0.0,0.0,0.0,0.0,0.0,0.0,0.0,0.0,0.0,0.0,0.0,0.0,0.0,0.0,0.0,0.0,0.0,0.0,0.0,0.0,0.0,0.0,0.0,0.0,0.0,0.0,0.0,0.0,0.0,0.0,0.0,0.0,0.0,0.0,0.0,0.0,0.0,0.0,0.0,0.0,0.0,0.0,0.0,0.0,0.0,0.0,0.0,0.0,0.0,0.0,0.0,0.0,0.0,0.0,0.0,0.0,0.0,0.0,0.0,0.0,0.0,0.0,0.0,0.0,0.0,0.0,0.0,0.0,0.0,0.0,0.0,0.0,0.0,0.0,0.0,0.0,0.0,0.0,0.0,0.0,0.0,0.0,0.0,0.0,0.0,0.0,0.0,0.0,0.0,0.0,0.0,0.0,0.0,0.0,0.0,0.0,0.0,0.0,0.0,0.0,0.0,0.0,0.0,0.0,-3.6037,-3.6037,-3.6068,-3.6068,-3.6068,-3.6037,-3.6037,-3.6068,0.0,0.0,0.0,0.0,0.0,0.0,0.0,0.0,0.0,0.0,0.0,0.0,0.0,0.0,0.0,0.0,0.0,0.0,0.0,0.0,0.0,0.0,0.0,0.0,0.0,0.0,0.0,0.0,0.0,0.0,0.0,0.0,0.0,0.0,0.0,0.0,0.0,0.0,0.0,0.0,0.0,0.0,0.0,0.0,0.0,0.0,0.0,0.0,0.0,0.0,0.0,0.0,0.0,0.0,0.0,0.0,0.0,0.0,0.0,0.0,0.0,0.0,0.0,0.0,0.0,0.0,0.0,0.0,0.0,0.0,0.0,0.0,0.0,0.0,0.0,0.0,0.0,0.0,0.0,0.0,0.0,0.0,0.0,0.0,0.0,0.0,0.0,0.0,0.0,0.0,0.0,0.0,0.0,0.0,0.0,0.0,0.0,0.0,0.0,0.0,0.0,0.0,0.0,-3.5831,-3.5863,-3.6005,-3.6005,-3.6005,-3.6005,-3.5894,-3.5863,-3.6005,-3.5958,0.0,0.0,0.0,0.0,0.0,0.0,0.0,0.0,0.0,0.0,0.0,0.0,0.0,0.0,0.0,0.0,0.0,0.0,0.0,0.0,0.0,0.0,0.0,0.0,0.0,0.0,0.0,0.0,0.0,0.0,0.0,0.0,0.0,0.0,0.0,0.0,0.0,0.0,0.0,0.0,0.0,0.0,0.0,0.0,0.0,0.0,0.0,0.0,0.0,0.0,0.0,0.0,0.0,0.0,0.0,0.0,0.0,0.0,0.0,0.0,0.0,0.0,0.0,0.0,0.0,0.0,0.0,0.0,0.0,0.0,0.0,0.0,0.0,0.0,0.0,0.0,0.0,0.0,0.0,0.0,0.0,0.0,0.0,0.0,0.0,0.0,0.0,0.0,0.0,0.0,0.0,0.0,0.0,0.0,0.0,0.0,0.0,0.0,0.0,0.0,0.0,0.0,-3.5367,-3.5447,-3.5591,-3.5591,-3.5591,-3.5591,-3.5317,-3.5237,-3.5591,-3.5285,0.0,0.0,0.0,0.0,0.0,0.0,0.0,0.0,0.0,0.0,0.0,0.0,0.0,0.0,0.0,0.0,0.0,0.0,0.0,0.0,0.0,0.0,0.0,0.0,0.0,0.0,0.0,0.0,0.0,0.0,0.0,0.0,0.0,0.0,0.0,0.0,0.0,0.0,0.0,0.0,0.0,0.0,0.0,0.0,0.0,0.0,0.0,0.0,0.0,0.0,0.0,0.0,0.0,0.0,0.0,0.0,0.0,0.0,0.0,0.0,0.0,0.0,0.0,0.0,0.0,0.0,0.0,0.0,0.0,0.0,0.0,0.0,0.0,0.0,0.0,0.0,0.0,0.0,0.0,0.0,0.0,0.0,0.0,0.0,0.0,0.0,0.0,0.0,0.0,0.0,0.0,0.0,0.0,0.0,0.0,0.0,0.0,0.0,0.0,0.0,0.0,0.0,-3.4413,-3.4413,-3.4413,-3.4413,-3.4413,-3.4413,-3.3768,-3.3665,-3.438,-3.3768,0.0,0.0,0.0,0.0,0.0,0.0,0.0,0.0,0.0,0.0,0.0,0.0,0.0,0.0,0.0,0.0,0.0,0.0,0.0,0.0,0.0,0.0,0.0,0.0,0.0,0.0,0.0,0.0,0.0,0.0,0.0,0.0,0.0,0.0,0.0,0.0,0.0,0.0,0.0,0.0,0.0,0.0,0.0,0.0,0.0,0.0,0.0,0.0,0.0,0.0,0.0,0.0,0.0,0.0,0.0,0.0,0.0,0.0,0.0,0.0,0.0,0.0,0.0,0.0,0.0,0.0,0.0,0.0,0.0,0.0,0.0,0.0,0.0,0.0,0.0,0.0,0.0,0.0,0.0,0.0,0.0,0.0,0.0,0.0,0.0,0.0,0.0,0.0,0.0,0.0,0.0,0.0,0.0,0.0,0.0,0.0,0.0,0.0,0.0,0.0,0.0,0.0,-3.363,-3.363,0.0,-3.363,-3.363,-3.363,-3.3353,-3.3318,-3.3596,0.0,0.0,0.0,0.0,0.0,0.0,0.0,0.0,0.0,0.0,0.0,0.0,0.0,0.0,0.0,0.0,0.0,0.0,0.0,0.0,0.0,0.0,0.0,0.0,0.0,0.0,0.0,0.0,0.0,0.0,0.0,0.0,0.0,0.0,0.0,0.0,0.0,0.0,0.0,0.0,0.0,0.0,0.0,0.0,0.0,0.0,0.0,0.0,0.0,0.0,0.0,0.0,0.0,0.0,0.0,0.0,0.0,0.0,0.0,0.0,0.0,0.0,0.0,0.0,0.0,0.0,0.0,0.0,0.0,0.0,0.0,0.0,0.0,0.0,0.0,0.0,0.0,0.0,0.0,0.0,0.0,0.0,0.0,0.0,0.0,0.0,0.0,0.0,0.0,0.0,0.0,0.0,0.0,0.0,0.0,0.0,0.0,0.0,0.0,0.0,0.0,0.0,-3.2826,-3.2861,-3.2861,0.0,-3.2861,-3.2861,-3.2861,-3.2627,-3.2591,-3.284,0.0,0.0,0.0,0.0,0.0,0.0,0.0,0.0,0.0,0.0,0.0,0.0,0.0,0.0,0.0,0.0,0.0,0.0,0.0,0.0,0.0,0.0,0.0,0.0,0.0,0.0,0.0,0.0,0.0,0.0,0.0,0.0,0.0,0.0,0.0,0.0,0.0,0.0,0.0,0.0,0.0,0.0,0.0,0.0,0.0,0.0,0.0,0.0,0.0,0.0,0.0,0.0,0.0,0.0,0.0,0.0,0.0,0.0,0.0,0.0,0.0,0.0,0.0,0.0,0.0,0.0,0.0,0.0,0.0,0.0,0.0,0.0,0.0,0.0,0.0,0.0,0.0,0.0,0.0,0.0,0.0,0.0,0.0,0.0,0.0,0.0,0.0,0.0,0.0,0.0,0.0,0.0,0.0,0.0,0.0,0.0,0.0,0.0,0.0,0.0,0.0,0.0,-3.1992,-3.2101,-3.2101,-3.2101,-3.2101,-3.2101,-3.2101,-3.1445,-3.131,0.0,0.0,0.0,0.0,0.0,0.0,0.0,0.0,0.0,0.0,0.0,0.0,0.0,0.0,0.0,0.0,0.0,0.0,0.0,0.0,0.0,0.0,0.0,0.0,0.0,0.0,0.0,0.0,0.0,0.0,0.0,0.0,0.0,0.0,0.0,0.0,0.0,0.0,0.0,0.0,0.0,0.0,0.0,0.0,0.0,0.0,0.0,0.0,0.0,0.0,0.0,0.0,0.0,0.0,0.0,0.0,0.0,0.0,0.0,0.0,0.0,0.0,0.0,0.0,0.0,0.0,0.0,0.0,0.0,0.0,0.0,0.0,0.0,0.0,0.0,0.0,0.0,0.0,0.0,0.0,0.0,0.0,0.0,0.0,0.0,0.0,0.0,0.0,0.0,0.0,0.0,0.0,0.0,0.0,0.0,0.0,0.0,0.0,0.0,0.0,0.0,0.0,0.0,-3.2512,-3.2512,-3.2512,-3.2512,-3.2512,-3.2512,-3.2512,-3.2331,-3.2122,-3.1893,0.0,0.0,0.0,0.0,0.0,0.0,0.0,0.0,0.0,0.0,0.0,0.0,0.0,0.0,0.0,0.0,0.0,0.0,0.0,0.0,0.0,0.0,0.0,0.0,0.0,0.0,0.0,0.0,0.0,0.0,0.0,0.0,0.0,0.0,0.0,0.0,0.0,0.0,0.0,0.0,0.0,0.0,0.0,0.0,0.0,0.0,0.0,0.0,0.0,0.0,0.0,0.0,0.0,0.0,0.0,0.0,0.0,0.0,0.0,0.0,0.0,0.0,0.0,0.0,0.0,0.0,0.0,0.0,0.0,0.0,0.0,0.0,0.0,0.0,0.0,0.0,0.0,0.0,0.0,0.0,0.0,0.0,0.0,0.0,0.0,0.0,0.0,0.0,0.0,0.0,0.0,0.0,0.0,0.0,0.0,0.0,0.0,0.0,0.0,0.0,0.0,0.0,-3.2579,-3.25,-3.2447,-3.2579,-3.2487,-3.2447,-3.2579,-3.2487,-3.2265,-3.1876,0.0,0.0,0.0,0.0,0.0,0.0,0.0,0.0,0.0,0.0,0.0,0.0,0.0,0.0,0.0,0.0,0.0,0.0,0.0,0.0,0.0,0.0,0.0,0.0,0.0,0.0,0.0,0.0,0.0,0.0,0.0,0.0,0.0,0.0,0.0,0.0,0.0,0.0,0.0,0.0,0.0,0.0,0.0,0.0,0.0,0.0,0.0,0.0,0.0,0.0,0.0,0.0,0.0,0.0,0.0,0.0,0.0,0.0,0.0,0.0,0.0,0.0,0.0,0.0,0.0,0.0,0.0,0.0,0.0,0.0,0.0,0.0,0.0,0.0,0.0,0.0,0.0,0.0,0.0,0.0,0.0,0.0,0.0,0.0,0.0,0.0,0.0,0.0,0.0,0.0,0.0,0.0,0.0,0.0,0.0,0.0,0.0,0.0,0.0,0.0,0.0,0.0,-3.2495,-3.2322,-3.2241,-3.2495,-3.2294,-3.2241,-3.2508,-3.2294,-3.2135,-3.2096,0.0,0.0,0.0,0.0,0.0,0.0,0.0,0.0,0.0,0.0,0.0,0.0,0.0,0.0,0.0,0.0,0.0,0.0,0.0,0.0,0.0,0.0,0.0,0.0,0.0,0.0,0.0,0.0,0.0,0.0,0.0,0.0,0.0,0.0,0.0,0.0,0.0,0.0,0.0,0.0,0.0,0.0,0.0,0.0,0.0,0.0,0.0,0.0,0.0,0.0,0.0,0.0,0.0,0.0,0.0,0.0,0.0,0.0,0.0,0.0,-3.3768,0.0,0.0,0.0,0.0,0.0,0.0,0.0,0.0,0.0,0.0,0.0,0.0,0.0,0.0,0.0,0.0,0.0,0.0,0.0,0.0,0.0,0.0,0.0,0.0,0.0,0.0,0.0,0.0,0.0,0.0,0.0,0.0,0.0,0.0,0.0,0.0,0.0,0.0,0.0,0.0,0.0,-3.3409,-3.3367,-3.3367,-3.3409,-3.3367,-3.3367,-3.3409,-3.3367,-3.3146,-3.2723,-3.2739,0.0,0.0,0.0,0.0,0.0,0.0,0.0,0.0,0.0,0.0,0.0,0.0,0.0,0.0,0.0,0.0,0.0,0.0,0.0,0.0,0.0,0.0,0.0,0.0,0.0,0.0,0.0,0.0,0.0,0.0,0.0,0.0,0.0,0.0,0.0,0.0,0.0,0.0,0.0,0.0,0.0,0.0,0.0,0.0,0.0,0.0,0.0,0.0,0.0,0.0,0.0,0.0,0.0,0.0,0.0,0.0,0.0,0.0,0.0,0.0,-3.3641,0.0,0.0,0.0,0.0,0.0,0.0,0.0,0.0,0.0,0.0,0.0,0.0,0.0,0.0,0.0,0.0,0.0,0.0,0.0,0.0,0.0,0.0,0.0,0.0,0.0,0.0,0.0,0.0,0.0,0.0,0.0,0.0,0.0,0.0,0.0,0.0,0.0,0.0,0.0,0.0,-3.3556,-3.3471,-3.3441,-3.3556,-3.3471,-3.3441,-3.3556,-3.3471,-3.3101,-3.2331,-3.2404,0.0,0.0,0.0,0.0,0.0,0.0,0.0,0.0,0.0,0.0,0.0,0.0,0.0,0.0,0.0,0.0,0.0,0.0,0.0,0.0,0.0,0.0,0.0,0.0,0.0,0.0,0.0,0.0,0.0,0.0,0.0,0.0,0.0,0.0,0.0,0.0,0.0,0.0,0.0,0.0,0.0,0.0,0.0,0.0,0.0,0.0,0.0,0.0,0.0,0.0,0.0,0.0,0.0,0.0,-3.3441,-3.3124,-3.3099,-3.3013,-3.2853,-3.3018,-3.3202,-3.3356,0.0,0.0,0.0,0.0,0.0,0.0,0.0,0.0,0.0,0.0,0.0,0.0,0.0,0.0,0.0,0.0,0.0,0.0,0.0,0.0,0.0,0.0,0.0,0.0,0.0,-2.8034,-2.7846,0.0,0.0,0.0,0.0,0.0,0.0,0.0,0.0,0.0,0.0,0.0,0.0,-3.2859,-3.2698,-3.2655,-3.2815,-3.2698,-3.2655,-3.2815,-3.2698,-3.2264,-3.1403,-3.1581,-3.1291,0.0,0.0,0.0,0.0,0.0,0.0,0.0,0.0,0.0,0.0,0.0,0.0,0.0,0.0,0.0,0.0,0.0,0.0,0.0,0.0,0.0,0.0,0.0,0.0,0.0,0.0,0.0,0.0,0.0,0.0,0.0,0.0,-3.0932,-3.0932,0.0,0.0,0.0,0.0,0.0,0.0,0.0,0.0,0.0,0.0,0.0,0.0,0.0,0.0,-3.3154,-3.3154,-3.3154,-3.3154,-3.3154,-3.3154,-3.3068,-3.2208,-3.1801,-3.1757,-3.0979,0.0,-3.3154,-3.3356,0.0,0.0,0.0,0.0,0.0,0.0,0.0,0.0,0.0,0.0,0.0,0.0,0.0,0.0,0.0,0.0,0.0,0.0,0.0,0.0,0.0,0.0,-2.7489,-2.7536,-2.7404,-2.7394,0.0,-2.8387,-2.8991,-2.8991,0.0,0.0,0.0,0.0,0.0,0.0,0.0,0.0,-3.0609,-3.0621,-3.0576,-3.0621,-3.0621,-3.0576,-3.0621,-3.0621,-3.0531,-3.0396,-3.0441,-3.0396,-3.026,-3.0281,0.0,0.0,0.0,0.0,0.0,0.0,0.0,0.0,0.0,0.0,0.0,0.0,0.0,0.0,0.0,0.0,0.0,0.0,0.0,0.0,0.0,0.0,0.0,0.0,0.0,0.0,0.0,0.0,0.0,-3.0373,-3.0328,-3.0328,-3.1069,-3.1581,0.0,0.0,0.0,0.0,0.0,0.0,0.0,0.0,0.0,-3.0857,-3.1258,-3.1713,-3.2264,-3.2264,-3.2537,-3.3124,-3.3124,-3.3124,-3.3081,-3.2077,-3.1581,-3.1536,-3.0621,-3.0666,-3.148,-3.1569,-3.1601,-3.1601,0.0,0.0,0.0,0.0,0.0,-3.0666,-2.9715,0.0,0.0,0.0,0.0,0.0,0.0,0.0,0.0,0.0,0.0,0.0,0.0,0.0,0.0,-2.7262,-2.7309,-2.7262,-2.7129,-2.7536,-2.7904,0.0,-2.8678,-2.936,-2.936,0.0,0.0,0.0,0.0,0.0,-3.0215,-3.0215,-3.0215,-3.0215,-3.0215,-3.0215,-3.0215,-3.0215,-2.9943,-2.9395,-2.936,-2.913,-2.8574,-2.9084,-2.9532,0.0,0.0,0.0,0.0,0.0,0.0,0.0,0.0,0.0,0.0,0.0,0.0,0.0,0.0,0.0,0.0,0.0,0.0,0.0,0.0,0.0,0.0,0.0,0.0,0.0,0.0,0.0,0.0,-2.9441,-2.9441,-2.9441,-3.0317,-3.0857,0.0,0.0,0.0,0.0,0.0,0.0,-2.9749,-2.9977,-2.9977,-2.9601,-2.9932,-3.0429,-3.1113,-3.1214,-3.1625,-3.2351,-3.2351,-3.2351,-3.2295,-3.1303,-3.0857,-3.0812,-2.9852,-2.9441,-2.9486,-2.9988,-3.0215,-3.0215,-3.0215,-3.0215,-3.017,-2.9897,-2.9806,-2.9669,-2.8678,-2.8315,-2.8128,-2.7441,0.0,-2.7119,-2.7119,0.0,0.0,0.0,0.0,-2.6842,-2.7023,0.0,-2.6842,-2.7071,-2.7119,-2.7023,-2.6842,-2.6928,-2.7119,0.0,-2.7809,-2.8362,-2.8362,0.0,0.0,0.0,0.0,-2.9441,-2.9441,-2.9441,-2.9441,-2.9441,-2.9441,-2.9441,-2.9441,-2.9441,-2.913,-2.8398,-2.8362,-2.8034,-2.7309,-2.7998,-2.8445,-2.8678,0.0,0.0,0.0,0.0,0.0,0.0,0.0,0.0,0.0,0.0,0.0,0.0,0.0,0.0,0.0,0.0,0.0,0.0,0.0,0.0,0.0,0.0,0.0,0.0,0.0,0.0,0.0,0.0,0.0,-2.7441,-2.8269,0.0,0.0,0.0,0.0,-3.026,-3.0215,-2.9658,-2.8459,-2.9315,-2.9258,-2.8053,-2.9212,-2.9852,-2.9897,-3.0147,-3.0306,-3.0351,-3.0351,-3.0351,-3.0306,-2.9314,-2.8863,-2.8817,-2.7857,-2.7441,-2.7584,-2.9441,-3.0215,-3.0215,-3.0215,-3.0215,-3.0079,-2.913,-2.8771,-2.8631,-2.7726,-2.7214,-2.6996,-2.6948,-2.6747,-2.6544,-2.6544,-2.6544,0.0,0.0,-2.6496,-2.6496,-2.6544,-2.6544,-2.6496,-2.6544,-2.6544,-2.6544,-2.6496,-2.6544,-2.6602,0.0,-2.7167,-2.7357,-2.7357,0.0,-2.7441,-2.7441,-2.7441,-2.7441,-2.7441,-2.7441,-2.7441,-2.7441,-2.7441,-2.7441,-2.7441,-2.7441,-2.7441,-2.7357,-2.7357,-2.7347,-2.7309,-2.7357,-2.7809,-2.8678,-2.7631,0.0,0.0,0.0,0.0,0.0,0.0,0.0,0.0,0.0,0.0,0.0,0.0,0.0,0.0,0.0,0.0,0.0,0.0,0.0,0.0,0.0,0.0,0.0,0.0,0.0,0.0,0.0,0.0,-2.7309,-2.8128,0.0,-2.847,-2.8784,-2.8912,-2.8716,-2.8179,-2.76,-2.7183,-2.7505,-2.7447,-2.703,-2.7447,-2.7945,-2.8566,-2.8659,-2.9039,-2.9692,-2.9692,-2.9692,-2.9647,-2.8634,-2.8179,-2.8132,-2.7183,-2.6784,-2.6832,-2.7515,-2.8023,-2.8351,-2.8351,-2.8351,-2.8269,-2.7715,-2.7536,-2.7489,-2.6976,-2.6736,-2.6651,-2.6651,-2.6602,-2.6448,-2.6294,-2.6352,-2.6448,-2.6294,-2.6245,-2.6294,-2.6448,-2.6342,-2.6304,-2.6448,-2.6496,-2.6448,-2.6294,-2.64,-2.6496,-2.64,-2.6736,-2.7081,-2.7262,-2.7309,-2.7262,-2.7081,-2.7167,-2.7167,-2.6832,-2.7071,-2.7167,-2.6832,-2.7071,-2.7214,-2.7081,-2.7034,-2.7034,-2.7034,-2.688,-2.6784,-2.6784,-2.6784,-2.6918,-2.7289,-2.688,-2.6832,0.0,0.0,0.0,0.0,0.0,0.0,0.0,0.0,0.0,0.0,0.0,0.0,0.0,0.0,0.0,0.0,0.0,0.0,0.0,0.0,0.0,0.0,0.0,0.0,0.0,0.0,-2.7262,-2.7167,-2.7715,-2.7987,-2.7731,-2.7683,-2.7636,-2.7426,-2.6992,-2.6669,-2.662,-2.6712,-2.6743,-2.6655,-2.6743,-2.7114,-2.7741,-2.7838,-2.8221,-2.8841,-2.8841,-2.8841,-2.8841,-2.8174,-2.7886,-2.7838,-2.7049,-2.6718,-2.6707,-2.6557,-2.6688,-2.7023,-2.7023,-2.7023,-2.7023,-2.6842,-2.6757,-2.6747,-2.6448,-2.6352,-2.6352,-2.6265,-2.6217,-2.6217,-2.6014,-2.611,-2.6207,-2.6014,-2.5965,-2.6014,-2.6159,-2.611,-2.6014,-2.6207,-2.6217,-2.6159,-2.6004,-2.611,-2.6207,-2.61,-2.6448,-2.6794,-2.7023,-2.7023,-2.6976,-2.69,-2.6986,-2.6928,-2.6651,-2.688,-2.688,-2.6544,-2.6832,-2.6976,-2.6805,-2.6757,-2.6757,-2.6757,-2.6602,-2.6496,-2.6496,-2.6496,-2.6496,-2.6496,-2.64,-2.6352,-2.6352,0.0,0.0,0.0,0.0,0.0,0.0,0.0,0.0,0.0,0.0,0.0,0.0,0.0,0.0,0.0,0.0,0.0,0.0,0.0,0.0,0.0,0.0,0.0,-2.7309,-2.7309,-2.7167,-2.6948,-2.6911,-2.6815,-2.6526,-2.6526,-2.6536,-2.6536,-2.688,-2.7022,-2.6834,-2.7171,-2.7247,-2.7012,-2.7247,-2.7399,-2.7399,-2.7662,-2.7763,-2.7763,-2.7763,-2.7763,-2.7763,-2.7763,-2.7763,-2.7743,-2.7302,-2.7121,-2.7081,-2.6649,-2.6516,-2.6516,-2.6506,-2.6496,-2.6496,-2.6496,-2.6496,-2.6448,-2.6197,-2.61,-2.6052,-2.5781,-2.5693,-2.5693,-2.5693,-2.5693,-2.5693,-2.5693,-2.5693,-2.5693,-2.5693,-2.5693,-2.5693,-2.5693,-2.5693,-2.5693,-2.5693,-2.5693,-2.5781,-2.6052,-2.6294,-2.6496,-2.6496,-2.6496,-2.6602,-2.6853,-2.6651,0.0,-2.6853,-2.6651,-2.6496,-2.6496,-2.6496,-2.6496,-2.6496,-2.6496,-2.6496,-2.6496,-2.6496,-2.6506,-2.6506,-2.6506,-2.6506,-2.6506,-2.6197,-2.61,-2.61,0.0,0.0,0.0,0.0,0.0,0.0,0.0,0.0,0.0,0.0,0.0,0.0,0.0,0.0,0.0,0.0,0.0,0.0,0.0,0.0,0.0,0.0,-2.7081,-2.7262,-2.7129,-2.6996,-2.69,-2.6982,-2.6969,-2.6724,-2.6963,-2.7042,-2.6861,-2.697,-2.6988,-2.6937,-2.7045,-2.7063,-2.7012,-2.7063,-2.7114,-2.7114,-2.7165,-2.7216,-2.7216,-2.7216,-2.7216,-2.7216,-2.7216,-2.7216,-2.7206,-2.7088,-2.7038,-2.6999,-2.6576,-2.6448,-2.6419,-2.6482,-2.6496,-2.6496,-2.6294,-2.611,-2.5927,-2.583,-2.583,-2.5781,-2.5732,-2.5693,-2.5693,-2.5693,-2.5693,-2.5693,-2.5693,-2.5693,-2.5693,-2.5693,-2.5693,-2.5693,-2.5693,-2.5693,-2.5693,-2.5693,-2.5693,-2.5732,-2.5781,-2.5878,-2.6024,-2.6448,-2.6496,-2.6448,-2.6352,0.0,0.0,-2.6072,-2.6314,-2.6352,-2.5975,-2.6265,-2.64,-2.6245,-2.6197,-2.6197,-2.6197,-2.6014,-2.5927,-2.5927,-2.5927,-2.5927,-2.5927,-2.583,-2.583,0.0,0.0,0.0,0.0,0.0,0.0,0.0,0.0,0.0,0.0,0.0,0.0,0.0,0.0,0.0,0.0,0.0,0.0,0.0,0.0,0.0,0.0,-2.714,-2.7176,-2.7204,-2.7059,-2.6924,-2.6816,-2.7051,-2.7122,-2.6932,-2.7109,-2.7155,-2.7012,-2.7187,-2.7285,-2.7285,-2.7451,-2.7549,-2.7549,-2.7549,-2.7549,-2.7549,-2.7549,-2.7549,-2.7549,-2.7549,-2.7549,-2.7549,-2.7549,-2.7549,0.0,-2.7363,-2.7285,-2.7256,-2.6826,-2.665,0.0,0.0,0.0,0.0,0.0,-2.582,-2.5693,-2.5693,-2.5693,-2.5693,-2.5693,-2.5693,-2.5693,-2.5693,-2.5693,-2.5693,-2.5693,-2.5693,-2.5693,-2.5693,-2.5693,-2.5693,-2.5693,-2.5693,-2.5693,-2.5693,-2.5693,-2.5693,-2.5693,0.0,0.0,-2.612,-2.6169,-2.6159,-2.61,-2.6159,-2.6062,-2.5868,-2.6024,-2.6072,-2.5732,-2.5975,-2.611,-2.5965,-2.5917,0.0,0.0,0.0,-2.5693,-2.5693,-2.5693,0.0,0.0,0.0,-2.5693,0.0,0.0,0.0,0.0,-2.5917,-2.5868,0.0,0.0,0.0,0.0,0.0,0.0,0.0,0.0,0.0,0.0,0.0,0.0,0.0,0.0,0.0,0.0,-2.7201,-2.7367,-2.7161,-2.7162,-2.7073,-2.6814,-2.715,-2.7326,-2.709,-2.7129,-2.7158,-2.7158,-2.7519,-2.7787,-2.7787,0.0,0.0,0.0,0.0,-2.8291,-2.8291,-2.8291,-2.8291,-2.8291,-2.8291,-2.8291,-2.8291,-2.8291,-2.8291,-2.8271,-2.79,-2.7787,-2.7705,-2.7266,-2.706,-2.6934,-2.6074,-2.5762,-2.5752,-2.5703,-2.5693,0.0,0.0,0.0,0.0,-2.5693,-2.5693,-2.5693,-2.5693,-2.5693,-2.5693,-2.5693,-2.5693,-2.5693,-2.5693,-2.5693,-2.5693,-2.5693,-2.5693,-2.5693,-2.5693,-2.5693,-2.5693,-2.5693,-2.5693,-2.5693,-2.5693,-2.5693,-2.5781,-2.6004,-2.5868,-2.5781,-2.6004,-2.5868,-2.5693,-2.5693,0.0,0.0,-2.5693,-2.5693,-2.5693,-2.5693,-2.5693,-2.5693,-2.5693,-2.5693,-2.5693,-2.5693,-2.5693,-2.5693,-2.5693,-2.5693,-2.5693,-2.5693,-2.5693,-2.5693,0.0,0.0,0.0,0.0,0.0,0.0,0.0,0.0,0.0,0.0,0.0,0.0,0.0,0.0,0.0,-2.7067,-2.6942,-2.6963,-2.7321,-2.7485,-2.7481,-2.731,-2.7462,-2.7633,-2.7591,-2.7851,-2.8047,-2.8047,-2.8125,-2.8174,-2.8174,-2.8252,0.0,-2.8291,-2.8291,-2.8291,-2.8291,-2.8291,-2.8291,-2.8291,0.0,0.0,-2.8291,-2.8291,-2.8291,-2.8291,-2.8203,-2.8174,-2.8135,-2.7715,-2.7334,-2.6963,-2.6465,-2.626,-2.6221,-2.582,-2.5693,-2.5693,-2.5693,-2.5693,-2.5693,-2.5693,-2.5693,-2.5693,-2.5693,-2.5693,0.0,-2.5693,-2.5693,-2.5693,-2.5693,-2.5693,-2.5693,-2.5693,-2.5693,-2.5693,-2.5693,-2.5693,-2.5693,-2.5693,-2.5693,-2.5693,-2.5693,-2.5693,-2.5742,-2.5781,-2.5732,-2.5742,-2.5781,-2.5732,-2.5693,-2.5693,-2.5693,-2.5693,-2.5693,-2.5693,-2.5693,-2.5693,-2.5693,-2.5693,-2.5693,-2.5693,-2.5693,-2.5693,-2.5693,-2.5693,-2.5693,-2.5693,-2.5693,-2.5693,-2.5693,-2.5693,0.0,0.0,0.0,0.0,0.0,0.0,0.0,0.0,0.0,0.0,0.0,-2.7214,0.0,0.0,-2.7153,-2.6972,-2.7172,-2.7377,-2.7552,-2.781,-2.7875,-2.7589,-2.7819,-2.7978,-2.7978,-2.8164,-2.8379,-2.8594,-2.8603,-2.8701,-2.8916,-2.8721,-2.8603,-2.8603,-2.8398,-2.8291,-2.8291,-2.8291,-2.8291,-2.8291,-2.8291,-2.8291,-2.8291,-2.8291,-2.8291,-2.8291,-2.8291,-2.8291,-2.8271,-2.8066,-2.7851,-2.7617,-2.7197,-2.6768,-2.6367,-2.6143,-2.5879,-2.5693,-2.5693,-2.5693,-2.5693,-2.5693,-2.5693,-2.5693,-2.5693,-2.5693,-2.5693,-2.5693,-2.5693,-2.5693,-2.5693,-2.5693,-2.5693,-2.5693,-2.5693,-2.5693,-2.5693,-2.5693,-2.5693,-2.5693,-2.5693,-2.5693,-2.5693,-2.5693,-2.5693,-2.5693,-2.5693,-2.5693,-2.5693,-2.5693,-2.5693,-2.5693,-2.5693,-2.5693,-2.5693,-2.5693,-2.5693,-2.5693,-2.5693,-2.5693,-2.5693,-2.5693,-2.5693,-2.5693,-2.5693,-2.5693,-2.5693,-2.5693,-2.5693,-2.5693,-2.5693,-2.5693,0.0,0.0,0.0,0.0,0.0,0.0,0.0,0.0,-2.7309,-2.7309,-2.7334,-2.7253,-2.6975,-2.7244,-2.7361,-2.7053,-2.7505,-2.7894,-2.7826,-2.8086,-2.8193,-2.7939,-2.8203,-2.8418,-2.8418,-2.8486,-2.8682,-2.9023,-2.9043,-2.9199,-2.9551,-2.9238,-2.9043,-2.9043,-2.8633,-2.8418,-2.8418,-2.833,-2.8291,-2.8291,-2.8291,-2.8291,-2.8291,-2.8291,-2.8291,-2.8291,-2.8291,-2.8291,-2.8291,-2.8291,-2.8291,-2.8262,-2.792,-2.7314,-2.6631,-2.6543,-2.624,-2.5859,-2.5859,-2.5762,-2.5693,-2.5693,-2.5693,-2.5693,-2.5693,-2.5693,-2.5693,-2.5693,-2.5693,-2.5693,-2.5693,-2.5693,-2.5693,-2.5693,-2.5693,-2.5693,-2.5693,-2.5693,-2.5693,-2.5693,-2.5693,-2.5693,-2.5693,-2.5693,-2.5693,-2.5693,-2.5693,-2.5693,-2.5693,-2.5693,-2.5693,-2.5693,-2.5693,-2.5693,-2.5693,-2.5693,-2.5693,-2.5693,-2.5693,-2.5693,-2.5693,-2.5693,-2.5693,-2.5693,-2.5693,-2.5693,-2.5693,-2.5693,-2.5693,-2.5693,-2.5693,-2.5693,-2.7309,-2.7309,-2.7309,-2.7309,-2.7309,-2.7309,0.0,0.0,-2.7309,-2.7309,-2.739,-2.7384,-2.7129,-2.7282,-2.7459,-2.7555,-2.766,-2.7845,-2.8174,-2.8262,-2.8418,-2.874,-2.8818,-2.8848,-2.8848,-2.9199,-2.9443,-2.9492,-2.9502,-2.9512,-2.9626,-2.9521,-2.9502,-2.9502,-2.9072,-2.8848,-2.8848,-2.8476,-2.8291,-2.8291,-2.8291,-2.8291,-2.8291,-2.8291,-2.8291,-2.8291,-2.8291,-2.8291,-2.8291,-2.8291,-2.8291,-2.8291,-2.8242,-2.7939,-2.7523,-2.709,-2.668,-2.6318,-2.6318,-2.6064,-2.5693,-2.5693,-2.5693,-2.5693,-2.5693,-2.5693,-2.5693,-2.5693,-2.5693,-2.5693,-2.5693,-2.5693,-2.5693,-2.5693,-2.5693,-2.5693,-2.5693,-2.5693,-2.5693,-2.5693,-2.5693,-2.5693,-2.5693,-2.5693,-2.5693,-2.5693,-2.5693,-2.5693,-2.5693,-2.5693,-2.5693,-2.5693,-2.5693,-2.5693,-2.5693,-2.5693,-2.5693,-2.5693,-2.5693,-2.5693,-2.5693,-2.5693,-2.5693,-2.5693,-2.5693,-2.5693,-2.5693,-2.5693,-2.5693,-2.5693,-2.5693,-2.5693,-2.7309,-2.7309,-2.7309,-2.7309,-2.7309,-2.7309,-2.7309,-2.7309,-2.7382,-2.7593,-2.7567,-2.7487,-2.7492,-2.7641,-2.7752,0.0,-2.7924,-2.8096,-2.8271,-2.8291,-2.8447,-2.8867,-2.9141,-2.9297,-2.9297,-2.9463,-2.9678,-2.9912,-2.9932,-3.0049,-3.0322,-3.0078,-2.9932,-2.9932,-2.9521,-2.918,-2.8916,-2.874,-2.8535,-2.8291,-2.8291,-2.8291,-2.8291,-2.8291,-2.8291,-2.8291,-2.8291,-2.8291,-2.8291,-2.8291,-2.8291,-2.8291,-2.8291,-2.8184,-2.7978,-2.7549,-2.6963,-2.6387,-2.6387,-2.6103,-2.5693,-2.5693,-2.5693,-2.5693,-2.5693,-2.5693,-2.5693,-2.5693,-2.5693,-2.5693,-2.5693,-2.5693,-2.5693,-2.5693,-2.5693,-2.5693,-2.5693,-2.5693,-2.5693,-2.5693,-2.5693,-2.5693,-2.5693,-2.5693,-2.5693,-2.5693,-2.5693,-2.5693,-2.5693,-2.5693,-2.5693,-2.5693,-2.5693,-2.5693,-2.5693,-2.5693,-2.5693,-2.5693,-2.5693,-2.5693,-2.5693,-2.5693,-2.5693,-2.5693,-2.5693,-2.5693,-2.5693,-2.5693,-2.5693,-2.5693,-2.5693,-2.5693,-2.7309,-2.7309,-2.7309,-2.7309,-2.7309,-2.734,-2.7417,-2.7486,-2.7572,-2.793,-2.7879,-2.7773,-2.7843,-2.8006,-2.8042,-2.7894,-2.8096,-2.8291,-2.8291,-2.8398,-2.8623,-2.9053,-2.9482,-2.9795,-2.9922,-2.9932,-3.0059,-3.0361,-3.0391,-3.0537,-3.0869,-3.0576,-3.0391,-3.0391,-2.9971,-2.959,-2.9277,-2.9033,-2.876,-2.8467,-2.835,-2.8291,-2.8291,-2.8291,-2.8291,-2.8291,-2.8291,-2.8291,-2.8291,-2.8291,-2.8291,-2.8291,-2.8291,-2.8291,-2.8252,-2.7949,-2.7373,-2.6728,-2.6602,-2.6279,-2.5849,-2.5732,-2.5693,-2.5693,-2.5693,-2.5693,-2.5693,-2.5693,-2.5693,-2.5693,-2.5693,-2.5693,-2.5693,-2.5693,-2.5693,-2.5693,-2.5693,-2.5693,-2.5693,-2.5693,-2.5693,-2.5693,-2.5693,-2.5693,-2.5693,-2.5693,-2.5693,-2.5693,-2.5693,-2.5693,-2.5693,-2.5693,-2.5693,-2.5693,-2.5693,-2.5693,-2.5693,-2.5693,-2.5693,-2.5693,-2.5693,-2.5693,-2.5693,-2.5693,-2.5693,-2.5693,-2.5693,-2.5693,-2.5693,-2.5693,-2.5693,-2.5693,-2.7309,-2.7309,-2.7309,-2.7309,-2.7309,-2.7423,-2.78,-2.7903,-2.794,-2.8175,-2.835,-2.8396,-2.8053,-2.8147,-2.8271,-2.8271,-2.8281,-2.8291,-2.8291,-2.8643,-2.9062,-2.9502,-2.9922,-3.0351,0.0,-3.085,-3.0859,-3.0869,-3.0869,-3.0869,-3.0889,-3.0879,-3.0869,-3.0869,-3.042,-3.0176,-3.0156,-2.9336,-2.8916,-2.8896,-2.8486,-2.8291,-2.8291,-2.8291,-2.8291,-2.8291,-2.8291,-2.8291,-2.8291,-2.8291,-2.8291,-2.8291,-2.8291,-2.8291,-2.8291,-2.8281,-2.7998,-2.762,-2.7139,-2.6719,-2.6299,-2.583,-2.5693,-2.5693,-2.5693,-2.5693,-2.5693,-2.5693,-2.5693,-2.5693,-2.5693,-2.5693,-2.5693,-2.5693,-2.5693,-2.5693,-2.5693,-2.5693,-2.5693,-2.5693,-2.5693,-2.5693,-2.5693,-2.5693,-2.5693,-2.5693,-2.5693,-2.5693,-2.5693,-2.5693,-2.5693,-2.5693,-2.5693,-2.5693,-2.5693,-2.5693,-2.5693,-2.5693,-2.5693,-2.5693,-2.5693,-2.5693,-2.5693,-2.5693,-2.5693,-2.5693,-2.5693,-2.5693,-2.5693,-2.5693,-2.5693,-2.5693,-2.7309,-2.7309,-2.7382,-2.7624,-2.7696,-2.7772,-2.8039,-2.8102,-2.8175,-2.838,-2.8284,-2.8214,-2.8407,-2.8353,-2.8291,-2.8291,-2.8291,-2.8291,-2.8291,-2.8418,-2.8769,-2.9482,-2.9697,0.0,0.0,0.0,0.0,-3.0889,-3.0889,-3.0889,-3.0889,-3.0889,-3.0889,-3.0889,-3.0742,-3.0508,-3.0205,-2.9629,-2.9209,-2.8916,-2.8496,-2.8291,-2.8291,-2.8291,-2.8291,-2.8291,-2.8291,-2.8291,-2.8291,-2.8291,-2.8291,-2.8291,-2.8291,-2.8291,-2.8291,-2.8291,-2.8203,-2.7978,-2.7266,-2.6738,-2.6318,-2.583,-2.5693,-2.5693,-2.5693,-2.5693,-2.5693,-2.5693,-2.5693,-2.5693,-2.5693,-2.5167,-2.4648,-2.4648,-2.4106,-2.3552,-2.3552,-2.3552,-2.3552,-2.3552,-2.3552,-2.3552,-2.3552,-2.4156,-2.4864,-2.5586,-2.5693,-2.5693,-2.5693,-2.5693,-2.5693,-2.5693,-2.5693,-2.5693,-2.5693,-2.5693,-2.5693,-2.5693,-2.5693,-2.5693,-2.5693,-2.5693,-2.5693,-2.5693,-2.5693,-2.5693,-2.5693,-2.5693,-2.5693,-2.5693,-2.5693,-2.5693,-2.7506,-2.7489,-2.7603,-2.8059,-2.8173,-2.8198,-2.842,-2.8432,-2.8452,-2.8535,-2.8416,-2.8285,-2.8518,-2.8408,-2.8291,-2.8291,-2.8291,-2.8291,-2.8291,-2.8418,-2.8779,-2.9482,-2.9707,-3.0088,0.0,0.0,0.0,-3.0889,-3.0889,-3.0889,-3.0889,-3.0889,-3.0889,-3.0889,-3.0889,-3.0752,-3.0449,-2.9863,-2.9277,-2.8691,-2.8418,-2.8291,-2.8291,-2.8291,-2.8291,-2.8291,-2.8291,-2.8291,-2.8291,-2.8291,-2.8291,-2.8291,-2.8291,-2.8291,-2.8291,-2.8291,-2.8291,-2.8193,-2.749,-2.6973,-2.6543,-2.6103,-2.5859,-2.5693,-2.5693,-2.543,-2.5118,-2.5118,-2.4873,-2.4569,-2.4569,-2.4048,-2.3543,-2.3543,-2.2985,-2.2484,-2.2484,-2.2484,-2.2484,-2.2484,-2.2484,-2.2484,-2.2484,-2.3085,-2.3741,-2.4461,-2.4569,-2.4824,-2.5586,-2.5693,-2.5693,-2.5693,-2.5693,-2.5693,-2.5693,-2.5693,-2.5693,-2.5693,-2.5693,-2.5693,-2.5693,-2.5693,-2.5693,-2.5693,-2.5693,-2.5693,-2.5693,-2.5693,-2.5693,-2.5693,-2.5693,-2.5693,-2.78,-2.7924,-2.8038,-2.8524,-2.8649,-2.8672,-2.8891,-2.89,-2.8867,-2.8701,-2.8684,-2.8621,0.0,0.0,-2.8291,-2.8291,-2.8291,-2.8291,-2.8291,-2.8633,-2.9053,0.0,0.0,0.0,0.0,0.0,0.0,-3.0889,0.0,-3.0889,-3.0889,-3.0889,-3.0889,-3.0889,-3.0889,-3.0889,-3.0889,-3.001,-2.9141,-2.8291,-2.8291,-2.8291,-2.8291,-2.8291,-2.8291,-2.8291,-2.8291,-2.8291,-2.8291,-2.8291,-2.8291,-2.8291,-2.8291,-2.8291,-2.8291,-2.8291,-2.8291,-2.8232,-2.7832,-2.7412,-2.6973,-2.6533,-2.6064,-2.5664,-2.5645,-2.4864,-2.4038,-2.4038,-2.3294,-2.2484,-2.2484,-2.2433,-2.2433,-2.2433,-2.2391,-2.2341,-2.2341,-2.2341,-2.2341,-2.2341,-2.2341,-2.2333,-2.2391,-2.2383,-2.2383,-2.2484,-2.2433,-2.3144,-2.5274,-2.5538,-2.5538,-2.5538,-2.5586,-2.5635,-2.5635,-2.5684,-2.5693,-2.5693,-2.5693,-2.5693,-2.5693,-2.5693,-2.5693,-2.5693,-2.5693,-2.5693,-2.5693,-2.5693,-2.5693,-2.5693,-2.5693,-2.5693,-2.78,-2.7924,-2.8121,-2.8928,-2.8982,-2.885,-2.9027,-2.8876,-2.8704,-2.8432,-2.8408,-2.8398,0.0,0.0,0.0,-2.8291,-2.8291,0.0,-2.8291,-2.8389,0.0,-2.9482,0.0,-3.0039,-3.082,-3.0889,0.0,0.0,-3.0889,-3.0889,-3.0889,-3.0889,-3.0889,-3.0889,-3.0889,-3.0889,-3.0889,-3.001,-2.9141,-2.8291,-2.8291,-2.8291,-2.8291,-2.8291,-2.8291,-2.8291,-2.8291,-2.8291,-2.8291,-2.8291,-2.8291,-2.8291,-2.8291,-2.8291,-2.8291,-2.8291,-2.8291,-2.8281,-2.8164,-2.7851,-2.7383,-2.6631,-2.58,-2.498,-2.4603,-2.3741,-2.2894,-2.2894,-2.2685,-2.2484,-2.2484,-2.1887,-2.1285,-2.1285,-2.068,-2.013,-2.013,-2.013,-2.013,-2.013,-2.013,-2.0388,-2.1183,-2.0637,-2.0688,-2.224,-2.1836,-2.1785,-2.3144,-2.3302,-2.3302,-2.3302,-2.4048,-2.4501,-2.4501,-2.5226,-2.5693,-2.5693,-2.5693,-2.5693,-2.5693,-2.5693,-2.5693,-2.5693,-2.5693,-2.5693,-2.5693,-2.5693,-2.5693,-2.5693,-2.5693,-2.5693,-2.81,-2.838,-2.87,-2.9425,-2.9508,-2.932,-2.9124,-2.8983,-2.8771,-2.8398,-2.8291,-2.8291,-2.8291,-2.8291,-2.8291,0.0,0.0,0.0,-2.8291,-2.8291,-2.8545,0.0,-2.9453,0.0,-3.0518,-3.0771,-3.0889,0.0,-3.0889,-3.0889,-3.0889,-3.0889,-3.0889,-3.0889,-3.0889,-3.0703,-3.0312,-2.9814,-2.9141,-2.8291,-2.8291,-2.8291,-2.8291,-2.8291,-2.8291,-2.8291,0.0,-2.8291,-2.8291,-2.8291,-2.796,-2.7574,-2.8067,-2.7618,-2.6844,-2.7897,-2.7618,-2.678,-2.7349,-2.7037,-2.6345,-2.6201,-2.5177,-2.3963,-2.3723,-2.2772,-2.1785,-2.1785,-2.1438,-2.1081,-2.1081,-2.0746,-2.0404,-2.0404,-2.0061,-1.9696,-1.9696,-1.9696,-1.9696,-1.9696,-1.9696,-1.9901,-2.0468,-2.0106,-2.0106,-2.1293,-2.0979,-2.0829,-2.139,-2.2087,-2.2484,-2.2484,-2.3035,-2.3384,-2.3384,-2.3958,-2.4313,-2.4313,-2.4313,-2.451,-2.4971,-2.502,-2.5226,-2.5684,-2.5693,-2.5693,-2.5693,-2.5693,-2.5693,-2.5693,-2.5693,-2.5693,-2.8473,-2.8907,-2.9332,-2.986,-2.9994,-2.9774,-2.9237,-2.9079,-2.892,-2.8398,-2.8291,-2.8291,-2.8291,-2.8291,-2.8291,-2.8291,0.0,-2.8291,-2.8291,-2.8291,-2.8447,-2.8867,-2.9307,-2.9736,-3.0156,-3.0615,-3.0889,-3.0889,-3.0889,-3.0889,-3.0889,-3.0889,-3.0889,-3.0889,-3.0889,-3.0469,-2.9636,-2.9626,-2.9141,-2.8291,-2.8291,-2.8291,-2.8291,-2.8291,-2.8291,-2.8291,0.0,0.0,-2.8291,-2.8291,-2.7682,-2.6853,-2.7906,-2.7006,-2.5388,-2.734,-2.6735,-2.5067,-2.5963,-2.5461,-2.4612,-2.5398,-2.4439,-2.2935,-2.284,-2.1873,-2.0822,-2.0822,-2.0164,-1.9403,-1.9403,-1.9616,-1.9828,-1.9828,-2.0033,-2.0183,-2.0183,-2.0183,-2.0183,-2.0183,-2.0183,-2.0183,-2.0183,-2.0183,-2.0183,-2.0183,-2.0183,-2.0183,-2.0183,-2.1362,-2.2165,-2.2165,-2.2215,-2.2291,-2.2291,-2.2433,-2.2484,-2.2484,-2.2484,-2.2935,-2.384,-2.4038,-2.455,-2.5479,-2.5635,-2.5693,-2.5693,-2.5693,-2.5693,-2.5693,-2.5693,-2.5693,-2.839,-2.8669,-2.8938,-2.9787,-2.9827,-2.9554,-2.9185,-2.893,0.0,-2.8344,-2.8291,-2.8291,-2.8291,-2.8291,-2.8291,-2.8291,-2.8291,-2.8291,-2.8291,-2.8291,-2.8447,0.0,-2.9307,-2.9736,-3.0156,0.0,0.0,0.0,0.0,-3.0889,-3.0889,-3.0889,-3.0889,-3.0889,-3.0889,-3.0469,-2.9636,-2.9626,-2.9141,-2.8291,-2.8291,-2.8291,-2.8291,-2.8291,-2.8291,-2.8291,0.0,0.0,-2.8291,-2.8291,-2.8184,-2.8014,-2.8237,-2.8067,-2.7618,-2.7015,-2.6527,-2.6073,-2.5287,-2.4236,-2.3415,-2.419,-2.3607,-2.2538,-2.2132,-2.1217,-2.0332,-2.0332,-2.017,-2.0015,-2.0015,-2.0113,-2.015,-2.015,-2.0194,-2.0183,-2.0183,-2.0183,-2.0183,-2.0183,-2.0183,-2.0183,-2.0183,-2.0183,-2.0183,-2.0183,-2.0183,-2.0183,-2.0183,-2.0223,-2.0295,-2.0295,-2.0801,-2.1183,-2.1183,-2.1988,-2.2484,-2.2484,-2.2484,-2.2584,-2.2793,-2.3642,-2.4196,-2.4344,-2.5274,-2.5693,-2.5693,-2.5693,-2.5693,-2.5693,-2.5693,-2.5693,-2.8431,-2.8794,-2.9135,-2.9829,-2.9889,-2.9722,-2.9448,-2.9142,0.0,-2.8315,-2.8065,-2.7969,-2.7969,-2.7969,-2.8037,-2.8262,-2.8291,-2.8291,-2.8291,-2.8291,-2.8369,-2.8574,-2.8975,-2.9404,0.0,0.0,0.0,0.0,0.0,-3.0889,-3.0889,-3.0889,-3.0889,-3.0889,-3.0889,-3.0469,-2.9636,-2.9626,-2.9141,-2.8291,-2.8291,-2.8291,-2.8291,-2.8291,-2.8291,-2.8291,-2.8291,0.0,-2.8291,-2.8291,-2.7906,-2.7413,-2.8067,-2.7178,-2.5634,-2.6245,-2.5305,-2.376,-2.3799,-2.303,-2.2119,-2.2456,-2.2109,-2.1503,-2.1289,-2.0746,-2.0183,-2.0183,-2.0183,-2.0183,-2.0183,-2.0307,-2.0431,-2.0431,-2.0618,-2.0742,-2.0742,-2.0742,-2.0742,-2.0742,-2.0742,-2.0742,-2.0742,-2.0742,-2.0742,-2.0742,-2.0742,-2.0742,-2.0742,-2.0464,-2.0201,-2.0025,-2.0339,-2.0552,-2.0552,-2.0856,-2.1111,-2.1111,-2.0937,-2.1089,-2.1633,-2.2139,-2.2685,-2.3235,-2.4304,-2.4864,-2.4864,-2.543,-2.5693,-2.5693,-2.5693,-2.5693,-2.8338,-2.8731,-2.9145,-2.9704,-2.9849,-2.9818,-2.9638,-2.9325,-2.89,-2.8227,-2.7838,-2.7653,-2.7699,-2.7718,-2.7855,0.0,-2.8291,-2.8291,-2.8291,-2.8291,-2.8291,0.0,-2.8662,0.0,-2.9531,0.0,0.0,0.0,0.0,0.0,-3.0889,-3.0889,-3.0889,-3.0889,-3.0791,-3.0371,-2.9636,-2.9473,-2.9043,-2.8291,-2.8291,-2.8291,-2.8291,-2.8291,-2.8291,-2.8291,-2.8291,0.0,0.0,-2.8291,-2.7736,-2.6971,-2.7906,-2.6463,-2.3919,-2.5525,-2.4197,-2.1653,-2.2369,-2.1979,-2.1211,-2.1211,-2.1035,-2.083,-2.083,-2.0591,-2.0387,-2.0387,-2.0387,-2.0387,-2.0387,-2.0633,-2.083,-2.083,-2.102,-2.1211,-2.1211,-2.1211,-2.1211,-2.1211,-2.1211,-2.1211,-2.1211,-2.1211,-2.1211,-2.1211,-2.1211,-2.1211,-2.1211,-2.0984,-2.0728,-2.0416,-2.0263,-2.0183,-2.0183,-2.0011,-1.9864,-1.9864,-1.9557,-1.9784,-2.0643,-2.0822,-2.1285,-2.2139,-2.3434,-2.4088,-2.4088,-2.5177,-2.5693,-2.5693,-2.5693,-2.5693,-2.7862,-2.8017,-2.8266,-2.9145,-2.9363,-2.9425,-2.9567,-2.9258,-2.8745,-2.8219,-2.7736,-2.7485,-2.7692,-2.7718,-2.7855,0.0,0.0,-2.8291,-2.8291,-2.8291,-2.8291,-2.8291,0.0,0.0,-2.9531,0.0,0.0,0.0,0.0,0.0,0.0,-3.0889,-3.0889,-3.0889,-3.0478,-3.0039,-2.957,-2.918,-2.875,-2.8291,-2.8291,-2.8291,-2.8291,-2.8291,-2.8291,-2.8291,0.0,0.0,0.0,-2.8291,-2.8237,-2.813,-2.8237,-2.7403,-2.6082,-2.5177,-2.4014,-2.27,-2.171,-2.1261,-2.1211,-2.1211,-2.1189,-2.1167,-2.1167,-2.1145,-2.1123,-2.1123,-2.1123,-2.1123,-2.1123,-2.1137,-2.1167,-2.1167,-2.1189,-2.1211,-2.1211,-2.1211,-2.1211,-2.1211,-2.1211,-2.1211,-2.1211,-2.1211,-2.1211,-2.1211,-2.1211,-2.1211,-2.1211,-2.1181,-2.1152,-2.1123,-2.0533,-2.0183,-2.0183,-2.0154,-2.0139,-2.0139,-1.9894,-1.9824,-1.9878,-2.055,-2.0936,-2.1038,-2.3035,-2.4088,-2.4088,-2.5177,-2.5693,-2.5693,-2.5693,-2.5693,-2.78,-2.7924,-2.8079,-2.8721,-2.8887,-2.8888,-2.8962,-2.8727,-2.8279,-2.7693,-2.7232,-2.6962,-2.6906,-2.7109,-2.7412,-2.7851,0.0,0.0,-2.8291,-2.8291,-2.8291,-2.8291,-2.8437,0.0,0.0,0.0,0.0,0.0,0.0,0.0,0.0,-3.0889,-3.0889,-3.0889,-3.0439,-3.0,-2.957,-2.9141,-2.8711,-2.8291,-2.8291,-2.8291,-2.8291,-2.8291,-2.8291,-2.8291,0.0,0.0,0.0,-2.8291,-2.8291,-2.8291,-2.8291,-2.7124,-2.5342,-2.4893,-2.3519,-2.1873,-2.1375,-2.1211,-2.1211,-2.1211,-2.1211,-2.1211,-2.1211,-2.1211,-2.1211,-2.1211,-2.1211,-2.1211,-2.1211,-2.1211,-2.1211,-2.1211,-2.1211,-2.1211,-2.1211,-2.1211,-2.1211,-2.1211,-2.1211,-2.1211,-2.1211,-2.1211,-2.1211,-2.1211,-2.1211,-2.1211,-2.1211,-2.1211,-2.1211,-2.1211,-2.0976,-2.0823,-2.0823,-2.064,-2.0475,-2.0475,-2.023,-2.0047,-2.0047,-2.0337,-2.0385,-2.0234,-2.1713,-2.2664,-2.3135,-2.4196,-2.5069,-2.5693,-2.5693,-2.5693,-2.7645,-2.7728,-2.7831,-2.8297,-2.8411,-2.8442,-2.8587,-2.8365,-2.7941,-2.7329,-2.6902,-2.6596,-2.6407,-2.6728,-2.7158,-2.7598,0.0,-2.8291,-2.8291,-2.8291,-2.8291,0.0,0.0,0.0,0.0,0.0,0.0,0.0,0.0,0.0,0.0,-3.0889,-3.0889,-3.0889,-3.0322,-2.9873,-2.957,-2.9014,-2.8584,-2.8291,-2.8291,-2.8291,-2.8291,-2.8291,-2.8291,-2.8291,0.0,0.0,0.0,-2.8291,-2.8291,-2.8237,-2.7906,-2.6509,-2.4671,-2.4339,-2.2918,-2.1211,-2.1211,-2.1211,-2.1211,-2.1211,-2.1211,-2.1211,-2.1211,-2.1211,-2.1211,-2.1211,-2.1211,-2.1211,-2.1211,-2.1211,-2.1211,-2.1211,-2.1211,-2.1211,-2.1211,-2.1211,-2.1211,-2.1211,-2.1211,-2.1211,-2.1211,-2.1211,-2.1211,-2.1211,-2.1211,-2.1211,-2.1211,-2.1089,-2.1024,-2.1024,-2.0974,-2.1031,-2.1153,-2.0998,-2.0867,-2.0867,-2.0504,-2.0321,-2.0321,-2.0234,-2.0128,-1.9908,-2.0993,-2.1748,-2.216,-2.3326,-2.4455,-2.5441,-2.554,-2.5748,-2.732,-2.732,-2.7423,-2.7821,-2.7935,-2.8048,-2.8504,-2.8266,-2.7788,-2.7318,-2.6818,-2.6502,-2.6408,-2.6728,-2.7158,-2.7598,-2.8018,0.0,-2.8291,-2.8291,-2.8291,0.0,0.0,0.0,0.0,0.0,0.0,0.0,0.0,0.0,0.0,-3.0889,-3.0889,-3.0889,-3.0039,-2.957,-2.9626,-2.8721,-2.8301,-2.8291,-2.8291,-2.8291,-2.8291,-2.8291,-2.8291,0.0,0.0,0.0,0.0,-2.8291,-2.8291,-2.8184,-2.6971,-2.579,-2.4561,-2.3416,-2.2263,-2.1211,-2.1211,-2.1211,-2.1211,-2.1211,-2.1211,-2.1211,-2.1211,-2.1211,-2.1211,-2.1211,-2.1211,-2.1211,-2.1211,-2.1211,-2.1211,-2.1211,-2.1211,-2.1211,-2.1211,-2.1211,-2.1211,-2.1211,-2.1211,-2.1211,-2.1211,-2.1211,-2.1211,-2.1211,-2.1211,-2.1211,-2.1211,-2.0902,-2.0716,-2.0716,-2.05,-2.0565,-2.1153,-2.1203,-2.1203,-2.1203,-2.0896,-2.072,-2.072,-2.0406,-2.0183,-2.0176,-2.1233,-2.1657,-2.1433,-2.2818,-2.3974,-2.4803,-2.5063,-2.5867,-2.7309,-2.7309,-2.734,-2.7486,-2.7469,-2.751,-2.7703,-2.7438,-2.7105,-2.6804,-2.6452,-2.615,-2.5967,-2.6299,-2.6728,-2.7148,-2.7588,0.0,0.0,0.0,0.0,-2.8291,-2.8545,0.0,0.0,0.0,0.0,0.0,0.0,0.0,0.0,-3.0596,-3.042,-3.042,-2.9863,-2.9434,-2.9121,-2.8574,-2.8291,-2.8291,-2.8291,-2.8291,-2.8291,-2.8291,0.0,0.0,0.0,0.0,0.0,-2.8291,-2.8291,-2.8184,-2.6961,-2.5735,-2.4561,-2.3416,-2.2263,-2.1211,-2.1211,-2.1211,-2.1211,-2.1211,-2.1211,-2.1211,-2.1211,-2.1211,-2.1211,-2.1211,-2.1211,-2.1211,-2.1211,-2.1211,-2.1211,-2.1211,-2.1211,-2.1211,-2.1211,-2.1211,-2.1211,-2.1211,-2.1211,-2.1146,-2.0902,-2.0845,-2.0788,-2.0622,-2.0565,-2.0565,-2.0565,-2.05,-2.0443,-2.0443,-2.0328,-2.0385,-2.0565,-2.0565,-2.0565,-2.0565,-2.0473,-2.0416,-2.0416,-2.0316,-2.0167,-1.9947,-2.0267,-2.0641,-2.107,-2.1495,-2.2659,-2.4455,-2.4569,-2.5213,-2.7309,-2.7309,-2.7309,-2.7309,-2.7309,-2.7309,-2.7309,-2.7081,-2.6805,-2.6544,-2.6304,-2.6004,-2.5732,-2.6221,-2.6709,-2.6973,-2.751,-2.7998,0.0,0.0,0.0,-2.8291,0.0,0.0,0.0,0.0,0.0,0.0,0.0,0.0,0.0,0.0,-3.0049,-2.9726,-2.9463,-2.9189,-2.8916,-2.8506,-2.8291,-2.8291,-2.8291,-2.8291,-2.8291,-2.8291,0.0,0.0,0.0,0.0,0.0,-2.8291,-2.8291,-2.8121,-2.6463,-2.5342,-2.4505,-2.2918,-2.1873,-2.1211,-2.1211,-2.1211,-2.1211,-2.1211,-2.1211,-2.1211,-2.1211,-2.1211,-2.1211,-2.1211,-2.1211,-2.1211,-2.1211,-2.1211,-2.1211,-2.1211,-2.1211,-2.1211,-2.1211,-2.1089,-2.1024,-2.1024,-2.0917,-2.0795,-2.0608,-2.0551,-2.0493,-2.0328,-2.027,-2.027,-2.027,-2.0213,-2.0104,-2.0104,-2.0046,-1.9931,-1.9931,-2.0162,-2.027,-2.027,-2.027,-2.027,-2.027,-2.027,-2.0179,-1.9983,-1.9983,-2.0167,-2.0511,-2.094,-2.1979,-2.3503,-2.4364,-2.528,0.0,-2.7309,-2.7309,-2.7309,-2.7309,-2.7309,-2.7262,-2.7081,0.0,-2.6554,-2.6245,-2.6004,-2.5732,-2.6416,-2.6982,-2.7012,-2.7705,-2.8262,0.0,-2.8291,0.0,0.0,0.0,0.0,0.0,0.0,0.0,0.0,0.0,0.0,0.0,0.0,-2.9746,-2.8945,-2.8887,-2.8877,-2.8877,-2.8486,-2.8291,-2.8291,-2.8291,-2.8291,-2.8291,-2.8291,0.0,0.0,0.0,0.0,0.0,-2.8291,-2.8291,-2.8067,-2.5726,-2.4782,-2.445,-2.215,-2.1261,-2.1211,-2.1211,-2.1211,-2.1211,-2.1211,-2.1211,-2.1211,-2.1211,-2.1211,-2.1211,-2.1211,-2.1211,-2.1211,-2.1211,-2.1211,-2.1211,-2.1211,-2.1211,-2.1211,-2.1211,-2.096,-2.0716,-2.0716,-2.0493,-2.027,-2.027,-2.027,-2.027,-2.022,-2.022,-2.022,-2.022,-1.9989,-1.9758,-1.9758,-1.954,-1.9424,-1.9424,-1.9931,-2.022,-2.022,-2.022,-2.022,-2.022,-2.022,-2.022,-2.022,-2.022,-2.0104,-1.9758,-2.0923,-2.1658,-2.2135,-2.4292,-2.5562,-2.7309,0.0,-2.7309,-2.7309,-2.7309,-2.7262,0.0,-2.6794,-2.6496,-2.6245,-2.5965,-2.5781,-2.5684,-2.6172,-2.6641,-2.6963,-2.7461,-2.793,-2.8252,0.0,0.0,0.0,0.0,0.0,0.0,0.0,0.0,0.0,0.0,0.0,0.0,0.0,-2.9131,-2.8926,-2.8603,-2.8437,-2.8437,-2.834,-2.8291,-2.8291,-2.8291,-2.8291,-2.8291,-2.8291,0.0,0.0,0.0,0.0,-2.8291,-2.8291,-2.8291,-2.8121,-2.6681,-2.5507,-2.4505,-2.3087,-2.1979,-2.1211,-2.1211,-2.1211,-2.1211,-2.1211,-2.1211,-2.1211,-2.1211,-2.1211,-2.1211,-2.1211,-2.1211,-2.1211,-2.1211,-2.1211,-2.1211,-2.1211,-2.1211,-2.1211,-2.1211,-2.096,-2.0716,-2.0716,-2.0493,-2.0213,-1.9989,-1.9931,-1.9873,-1.9649,-1.9597,-1.9597,-1.9597,-1.9533,-1.9475,-1.9475,-1.9424,-1.9424,-1.9424,-1.954,-1.9597,-1.9597,-1.9597,-1.9597,-1.9597,-1.9597,-1.9597,-1.9597,-1.9597,-1.9591,-1.9475,-1.9758,-2.0551,-2.1737,-2.2289,-2.3183,-2.7309,-2.7309,-2.7309,-2.7309,-2.7309,-2.7214,-2.6948,-2.6699,-2.64,-2.6149,-2.5868,-2.5752,-2.5996,-2.6387,-2.6816,-2.7246,-2.7676,0.0,0.0,0.0,0.0,0.0,0.0,0.0,0.0,0.0,0.0,0.0,0.0,0.0,0.0,0.0,-2.8828,-2.8643,-2.8408,-2.8291,-2.8291,-2.8291,-2.8291,-2.8291,-2.8291,-2.8291,-2.8291,-2.8291,0.0,0.0,0.0,0.0,-2.8291,-2.8291,-2.8291,-2.8184,-2.6961,-2.5735,-2.4561,-2.3416,-2.2263,-2.1211,-2.1211,-2.1211,-2.1211,-2.1211,-2.1211,-2.1211,-2.1211,-2.1211,-2.1211,-2.1211,-2.1211,-2.1211,-2.1211,-2.1211,-2.1211,-2.1211,-2.1211,-2.1153,-2.1024,-2.073,-2.0493,-2.0321,-2.004,-1.9822,-1.9649,-1.9649,-1.9591,-1.9424,-1.9424,-1.9424,-1.9424,-1.9424,-1.9424,-1.9424,-1.9424,-1.9424,-1.9424,-1.9424,-1.9424,-1.9424,-1.9424,-1.9424,-1.9424,-1.9424,-1.9424,-1.9424,-1.9424,-1.9424,-1.9424,-1.9424,-1.9873,-2.0773,-2.1338,-2.2184,-2.7309,-2.7309,-2.7309,-2.7309,-2.7262,-2.7177,-2.69,-2.6651,-2.6352,-2.61,-2.5868,-2.582,-2.6309,-2.6728,0.0,0.0,0.0,0.0,-2.8291,-2.8291,0.0,0.0,0.0,0.0,0.0,0.0,0.0,0.0,0.0,0.0,0.0,0.0,0.0,-2.8301,-2.8291,-2.8291,-2.8291,-2.8291,-2.8291,-2.8291,-2.8291,-2.8291,-2.8291,-2.8291,0.0,0.0,0.0,0.0,-2.8291,-2.8291,-2.8291,-2.8184,-2.7187,-2.6018,-2.4837,-2.3687,-2.2474,-2.1432,-2.1268,-2.1211,-2.1211,-2.1211,-2.1211,-2.1211,-2.1211,-2.1211,-2.1211,-2.1211,-2.1211,-2.1211,-2.1211,-2.1211,-2.1211,-2.1211,-2.1153,-2.1024,-2.078,-2.0436,-2.0155,-1.9873,-1.9591,-1.9424,-1.9424,-1.9424,-1.9424,-1.9424,-1.9424,-1.9424,-1.9482,-1.9424,-1.9424,-1.9424,-1.9424,-1.9424,-1.9424,-1.9424,-1.9424,-1.9424,-1.9424,-1.9424,-1.9424,-1.9424,-1.9424,-1.9424,-1.9424,-1.9424,-1.9424,-1.9424,-1.9533,-1.9931,-2.0945,-2.1729,-2.7309,-2.7309,-2.7309,-2.7309,-2.7129,-2.689,-2.6602,-2.6342,-2.61,-2.583,-2.5732,-2.582,-2.6309,-2.6728,-2.7158,0.0,0.0,-2.8291,0.0,0.0,0.0,0.0,0.0,0.0,0.0,0.0,0.0,0.0,0.0,0.0,0.0,0.0,0.0,-2.8291,-2.8291,-2.8291,-2.8291,-2.8291,-2.8291,-2.8291,-2.8291,-2.8291,-2.8291,-2.8291,-2.8291,0.0,0.0,-2.8291,-2.8291,-2.8291,-2.8291,-2.8291,-2.8121,-2.7295,-2.6073,-2.4901,-2.3687,-2.2595,-2.1539,-2.1211,-2.1211,-2.1211,-2.1211,-2.1211,-2.1211,-2.1211,-2.1211,-2.1211,-2.1211,-2.1211,-2.1211,-2.1211,-2.1211,-2.1211,-2.0967,-2.078,-2.0716,-2.0263,-1.9873,-1.9815,-1.9591,-1.9424,-1.9424,-1.9424,-1.9482,-1.97,-1.954,-1.9482,-1.9707,-1.9533,-1.9424,-1.9424,-1.9424,-1.9424,-1.9424,-1.9424,-1.9424,-1.9424,-1.9424,-1.9424,-1.9424,-1.9424,-1.9424,-1.9424,-1.9424,-1.9424,-1.9424,-1.9424,-1.9707,-2.0213,-2.0385,-2.0845,-2.7309,-2.7309,-2.7262,-2.7129,-2.6986,-2.6794,-2.64,-2.6197,-2.6004,-2.5781,-2.5879,-2.6221,-2.665,0.0,-2.751,-2.793,0.0,0.0,0.0,0.0,0.0,0.0,0.0,0.0,0.0,0.0,0.0,0.0,0.0,0.0,0.0,0.0,0.0,0.0,-2.8291,-2.8291,-2.8291,-2.8291,-2.8291,-2.8291,-2.8291,-2.8291,-2.8291,-2.8291,-2.8291,-2.8291,0.0,-2.8291,-2.8291,-2.8291,-2.8291,-2.8291,-2.8291,-2.7574,-2.63,-2.4467,-2.303,-2.193,-2.1375,-2.1211,-2.1211,-2.1211,-2.1211,-2.1211,-2.1211,-2.1211,-2.1211,-2.1211,-2.1211,-2.1211,-2.1211,-2.1211,-2.1211,-2.1211,-2.1089,-2.091,-2.0551,-2.027,-1.9982,-1.9649,-1.9482,-1.9424,-1.9424,-1.9424,-1.9424,-1.9591,-1.9482,-1.9424,-1.9591,-1.9482,-1.9424,-1.9424,-1.9424,-1.9424,-1.9424,-1.9424,-1.9424,-1.9424,-1.9424,-1.9424,-1.9424,-1.9424,-1.9424,-1.9424,-1.9424,-1.9424,-1.9424,-1.9424,-1.9591,-2.0046,-2.0213,-2.05,-2.7309,-2.7262,-2.7119,-2.689,-2.6805,-2.6699,-2.6197,-2.6052,-2.5995,-2.5869,-2.6162,-2.6553,-2.707,-2.7519,0.0,-2.8242,-2.8291,0.0,0.0,0.0,0.0,0.0,0.0,0.0,0.0,0.0,0.0,0.0,0.0,0.0,0.0,0.0,0.0,0.0,-2.8291,-2.8291,-2.8291,-2.8291,-2.8291,-2.8291,-2.8291,-2.8291,-2.8291,-2.8291,-2.8291,-2.8291,-2.8291,-2.8291,-2.8291,-2.8291,-2.8291,-2.8291,-2.8291,-2.7574,-2.6245,-2.4133,-2.2644,-2.1596,-2.1318,-2.1211,-2.1211,-2.1211,-2.1211,-2.1211,-2.1211,-2.1211,-2.1211,-2.1211,-2.1211,-2.1211,-2.1211,-2.1211,-2.1211,-2.1089,-2.1031,-2.0859,-2.0277,-2.0162,-1.9931,-1.9482,-1.9424,-1.9424,-1.9424,-1.9424,-1.9424,-1.9482,-1.9424,-1.9424,-1.9482,-1.9424,-1.9424,-1.9424,-1.9424,-1.9424,-1.9424,-1.9424,-1.9424,-1.9424,-1.9424,-1.9424,-1.9424,-1.9424,-1.9424,-1.9424,-1.9424,-1.9424,-1.9424,-1.9424,-1.9533,-1.9815,-2.004,-2.0385,-2.7309,-2.7129,-2.6842,-2.6602,-2.6554,-2.6448,-2.6149,-2.5917,-2.585,-2.626,-2.6367,-2.6641,-2.7523,-2.7959,-2.8262,-2.8291,0.0,0.0,0.0,0.0,0.0,0.0,0.0,0.0,0.0,0.0,0.0,0.0,0.0,0.0,0.0,0.0,0.0,0.0,0.0,-2.8291,-2.8291,-2.8291,-2.8291,-2.8291,-2.8291,-2.8291,-2.8291,-2.8291,-2.8291,-2.8291,-2.8291,-2.8291,-2.8291,-2.8291,-2.8291,-2.8291,-2.8291,-2.7574,-2.6354,-2.5067,-2.3855,-2.27,-2.1596,-2.1211,-2.1211,-2.1211,-2.1211,-2.1211,-2.1211,-2.1211,-2.1211,-2.1211,-2.1211,-2.1211,-2.1211,-2.1211,-2.1146,-2.078,-2.0558,-2.0277,-1.9931,-1.9649,-1.9424,-1.9424,-1.9424,-1.9424,-1.9424,-1.9424,-1.9482,-1.9758,-1.9533,-1.9482,-1.9758,-1.9533,-1.9424,-1.9424,-1.9424,-1.9424,-1.9424,-1.9424,-1.9424,-1.9424,-1.9424,-1.9424,-1.9424,-1.9424,-1.9424,-1.9424,-1.9424,-1.9424,-1.9424,-1.9424,-1.9533,-1.9815,-1.9815,-2.0155,-2.7309,-2.7081,-2.6853,-2.6554,-2.6342,-2.6197,-2.5917,-2.5781,-2.581,-2.6299,-2.6592,-2.7041,0.0,0.0,-2.8291,-2.8291,0.0,0.0,0.0,0.0,0.0,0.0,0.0,0.0,0.0,0.0,0.0,0.0,0.0,0.0,0.0,0.0,0.0,0.0,0.0,-2.8291,-2.8291,-2.8291,-2.8291,-2.8291,-2.8291,-2.8291,-2.8291,-2.8291,-2.8291,-2.8291,-2.8291,-2.8291,-2.8291,-2.8291,-2.8291,-2.8291,-2.8291,-2.7574,-2.6463,-2.5963,-2.4633,-2.2918,-2.2482,-2.1816,-2.1211,-2.1211,-2.1211,-2.1211,-2.1211,-2.1211,-2.1211,-2.1211,-2.1211,-2.1211,-2.1211,-2.1024,-2.0845,-2.0716,-2.0493,-2.022,-1.9873,-1.97,-1.9591,-1.9424,-1.9424,-1.9424,-1.9424,-1.9424,-1.9424,-1.9533,-1.9482,-1.9424,-1.9533,-1.9482,-1.9424,-1.9424,-1.9424,-1.9424,-1.9424,-1.9424,-1.9424,-1.9424,-1.9424,-1.9424,-1.9424,-1.9424,-1.9424,-1.9424,-1.9424,-1.9424,-1.9424,-1.9424,-1.9424,-1.9533,-1.97,-2.004,-2.7225,-2.6986,-2.6699,-2.6448,-2.6149,-2.5917,-2.5732,-2.5791,-2.6064,-2.6504,-2.7031,-2.7598,-2.8184,0.0,0.0,0.0,0.0,0.0,0.0,0.0,0.0,0.0,0.0,0.0,0.0,0.0,0.0,0.0,0.0,0.0,0.0,0.0,0.0,0.0,0.0,-2.8291,-2.8291,-2.8291,-2.8291,-2.8291,-2.8291,-2.8291,-2.8291,-2.8291,-2.8291,-2.8291,-2.8291,-2.8291,-2.8291,-2.8291,-2.8291,-2.8291,-2.8291,-2.7799,-2.7025,-2.6636,-2.547,-2.3975,-2.3255,-2.2482,-2.171,-2.1318,-2.1211,-2.1211,-2.1211,-2.1211,-2.1211,-2.1211,-2.1146,-2.1024,-2.1024,-2.0845,-2.0658,-2.0436,-2.027,-2.0046,-1.9758,-1.9642,-1.9649,-1.9424,-1.9424,-1.9424,-1.9424,-1.9424,-1.9424,-1.9424,-1.9424,-1.9424,-1.9424,-1.9424,-1.9424,-1.9424,-1.9424,-1.9424,-1.9424,-1.9424,-1.9424,-1.9424,-1.9424,-1.9424,-1.9424,-1.9424,-1.9424,-1.9424,-1.9424,-1.9424,-1.9424,-1.9424,-1.9424,-1.9424,-1.9591,-1.9815,-2.6948,-2.6699,-2.6448,-2.6149,-2.5917,-2.5693,-2.5693,-2.6074,-2.6514,-2.6934,-2.7705,-2.8291,-2.8291,-2.8291,0.0,0.0,0.0,0.0,0.0,0.0,0.0,0.0,0.0,0.0,0.0,0.0,0.0,0.0,0.0,0.0,0.0,0.0,0.0,0.0,0.0,0.0,-2.8291,-2.8291,-2.8291,-2.8291,-2.8291,-2.8291,-2.8291,-2.8291,-2.8291,-2.8291,-2.8291,-2.8291,-2.8291,-2.8291,-2.8291,-2.8291,-2.8291,-2.8291,-2.8184,-2.6971,-2.6527,-2.6191,-2.3863,-2.303,-2.2813,-2.1596,-2.1211,-2.1211,-2.1211,-2.1211,-2.1211,-2.1211,-2.0967,-2.0716,-2.0716,-2.0716,-2.0551,-1.9924,-1.9815,-1.97,-1.9482,-1.9424,-1.9424,-1.9424,-1.9424,-1.9424,-1.9424,-1.9424,-1.9424,-1.9424,-1.9424,-1.9424,-1.9424,-1.9424,-1.9424,-1.9424,-1.9424,-1.9424,-1.9424,-1.9424,-1.9424,-1.9424,-1.9424,-1.9424,-1.9424,-1.9424,-1.9424,-1.9424,-1.9424,-1.9424,-1.9424,-1.9424,-1.9424,-1.9424,-1.9424,-1.954,-2.6948,-2.6699,-2.6448,-2.6149,-2.5917,-2.5693,-2.5693,-2.6074,-2.6602,-2.7324,-2.791,-2.8291,-2.8291,0.0,0.0,0.0,0.0,0.0,0.0,0.0,0.0,0.0,0.0,0.0,0.0,0.0,0.0,0.0,0.0,0.0,0.0,0.0,0.0,0.0,0.0,0.0,-2.8291,-2.8291,-2.8291,-2.8291,-2.8291,-2.8291,-2.8291,-2.8291,-2.8291,-2.8291,-2.8291,-2.8291,-2.8291,-2.8291,-2.8291,-2.8291,-2.8291,-2.8291,-2.8237,-2.7906,-2.7241,-2.6418,-2.5698,-2.4364,-2.2926,-2.2595,-2.1873,-2.1211,-2.1211,-2.1211,-2.1211,-2.1211,-2.1146,-2.0967,-2.0558,-2.0443,-2.0328,-1.9931,-1.9649,-1.9482,-1.9424,-1.9424,-1.9424,-1.9424,-1.9424,-1.9424,-1.9424,-1.9424,-1.9424,-1.9424,-1.9424,-1.9424,-1.9424,-1.9424,-1.9424,-1.9424,-1.9424,-1.9424,-1.9424,-1.9424,-1.9424,-1.9424,-1.9424,-1.9424,-1.9424,-1.9424,-1.9424,-1.9424,-1.9424,-1.9424,-1.9424,-1.9424,-1.9424,-1.9424,-1.9424,-1.9649,-2.6842,-2.6602,-2.64,-2.6014,-2.583,-2.5771,-2.6122,-2.6455,-2.6885,-2.7734,-2.8115,-2.8291,-2.8291,-2.8291,0.0,0.0,0.0,0.0,0.0,0.0,0.0,0.0,0.0,0.0,0.0,0.0,0.0,0.0,0.0,0.0,0.0,0.0,0.0,0.0,0.0,0.0,-2.8291,-2.8291,-2.8291,-2.8291,-2.8291,-2.8291,-2.8291,-2.8291,-2.8291,-2.8291,-2.8291,-2.8291,-2.8291,-2.8291,-2.8291,-2.8291,-2.8291,-2.8291,-2.8291,-2.8291,-2.7853,-2.7133,-2.669,-2.558,-2.4253,-2.3311,-2.2482,-2.1816,-2.1375,-2.1089,-2.1024,-2.1024,-2.0859,-2.0572,-2.022,-2.0046,-1.9873,-1.9707,-1.954,-1.9424,-1.9424,-1.9424,-1.9424,-1.9424,-1.9424,-1.9424,-1.9424,-1.9424,-1.9424,-1.9424,-1.9424,-1.9424,-1.9424,-1.9424,-1.9424,-1.9424,-1.9424,-1.9424,-1.9424,-1.9424,-1.9424,-1.9424,-1.9424,-1.9424,-1.9424,-1.9424,-1.9424,-1.9424,-1.9424,-1.9424,-1.9424,-1.9424,-1.9424,-1.9424,-1.9424,-1.9591,-2.664,-2.6496,-2.6352,-2.583,-2.5693,-2.5918,-2.6816,-2.7012,-2.7256,-2.8115,0.0,-2.8291,-2.8291,0.0,0.0,0.0,0.0,0.0,0.0,0.0,0.0,0.0,0.0,0.0,0.0,0.0,0.0,0.0,0.0,0.0,0.0,0.0,0.0,0.0,0.0,0.0,-2.8291,-2.8291,-2.8291,0.0,-2.8291,-2.8291,-2.8291,-2.8291,-2.8291,-2.8291,-2.8291,-2.8291,-2.8291,-2.8291,-2.8291,-2.8291,-2.8291,-2.8291,-2.8291,-2.8291,-2.8291,-2.813,-2.7025,-2.6581,-2.6136,-2.403,-2.3255,-2.2918,-2.171,-2.1131,-2.0831,-2.0716,-2.0263,-1.9873,-1.9873,-1.9649,-1.9424,-1.9424,-1.9424,-1.9424,-1.9424,-1.9424,-1.9424,-1.9424,-1.9424,-1.9424,-1.9424,-1.9424,-1.9424,-1.9424,-1.9424,-1.9424,-1.9424,-1.9424,-1.9424,-1.9424,-1.9424,-1.9424,-1.9424,-1.9424,-1.9424,-1.9424,-1.9424,-1.9424,-1.9424,-1.9424,-1.9424,-1.9424,-1.9424,-1.9424,-1.9424,-1.9424,-1.9424,-1.9424,-1.9424,-1.9424,-2.664,-2.6496,-2.6352,-2.583,-2.5693,-2.5918,-2.6816,-2.7012,-2.7256,-2.8115,-2.8291,-2.8291,0.0,0.0,0.0,0.0,0.0,0.0,0.0,0.0,0.0,0.0,0.0,0.0,0.0,0.0,0.0,0.0,0.0,0.0,0.0,0.0,0.0,0.0,0.0,-2.8291,-2.8291,-2.8291,-2.8291,0.0,-2.8291,-2.8291,-2.8291,-2.8291,-2.8291,-2.8291,-2.8291,-2.8291,-2.8291,-2.8291,-2.8291,-2.8291,-2.8291,-2.8291,-2.8291,-2.8291,-2.8291,-2.8237,-2.8014,-2.7295,-2.6418,-2.5917,-2.5131,-2.4125,-2.2974,-2.2361,-2.19,-2.0945,-2.0436,-2.0213,-2.0213,-1.9931,-1.97,-1.97,-1.9533,-1.9424,-1.9424,-1.9424,-1.9424,-1.9424,-1.9424,-1.9424,-1.9424,-1.9424,-1.9424,-1.9424,-1.9424,-1.9424,-1.9424,-1.9424,-1.9424,-1.9424,-1.9424,-1.9424,-1.9424,-1.9424,-1.9424,-1.9424,-1.9424,-1.9424,-1.9424,-1.9424,-1.9424,-1.9424,-1.9424,-1.9424,-1.9424,-1.9424,-1.9424,-1.9424,-1.9424,-1.9649,-2.664,-2.6496,-2.6352,-2.583,-2.5693,-2.5918,-2.6816,-2.7012,-2.7256,-2.8115,-2.8291,-2.8291,0.0,0.0,0.0,0.0,0.0,0.0,0.0,0.0,0.0,0.0,0.0,0.0,0.0,0.0,0.0,0.0,0.0,0.0,0.0,0.0,0.0,0.0,-2.8291,-2.8291,-2.8291,-2.8291,-2.8291,-2.8291,-2.8291,-2.8291,-2.8291,-2.8291,-2.8291,-2.8291,-2.8291,-2.8291,-2.8291,-2.8291,-2.8291,-2.8291,-2.8291,-2.8291,-2.8291,-2.8291,-2.8291,-2.8291,-2.8291,-2.7906,-2.7241,-2.669,-2.6073,-2.5296,-2.403,-2.303,-2.2127,-2.1338,-2.0493,-1.988,-1.988,-1.9764,-1.9591,-1.9591,-1.9482,-1.9424,-1.9424,-1.9424,-1.9424,-1.9424,-1.9424,-1.9424,-1.9424,-1.9424,-1.9424,-1.9424,-1.9424,-1.9424,-1.9424,-1.9424,-1.9424,-1.9424,-1.9424,-1.9424,-1.9424,-1.9424,-1.9424,-1.9424,-1.9424,-1.9424,-1.9424,-1.9424,-1.9424,-1.9424,-1.9424,-1.9424,-1.9424,-1.9424,-1.9424,-1.9424,-1.9424,-1.9649,-2.6688,-2.6496,-2.6304,-2.583,-2.5693,-2.5888,-2.6728,-2.6963,-2.7236,-2.8018,-2.8242,0.0,0.0,0.0,0.0,0.0,0.0,0.0,0.0,0.0,0.0,0.0,0.0,0.0,0.0,0.0,0.0,0.0,0.0,0.0,0.0,0.0,-2.8291,-2.8291,-2.8291,-2.8291,-2.8291,-2.8291,-2.8291,-2.8291,-2.8291,-2.8291,-2.8291,-2.8291,-2.8291,-2.8291,-2.8291,-2.8291,-2.8291,-2.8291,-2.8291,-2.8291,-2.8291,-2.8291,-2.8291,-2.8291,-2.8291,-2.8291,-2.8291,-2.8291,-2.813,-2.7133,-2.6799,-2.6472,-2.5038,-2.3695,-2.2523,-2.1851,-2.0723,-1.9707,-1.9597,-1.9482,-1.9424,-1.9482,-1.9424,-1.9424,-1.9424,-1.9424,-1.9424,-1.9424,-1.9424,-1.9424,-1.9424,-1.9424,-1.9424,-1.9424,-1.9424,-1.9424,-1.9424,-1.9424,-1.9424,-1.9424,-1.9424,-1.9424,-1.9424,-1.9424,-1.9424,-1.9424,-1.9424,-1.9424,-1.9424,-1.9424,-1.9424,-1.9424,-1.9424,-1.9424,-1.9424,-1.9424,-1.9424,-1.9424,-1.9424,-1.9591,-2.6948,-2.6496,-2.61,-2.5781,-2.5693,-2.582,-2.6357,0.0,-2.7158,0.0,0.0,0.0,0.0,0.0,0.0,0.0,0.0,0.0,0.0,0.0,0.0,0.0,0.0,0.0,0.0,0.0,0.0,0.0,0.0,0.0,0.0,-2.8291,-2.8291,-2.8291,-2.8291,-2.8291,-2.8291,-2.8291,-2.8291,-2.8291,-2.8291,-2.8291,-2.8291,-2.8291,-2.8291,-2.8291,-2.8291,-2.8291,-2.8291,-2.8291,-2.8291,-2.8291,-2.8291,-2.8291,-2.8291,-2.8291,-2.8291,-2.8291,-2.8291,-2.8291,-2.8291,-2.8121,-2.7906,-2.7466,-2.6245,-2.536,-2.4411,-2.258,-2.1509,-2.0838,-2.0328,-1.9764,-1.9482,-1.97,-1.9591,-1.9424,-1.9424,-1.9424,-1.9424,-1.9424,-1.9424,-1.9424,-1.9424,-1.9424,-1.9424,-1.9424,-1.9424,-1.9424,-1.9424,-1.9424,-1.9424,-1.9424,-1.9424,-1.9424,-1.9424,-1.9424,-1.9424,-1.9424,-1.9424,-1.9424,-1.9424,-1.9424,-1.9424,-1.9424,-1.9424,-1.9424,-1.9424,-1.9424,-1.9424,-1.9424,-1.9424,-1.9707,-2.6948,-2.6496,-2.6052,-2.5965,-2.583,-2.5801,-2.6289,-2.6709,-2.7139,-2.7578,0.0,0.0,0.0,0.0,0.0,0.0,0.0,0.0,0.0,0.0,0.0,0.0,0.0,0.0,0.0,0.0,0.0,0.0,0.0,0.0,-2.8291,-2.8291,-2.8291,-2.8291,-2.8291,-2.8291,-2.8291,-2.8291,-2.8291,-2.8291,-2.8291,-2.8291,-2.8291,-2.8291,-2.8291,-2.8291,-2.8291,-2.8291,-2.8291,-2.8291,-2.8291,-2.8291,-2.8291,-2.8291,-2.8291,-2.8291,-2.8291,-2.8291,-2.8291,-2.8184,-2.8067,-2.8067,-2.7853,-2.7476,-2.6808,-2.5461,-2.395,-2.291,-2.146,-2.0104,-1.9873,-1.9591,-1.9424,-1.954,-1.9482,-1.9424,-1.9424,-1.9424,-1.9424,-1.9424,-1.9424,-1.9424,-1.9424,-1.9424,-1.9424,-1.9424,-1.9424,-1.9424,-1.9424,-1.9424,-1.9424,-1.9424,-1.9424,-1.9424,-1.9424,-1.9424,-1.9424,-1.9424,-1.9424,-1.9424,-1.9424,-1.9424,-1.9424,-1.9424,-1.9424,-1.9424,-1.9424,-1.9424,-1.9424,-1.9424,-1.9424,-1.9591,-2.6948,-2.6602,-2.6294,-2.6139,-2.5965,-2.5869,0.0,0.0,-2.7109,0.0,0.0,0.0,0.0,0.0,0.0,0.0,0.0,0.0,0.0,0.0,0.0,0.0,0.0,0.0,0.0,0.0,0.0,0.0,0.0,0.0,-2.8291,-2.8291,-2.8291,-2.8291,-2.8291,-2.8291,-2.8291,-2.8291,-2.8291,-2.8291,-2.8291,-2.8291,-2.8291,-2.8291,-2.8291,-2.8291,-2.8291,-2.8291,-2.8291,-2.8291,-2.8291,-2.8291,-2.8291,-2.8291,-2.8291,-2.8291,-2.8291,-2.8291,-2.8291,-2.813,-2.7906,-2.7906,-2.7638,-2.7206,-2.6699,-2.525,-2.3623,-2.2854,-2.1288,-1.9822,-1.9533,-1.9424,-1.9424,-1.9424,-1.9424,-1.9424,-1.9424,-1.9424,-1.9424,-1.9424,-1.9424,-1.9424,-1.9424,-1.9424,-1.9424,-1.9424,-1.9424,-1.9424,-1.9424,-1.9424,-1.9424,-1.9424,-1.9424,-1.9424,-1.9424,-1.9424,-1.9424,-1.9424,-1.9424,-1.9424,-1.9424,-1.9424,-1.9424,-1.9424,-1.9424,-1.9424,-1.9424,-1.9424,-1.9424,-1.9424,-1.9424,-1.9533,-2.6948,-2.69,-2.6747,-2.6245,-2.61,-2.6014,0.0,0.0,0.0,0.0,0.0,0.0,0.0,0.0,0.0,0.0,0.0,0.0,0.0,0.0,0.0,0.0,0.0,0.0,0.0,0.0,0.0,0.0,0.0,0.0,-2.8291,-2.8291,-2.8291,-2.8291,-2.8291,-2.8291,-2.8291,-2.8291,-2.8291,-2.8291,-2.8291,-2.8291,-2.8291,-2.8291,-2.8291,-2.8291,-2.8291,-2.8291,-2.8291,-2.8291,-2.8291,-2.8291,-2.8291,-2.8291,-2.8291,-2.8291,-2.8291,-2.8291,-2.8291,-2.813,-2.7906,-2.7906,-2.753,-2.6817,-2.5634,-2.5038,-2.4326,-2.224,-2.1395,-2.0895,-1.9982,-1.9591,-1.9424,-1.9424,-1.9424,-1.9424,-1.9424,-1.9424,-1.9424,-1.9424,-1.9424,-1.9424,-1.9424,-1.9424,-1.9424,-1.9424,-1.9424,-1.9424,-1.9424,-1.9424,-1.9424,-1.9424,-1.9424,-1.9424,-1.9424,-1.9424,-1.9424,-1.9424,-1.9424,-1.9424,-1.9424,-1.9424,-1.9424,-1.9424,-1.9424,-1.9424,-1.9424,-1.9424,-1.9424,-1.9424,-1.9424,-1.9533,-2.7167,-2.7034,-2.6853,-2.6651,-2.6342,-2.6052,-2.5955,-2.628,0.0,0.0,0.0,0.0,0.0,0.0,0.0,0.0,0.0,0.0,0.0,0.0,0.0,0.0,0.0,0.0,0.0,0.0,0.0,0.0,0.0,0.0,-2.8291,-2.8291,-2.8291,-2.8291,-2.8291,-2.8291,-2.8291,-2.8291,-2.8291,-2.8291,-2.8291,-2.8291,-2.8291,-2.8291,-2.8291,-2.8291,-2.8291,-2.8291,-2.8291,-2.8291,-2.8291,-2.8291,-2.8291,-2.8291,-2.8291,-2.813,-2.8014,-2.8014,-2.7809,-2.753,-2.7314,-2.7314,-2.6545,-2.5496,-2.5046,-2.3815,-2.2305,-2.1566,-2.0723,-1.9989,-1.9649,-1.9482,-1.9424,-1.9424,-1.9424,-1.9424,-1.9424,-1.9424,-1.9424,-1.9424,-1.9424,-1.9424,-1.9424,-1.9424,-1.9424,-1.9424,-1.9424,-1.9424,-1.9424,-1.9424,-1.9424,-1.9424,-1.9424,-1.9424,-1.9424,-1.9424,-1.9424,-1.9424,-1.9424,-1.9424,-1.9424,-1.9424,-1.9424,-1.9424,-1.9424,-1.9424,-1.9424,-1.9424,-1.9424,-1.9424,-1.9424,-1.9424,-2.7309,-2.7177,-2.6996,-2.69,-2.6651,-2.6294,-2.6149,0.0,0.0,0.0,0.0,0.0,0.0,0.0,0.0,0.0,0.0,0.0,0.0,0.0,0.0,0.0,0.0,0.0,0.0,0.0,0.0,0.0,0.0,0.0,-2.8291,-2.8291,-2.8291,-2.8291,-2.8291,-2.8291,-2.8291,-2.8291,-2.8291,-2.8291,-2.8291,-2.8291,-2.8291,-2.8291,-2.8291,-2.8291,-2.8291,-2.8291,-2.8291,-2.8291,-2.8291,-2.8291,-2.8291,-2.8291,-2.8291,-2.8121,-2.796,-2.7853,-2.7638,-2.7314,-2.6989,-2.6989,-2.5999,-2.4723,-2.4326,-2.2862,-2.1231,-2.0723,-2.0104,-1.9533,-1.9424,-1.9424,-1.9424,-1.9424,-1.9424,-1.9424,-1.9424,-1.9424,-1.9424,-1.9424,-1.9424,-1.9424,-1.9424,-1.9424,-1.9424,-1.9424,-1.9424,-1.9424,-1.9424,-1.9424,-1.9424,-1.9424,-1.9424,-1.9424,-1.9424,-1.9424,-1.9424,-1.9424,-1.9424,-1.9424,-1.9424,-1.9424,-1.9424,-1.9424,-1.9424,-1.9424,-1.9424,-1.9424,-1.9424,-1.9424,-1.9424,-1.954,0.0,0.0,0.0,0.0,0.0,0.0,-2.6245,0.0,0.0,0.0,0.0,0.0,0.0,0.0,0.0,0.0,0.0,0.0,0.0,0.0,0.0,0.0,0.0,0.0,0.0,0.0,0.0,0.0,0.0,-2.8291,-2.8291,-2.8291,-2.8291,-2.8291,-2.8291,-2.8291,-2.8291,-2.8291,-2.8291,-2.8291,-2.8291,-2.8291,-2.8291,-2.8291,-2.8291,-2.8291,-2.8291,-2.8291,-2.8291,-2.8291,-2.8291,-2.8291,-2.8291,-2.8291,-2.8291,-2.8291,-2.8121,-2.7906,-2.7853,-2.7476,-2.6935,-2.6935,-2.5935,-2.4501,-2.332,-2.2297,-2.1224,-1.9822,-1.9591,-1.97,-1.9482,-1.9424,-1.9424,-1.9424,-1.9424,-1.9424,-1.9424,-1.9424,-1.9424,-1.9424,-1.9424,-1.9424,-1.9424,-1.9424,-1.9424,-1.9424,-1.9424,-1.9424,-1.9424,-1.9424,-1.9424,-1.9424,-1.9424,-1.9424,-1.9424,-1.9424,-1.9424,-1.9424,-1.9424,-1.9424,-1.9424,-1.9424,-1.9424,-1.9424,-1.9424,-1.9424,-1.9424,-1.9424,-1.9424,-1.9424,-1.9424,-1.9764,-2.7309,0.0,0.0,0.0,0.0,0.0,0.0,0.0,0.0,0.0,0.0,0.0,0.0,0.0,0.0,0.0,0.0,0.0,0.0,0.0,0.0,0.0,0.0,0.0,0.0,0.0,0.0,0.0,-2.8291,-2.8291,-2.8291,-2.8291,-2.8291,-2.8291,-2.8291,-2.8291,-2.8291,-2.8291,-2.8291,-2.8291,-2.8291,-2.8291,-2.8291,-2.8291,-2.8291,-2.8291,-2.8291,-2.8291,-2.8291,-2.8291,-2.8291,-2.8291,-2.8077,-2.813,-2.8237,-2.7584,-2.7422,-2.7485,-2.7116,-2.6282,-2.5386,-2.5386,-2.3927,-2.2135,-2.1794,-2.0895,-1.9931,-1.954,-1.9424,-1.9475,-1.9424,-1.9424,-1.9424,-1.9424,-1.9424,-1.9424,-1.9424,-1.9424,-1.9424,-1.9424,-1.9424,-1.9424,-1.9424,-1.9424,-1.9424,-1.9424,-1.9424,-1.9424,-1.9424,-1.9424,-1.9424,-1.9424,-1.9424,-1.9424,-1.9424,-1.9424,-1.9424,-1.9424,-1.9424,-1.9424,-1.9424,-1.9424,-1.9424,-1.9424,-1.9424,-1.9424,-1.9424,-1.9424,-1.9424,-1.9424,-2.027,-2.1331,0.0,0.0,0.0,0.0,0.0,0.0,-2.6794,-2.6496,0.0,0.0,0.0,0.0,0.0,0.0,0.0,0.0,0.0,0.0,0.0,0.0,0.0,0.0,0.0,0.0,0.0,0.0,0.0,-2.8291,-2.8291,-2.8291,-2.8291,-2.8291,-2.8291,-2.8291,-2.8291,-2.8291,-2.8291,-2.8291,-2.8291,-2.8291,-2.8291,-2.8291,-2.8291,-2.8291,-2.8291,-2.8291,-2.8291,-2.8291,-2.8291,-2.8291,-2.8291,-2.8291,-2.813,-2.8184,-2.8237,-2.7755,-2.7142,-2.6581,-2.6273,-2.5276,-2.4047,-2.4047,-2.2757,-2.1174,-2.1174,-2.0443,-1.9533,-1.9424,-1.9424,-1.9424,-1.9424,-1.9424,-1.9424,-1.9424,-1.9424,-1.9424,-1.9424,-1.9424,-1.9424,-1.9424,-1.9424,-1.9424,-1.9424,-1.9424,-1.9424,-1.9424,-1.9424,-1.9424,-1.9424,-1.9424,-1.9424,-1.9424,-1.9424,-1.9424,-1.9424,-1.9424,-1.9424,-1.9424,-1.9424,-1.9655,-2.0104,-2.0162,-2.0385,-2.0895,-2.0895,-2.0895,-2.0895,-1.9873,-1.9649,-2.0155,-2.1502,-2.2677,0.0,0.0,0.0,0.0,0.0,0.0,-2.6688,-2.6544,-2.652,0.0,0.0,0.0,0.0,0.0,0.0,0.0,0.0,0.0,0.0,0.0,0.0,0.0,0.0,0.0,0.0,-2.8291,-2.8291,-2.8291,-2.8291,-2.8291,-2.8291,-2.8291,-2.8291,-2.8291,-2.8291,-2.8291,-2.8291,-2.8291,-2.8291,-2.8237,-2.8291,-2.8291,-2.8237,-2.8291,-2.8291,-2.8291,-2.8291,-2.8237,-2.8121,-2.8121,-2.8184,-2.8291,-2.8291,-2.8184,-2.8077,-2.796,-2.6907,-2.5406,-2.5342,-2.4245,-2.2862,-2.2805,-2.1964,-2.101,-2.101,-2.0443,-1.9707,-1.9482,-1.9424,-1.9424,-1.9424,-1.9424,-1.9424,-1.9424,-1.9424,-1.9424,-1.9424,-1.9424,-1.9424,-1.9424,-1.9424,-1.9424,-1.9424,-1.9424,-1.9424,-1.9424,-1.9424,-1.9424,-1.9424,-1.9424,-1.9424,-1.9424,-1.9424,-1.9424,-1.9424,-1.9424,-1.9424,-1.9424,-1.954,-2.0104,-2.1174,-2.1345,-2.1907,-2.2982,-2.2974,-2.2974,-2.2974,-2.0838,-2.0443,-2.1623,-2.3038,-2.3904,0.0,0.0,0.0,0.0,0.0,0.0,-2.7167,-2.6986,-2.6825,0.0,0.0,0.0,0.0,0.0,0.0,0.0,0.0,0.0,0.0,0.0,0.0,0.0,0.0,0.0,0.0,-2.8291,-2.8291,-2.8291,-2.8291,-2.8291,-2.8291,-2.8291,-2.8291,-2.8291,-2.8291,-2.8291,-2.8291,-2.8291,-2.8184,-2.796,-2.8184,-2.8184,-2.796,-2.8184,-2.8291,-2.8291,-2.8291,-2.7745,-2.6853,-2.6853,-2.7413,-2.8291,-2.8067,-2.7349,-2.6472,-2.5963,-2.5139,-2.415,-2.3695,-2.2797,-2.1843,-2.1623,-2.0723,-1.9764,-1.9764,-1.9591,-1.9482,-1.9424,-1.9424,-1.9424,-1.9424,-1.9424,-1.9424,-1.9424,-1.9424,-1.9424,-1.9424,-1.9424,-1.9424,-1.9424,-1.9424,-1.9424,-1.9424,-1.9424,-1.9424,-1.9424,-1.9424,-1.9424,-1.9424,-1.9424,-1.9424,-1.9424,-1.9424,-1.9424,-1.9424,-1.9424,-1.9424,-1.9424,-2.0328,-2.0952,-2.1174,-2.2135,-2.2757,-2.2974,-2.2974,-2.2974,-2.2974,-2.2531,-2.2926,-2.4111,-2.494,-2.604,0.0,0.0,0.0,-2.7309,0.0,0.0,0.0,-2.6996,-2.6853,-2.6747,0.0,0.0,0.0,0.0,0.0,0.0,0.0,0.0,0.0,0.0,0.0,0.0,0.0,0.0,0.0,-2.8291,-2.8291,-2.8291,-2.8291,-2.8291,-2.8291,-2.8291,-2.8291,-2.8291,-2.8291,-2.8291,-2.8291,-2.8184,-2.8014,-2.7906,-2.8014,-2.8014,-2.7906,-2.7574,-2.7413,-2.7349,-2.6789,-2.6063,-2.5406,-2.5406,-2.5735,-2.6291,-2.6282,-2.5845,-2.5186,-2.4846,-2.3894,-2.2733,-2.2394,-2.1502,-2.0493,-2.0328,-1.9873,-1.9424,-1.9424,-1.9424,-1.9424,-1.9424,-1.9424,-1.9424,-1.9424,-1.9424,-1.9424,-1.9424,-1.9424,-1.9424,-1.9424,-1.9424,-1.9424,-1.9424,-1.9424,-1.9424,-1.9424,-1.9424,-1.9424,-1.9424,-1.9424,-1.9424,-1.9424,-1.9424,-1.9424,-1.9424,-1.9424,-1.9424,-1.9424,-1.9424,-1.9655,-2.027,-2.0895,-2.1737,-2.2974,-2.36,-2.4167,-2.4778,-2.5014,-2.5108,-2.5108,-2.5297,-2.5345,-2.5323,-2.6664,-2.7716,0.0,0.0,0.0,0.0,0.0,-2.7262,0.0,0.0,0.0,-2.6688,0.0,0.0,0.0,0.0,0.0,0.0,0.0,0.0,0.0,0.0,0.0,0.0,0.0,0.0,0.0,-2.8047,-2.8047,-2.8047,-2.8125,-2.8174,-2.8174,-2.8252,-2.8291,-2.8291,-2.8291,-2.8291,-2.8291,-2.7789,-2.7511,-2.7457,-2.7295,-2.7187,-2.7133,-2.6409,-2.6073,-2.6073,-2.5067,-2.4394,-2.4069,-2.4005,-2.3838,-2.3671,-2.4275,-2.4275,-2.3894,-2.3782,-2.271,-2.1252,-2.1194,-2.0422,-1.9482,-1.9424,-1.9424,-1.9424,-1.9424,-1.9424,-1.9424,-1.9424,-1.9424,-1.9424,-1.9424,-1.9424,-1.9424,-1.9424,-1.9424,-1.9424,-1.9424,-1.9424,-1.9424,-1.9424,-1.9424,-1.9424,-1.9424,-1.9424,-1.9424,-1.9424,-1.9424,-1.9424,-1.9424,-1.9424,-1.9424,-1.9424,-1.9424,-1.9424,-1.9424,-1.9597,-2.0162,-2.1117,-2.1631,-2.2749,-2.4723,-2.5008,-2.5659,-2.6701,-2.7013,-2.7215,-2.7344,-2.7748,-2.7418,-2.6326,-2.8004,-2.8965,0.0,0.0,0.0,0.0,-2.7309,0.0,0.0,0.0,-2.7262,-2.7214,0.0,0.0,0.0,0.0,0.0,0.0,0.0,0.0,0.0,0.0,0.0,0.0,0.0,0.0,0.0,0.0,-2.7158,-2.7158,-2.7519,-2.7787,-2.7787,-2.8086,-2.8291,-2.8291,-2.8291,-2.8291,-2.8291,-2.6997,-2.6164,-2.5845,-2.5067,-2.4569,-2.4373,-2.4514,-2.4671,-2.4893,-2.4505,-2.3902,-2.3143,-2.2854,-2.2063,-2.1274,-2.3159,-2.3279,-2.2289,-2.204,-2.1088,-1.9982,-1.9758,-1.97,-1.97,-1.9482,-1.9424,-1.9424,-1.9424,-1.9424,-1.9424,-1.9424,-1.9424,-1.9424,-1.9424,-1.9424,-1.9424,-1.9424,-1.9424,-1.9424,-1.9424,-1.9424,-1.9424,-1.9424,-1.9424,-1.9424,-1.9424,-1.9424,-1.9424,-1.9424,-1.9424,-1.9424,-1.9424,-1.9424,-1.9424,-1.9424,-1.9424,-1.9424,-1.9424,-2.0385,-2.106,-2.1174,-2.3207,-2.4501,-2.4787,-2.5852,-2.6637,-2.7105,-2.716,-2.7408,-2.7757,-2.8383,-2.8431,-2.7928,-2.8841,-2.9384,0.0,0.0,0.0,0.0,0.0,0.0,-2.7309,0.0,-2.7309,0.0,0.0,0.0,0.0,0.0,0.0,0.0,0.0,0.0,0.0,0.0,0.0,0.0,0.0,0.0,0.0,0.0,0.0,0.0,0.0,-2.7285,-2.7285,-2.6869,-2.7017,-2.792,-2.6661,-2.6324,-2.6997,-2.5571,-2.468,-2.4331,-2.4133,-2.3911,-2.3623,-2.3343,-2.3231,-2.3127,-2.2338,-2.1672,-2.1117,-2.0995,-2.0601,-2.0263,-2.0988,-2.1052,-2.0773,-2.0594,-2.0148,-1.9533,-1.9424,-1.9482,-1.954,-1.9424,-1.9424,-1.9424,-1.9424,-1.9424,-1.9424,-1.9424,-1.9424,-1.9424,-1.9424,-1.9424,-1.9424,-1.9424,-1.9424,-1.9424,-1.9424,-1.9424,-1.9424,-1.9424,-1.9424,-1.9424,-1.9424,-1.9424,-1.9424,-1.9424,-1.9424,-1.9424,-1.9424,-1.9424,-1.9424,-1.9424,-1.9424,-1.9424,-1.9424,-2.05,-2.1517,-2.2191,-2.4501,-2.5852,-2.5852,-2.6582,-2.7004,-2.7169,-2.7646,-2.8072,-2.8401,-2.8925,-2.9212,-2.9169,-2.9688,-3.0122,-2.7631,0.0,0.0,0.0,0.0,0.0,0.0,0.0,0.0,0.0,0.0,0.0,0.0,0.0,0.0,0.0,0.0,0.0,0.0,0.0,0.0,0.0,0.0,0.0,0.0,0.0,0.0,0.0,-2.5875,-2.5932,-2.5932,-2.5313,-2.5463,-2.6617,-2.5058,-2.4574,-2.5439,-2.3983,-2.3143,-2.2934,-2.291,-2.2741,-2.2379,-2.2063,-2.1794,-2.1566,-2.0551,-2.0104,-1.9931,-1.9815,-1.9815,-1.9758,-1.9482,-1.954,-1.97,-1.97,-1.9591,-1.9424,-1.9424,-1.9424,-1.9424,-1.9424,-1.9424,-1.9424,-1.9424,-1.9424,-1.9424,-1.9424,-1.9424,-1.9424,-1.9424,-1.9424,-1.9424,-1.9424,-1.9424,-1.9424,-1.9424,-1.9424,-1.9424,-1.9424,-1.9424,-1.9424,-1.9424,-1.9424,-1.9424,-1.9424,-1.9424,-1.9424,-1.9424,-1.9424,-1.9424,-1.9424,-1.9424,-1.954,-1.988,-2.101,-2.2361,-2.388,-2.5624,-2.6692,-2.6847,-2.7077,-2.7335,-2.7612,-2.8201,-2.8667,-2.8993,-2.9477,-2.9863,-3.0039,-3.0274,-3.0509,0.0,0.0,0.0,-2.8476,0.0,0.0,0.0,0.0,-2.7779,0.0,0.0,0.0,0.0,0.0,0.0,0.0,0.0,0.0,0.0,0.0,0.0,0.0,0.0,0.0,0.0,0.0,0.0,-2.2719,-2.3005,-2.3212,-2.3212,-2.3635,-2.3859,-2.3921,-2.3877,-2.3828,-2.3845,-2.2395,-2.1679,-2.1643,-2.0823,-2.0213,-1.9924,-2.0213,-2.0385,-2.0328,-1.9982,-1.9982,-2.027,-1.9931,-1.9815,-1.9758,-1.9482,-1.9424,-1.9424,-1.9424,-1.9424,-1.9424,-1.9424,-1.9424,-1.9424,-1.9424,-1.9424,-1.9424,-1.9424,-1.9424,-1.9424,-1.9424,-1.9424,-1.9424,-1.9424,-1.9424,-1.9424,-1.9424,-1.9424,-1.9424,-1.9424,-1.9424,-1.9424,-1.9424,-1.9424,-1.9424,-1.9424,-1.9424,-1.9424,-1.9424,-1.9424,-1.9424,-1.9424,-1.9424,-1.9424,-1.9424,-1.9424,-1.988,-2.106,-2.2248,-2.3935,-2.6309,-2.6537,-2.6911,-2.7548,-2.7327,-2.7705,-2.8711,-2.8749,-2.9021,-2.9481,-3.0089,-3.0382,-3.0382,-3.0382,-3.0392,0.0,0.0,-2.8026,-2.8277,0.0,0.0,0.0,0.0,0.0,0.0,0.0,0.0,0.0,0.0,0.0,0.0,0.0,0.0,0.0,0.0,0.0,0.0,0.0,0.0,0.0,0.0,0.0,-2.3592,-2.3007,-2.3026,0.0,-2.2545,-2.2326,-2.3289,-2.169,-2.1224,-2.203,-2.0741,-2.0019,-1.9785,-1.9943,-1.9815,-1.954,-1.9815,-1.9873,-1.9707,-1.9591,-1.9591,-1.9707,-1.9591,-1.9533,-1.954,-1.9424,-1.9424,-1.9424,-1.9424,-1.9424,-1.9424,-1.9424,-1.9424,-1.9424,-1.9424,-1.9424,-1.9424,-1.9424,-1.9424,-1.9424,-1.9424,-1.9424,-1.9424,-1.9424,-1.9424,-1.9424,-1.9424,-1.9424,-1.9424,-1.9424,-1.9424,-1.9424,-1.9424,-1.9424,-1.9424,-1.9424,-1.9424,-1.9424,-1.9424,-1.9424,-1.9424,-1.9424,-1.9424,-1.9707,-2.05,-2.0608,-2.106,-2.2305,-2.3488,-2.4889,-2.6482,-2.704,-2.729,-2.7327,-2.7909,-2.8431,-2.8816,-2.9095,-2.9536,-3.0089,-3.0333,-3.0382,-3.0392,-3.0635,-3.0704,-2.8161,-2.8143,0.0,-2.8441,-2.8502,0.0,-2.8705,0.0,0.0,0.0,0.0,0.0,0.0,0.0,0.0,0.0,0.0,0.0,0.0,0.0,0.0,0.0,0.0,0.0,0.0,0.0,-2.2935,-2.2935,-2.1988,-2.1633,0.0,0.0,-2.0782,-2.1713,-2.0144,-1.9626,-2.0295,-1.9601,-1.9096,-1.8925,-1.9398,-1.9547,-1.9424,-1.9707,-1.9642,-1.9424,-1.9424,-1.9424,-1.9424,-1.9424,-1.9424,-1.9424,-1.9424,-1.9424,-1.9424,-1.9424,-1.9424,-1.9424,-1.9424,-1.9424,-1.9424,-1.9424,-1.9424,-1.9424,-1.9424,-1.9424,-1.9403,-1.9239,-1.9285,-1.9339,-1.9239,-1.9292,-1.9424,-1.9424,-1.9424,-1.9424,-1.9424,-1.9424,-1.9424,-1.9424,-1.9424,-1.9424,-1.9424,-1.9424,-1.9424,-1.9424,-1.9424,-1.9424,-1.9424,-1.9424,-1.9707,-2.05,-2.0945,-2.1851,-2.3488,-2.4945,-2.615,-2.6893,-2.7595,-2.7996,-2.793,-2.8603,-2.913,-2.9439,-2.9679,-3.0106,-3.0603,-3.0586,-3.0577,-3.0577,-3.082,-3.0889]},{"header":{"parameterUnit":"m.s-1","parameterCategory":1,"la1":30.6,"la2":29.2853,"lo1":-89.7004,"lo2":-87.6739,"dy":0.0162,"dx":0.0183,"nx":112,"ny":82,"refTime":"2023-04-14T12:00:00:Z","depth":0,"parameterNumber":3,"parameterNumberName":"V-component_of_WINDS"},"data":[0.0,0.0,0.0,0.0,0.0,0.0,0.0,0.0,0.0,0.0,0.0,0.0,0.0,0.0,0.0,0.0,0.0,0.0,0.0,0.0,0.0,0.0,0.0,0.0,0.0,0.0,0.0,0.0,0.0,0.0,0.0,0.0,0.0,0.0,0.0,0.0,0.0,0.0,0.0,0.0,0.0,0.0,0.0,0.0,0.0,0.0,0.0,0.0,0.0,0.0,0.0,0.0,0.0,0.0,0.0,0.0,0.0,0.0,0.0,0.0,0.0,0.0,0.0,0.0,0.0,0.0,0.0,0.0,0.0,0.0,0.0,0.0,0.0,0.0,0.0,0.0,0.0,0.0,0.0,0.0,0.0,0.0,0.0,0.0,0.0,0.0,0.0,0.0,0.0,0.0,2.8843,2.8843,2.8697,2.859,2.859,2.8736,2.8764,2.859,0.0,0.0,0.0,0.0,0.0,0.0,0.0,0.0,0.0,0.0,0.0,0.0,0.0,0.0,0.0,0.0,0.0,0.0,0.0,0.0,0.0,0.0,0.0,0.0,0.0,0.0,0.0,0.0,0.0,0.0,0.0,0.0,0.0,0.0,0.0,0.0,0.0,0.0,0.0,0.0,0.0,0.0,0.0,0.0,0.0,0.0,0.0,0.0,0.0,0.0,0.0,0.0,0.0,0.0,0.0,0.0,0.0,0.0,0.0,0.0,0.0,0.0,0.0,0.0,0.0,0.0,0.0,0.0,0.0,0.0,0.0,0.0,0.0,0.0,0.0,0.0,0.0,0.0,0.0,0.0,0.0,0.0,0.0,0.0,0.0,0.0,0.0,0.0,0.0,0.0,0.0,0.0,0.0,0.0,0.0,0.0,0.0,0.0,0.0,0.0,0.0,0.0,0.0,0.0,2.9052,2.9052,2.9013,2.9013,2.9013,2.9052,2.9052,2.9013,0.0,0.0,0.0,0.0,0.0,0.0,0.0,0.0,0.0,0.0,0.0,0.0,0.0,0.0,0.0,0.0,0.0,0.0,0.0,0.0,0.0,0.0,0.0,0.0,0.0,0.0,0.0,0.0,0.0,0.0,0.0,0.0,0.0,0.0,0.0,0.0,0.0,0.0,0.0,0.0,0.0,0.0,0.0,0.0,0.0,0.0,0.0,0.0,0.0,0.0,0.0,0.0,0.0,0.0,0.0,0.0,0.0,0.0,0.0,0.0,0.0,0.0,0.0,0.0,0.0,0.0,0.0,0.0,0.0,0.0,0.0,0.0,0.0,0.0,0.0,0.0,0.0,0.0,0.0,0.0,0.0,0.0,0.0,0.0,0.0,0.0,0.0,0.0,0.0,0.0,0.0,0.0,0.0,0.0,0.0,0.0,0.0,0.0,0.0,0.0,0.0,0.0,0.0,2.9275,2.9236,2.9091,2.9091,2.9091,2.9091,2.9197,2.9236,2.9091,2.9118,0.0,0.0,0.0,0.0,0.0,0.0,0.0,0.0,0.0,0.0,0.0,0.0,0.0,0.0,0.0,0.0,0.0,0.0,0.0,0.0,0.0,0.0,0.0,0.0,0.0,0.0,0.0,0.0,0.0,0.0,0.0,0.0,0.0,0.0,0.0,0.0,0.0,0.0,0.0,0.0,0.0,0.0,0.0,0.0,0.0,0.0,0.0,0.0,0.0,0.0,0.0,0.0,0.0,0.0,0.0,0.0,0.0,0.0,0.0,0.0,0.0,0.0,0.0,0.0,0.0,0.0,0.0,0.0,0.0,0.0,0.0,0.0,0.0,0.0,0.0,0.0,0.0,0.0,0.0,0.0,0.0,0.0,0.0,0.0,0.0,0.0,0.0,0.0,0.0,0.0,0.0,0.0,0.0,0.0,0.0,0.0,0.0,0.0,0.0,0.0,0.0,0.0,2.9742,2.9678,2.9535,2.9535,2.9535,2.9535,2.9832,2.9896,2.9535,2.9871,0.0,0.0,0.0,0.0,0.0,0.0,0.0,0.0,0.0,0.0,0.0,0.0,0.0,0.0,0.0,0.0,0.0,0.0,0.0,0.0,0.0,0.0,0.0,0.0,0.0,0.0,0.0,0.0,0.0,0.0,0.0,0.0,0.0,0.0,0.0,0.0,0.0,0.0,0.0,0.0,0.0,0.0,0.0,0.0,0.0,0.0,0.0,0.0,0.0,0.0,0.0,0.0,0.0,0.0,0.0,0.0,0.0,0.0,0.0,0.0,0.0,0.0,0.0,0.0,0.0,0.0,0.0,0.0,0.0,0.0,0.0,0.0,0.0,0.0,0.0,0.0,0.0,0.0,0.0,0.0,0.0,0.0,0.0,0.0,0.0,0.0,0.0,0.0,0.0,0.0,0.0,0.0,0.0,0.0,0.0,0.0,0.0,0.0,0.0,0.0,0.0,0.0,3.0782,3.0782,3.0782,3.0782,3.0782,3.0782,3.1489,3.1599,3.082,3.1489,0.0,0.0,0.0,0.0,0.0,0.0,0.0,0.0,0.0,0.0,0.0,0.0,0.0,0.0,0.0,0.0,0.0,0.0,0.0,0.0,0.0,0.0,0.0,0.0,0.0,0.0,0.0,0.0,0.0,0.0,0.0,0.0,0.0,0.0,0.0,0.0,0.0,0.0,0.0,0.0,0.0,0.0,0.0,0.0,0.0,0.0,0.0,0.0,0.0,0.0,0.0,0.0,0.0,0.0,0.0,0.0,0.0,0.0,0.0,0.0,0.0,0.0,0.0,0.0,0.0,0.0,0.0,0.0,0.0,0.0,0.0,0.0,0.0,0.0,0.0,0.0,0.0,0.0,0.0,0.0,0.0,0.0,0.0,0.0,0.0,0.0,0.0,0.0,0.0,0.0,0.0,0.0,0.0,0.0,0.0,0.0,0.0,0.0,0.0,0.0,0.0,0.0,3.1636,3.1636,0.0,3.1636,3.1636,3.1636,3.1928,3.1965,3.1673,0.0,0.0,0.0,0.0,0.0,0.0,0.0,0.0,0.0,0.0,0.0,0.0,0.0,0.0,0.0,0.0,0.0,0.0,0.0,0.0,0.0,0.0,0.0,0.0,0.0,0.0,0.0,0.0,0.0,0.0,0.0,0.0,0.0,0.0,0.0,0.0,0.0,0.0,0.0,0.0,0.0,0.0,0.0,0.0,0.0,0.0,0.0,0.0,0.0,0.0,0.0,0.0,0.0,0.0,0.0,0.0,0.0,0.0,0.0,0.0,0.0,0.0,0.0,0.0,0.0,0.0,0.0,0.0,0.0,0.0,0.0,0.0,0.0,0.0,0.0,0.0,0.0,0.0,0.0,0.0,0.0,0.0,0.0,0.0,0.0,0.0,0.0,0.0,0.0,0.0,0.0,0.0,0.0,0.0,0.0,0.0,0.0,0.0,0.0,0.0,0.0,0.0,3.247,3.2434,3.2434,0.0,3.2434,3.2434,3.2434,3.2698,3.2733,3.2484,0.0,0.0,0.0,0.0,0.0,0.0,0.0,0.0,0.0,0.0,0.0,0.0,0.0,0.0,0.0,0.0,0.0,0.0,0.0,0.0,0.0,0.0,0.0,0.0,0.0,0.0,0.0,0.0,0.0,0.0,0.0,0.0,0.0,0.0,0.0,0.0,0.0,0.0,0.0,0.0,0.0,0.0,0.0,0.0,0.0,0.0,0.0,0.0,0.0,0.0,0.0,0.0,0.0,0.0,0.0,0.0,0.0,0.0,0.0,0.0,0.0,0.0,0.0,0.0,0.0,0.0,0.0,0.0,0.0,0.0,0.0,0.0,0.0,0.0,0.0,0.0,0.0,0.0,0.0,0.0,0.0,0.0,0.0,0.0,0.0,0.0,0.0,0.0,0.0,0.0,0.0,0.0,0.0,0.0,0.0,0.0,0.0,0.0,0.0,0.0,0.0,0.0,3.3346,3.3241,3.3241,3.3241,3.3241,3.3241,3.3241,3.3942,3.4094,0.0,0.0,0.0,0.0,0.0,0.0,0.0,0.0,0.0,0.0,0.0,0.0,0.0,0.0,0.0,0.0,0.0,0.0,0.0,0.0,0.0,0.0,0.0,0.0,0.0,0.0,0.0,0.0,0.0,0.0,0.0,0.0,0.0,0.0,0.0,0.0,0.0,0.0,0.0,0.0,0.0,0.0,0.0,0.0,0.0,0.0,0.0,0.0,0.0,0.0,0.0,0.0,0.0,0.0,0.0,0.0,0.0,0.0,0.0,0.0,0.0,0.0,0.0,0.0,0.0,0.0,0.0,0.0,0.0,0.0,0.0,0.0,0.0,0.0,0.0,0.0,0.0,0.0,0.0,0.0,0.0,0.0,0.0,0.0,0.0,0.0,0.0,0.0,0.0,0.0,0.0,0.0,0.0,0.0,0.0,0.0,0.0,0.0,0.0,0.0,0.0,0.0,0.0,3.5403,3.5403,3.5403,3.5403,3.5403,3.5403,3.5403,3.5594,3.5441,3.4805,0.0,0.0,0.0,0.0,0.0,0.0,0.0,0.0,0.0,0.0,0.0,0.0,0.0,0.0,0.0,0.0,0.0,0.0,0.0,0.0,0.0,0.0,0.0,0.0,0.0,0.0,0.0,0.0,0.0,0.0,0.0,0.0,0.0,0.0,0.0,0.0,0.0,0.0,0.0,0.0,0.0,0.0,0.0,0.0,0.0,0.0,0.0,0.0,0.0,0.0,0.0,0.0,0.0,0.0,0.0,0.0,0.0,0.0,0.0,0.0,0.0,0.0,0.0,0.0,0.0,0.0,0.0,0.0,0.0,0.0,0.0,0.0,0.0,0.0,0.0,0.0,0.0,0.0,0.0,0.0,0.0,0.0,0.0,0.0,0.0,0.0,0.0,0.0,0.0,0.0,0.0,0.0,0.0,0.0,0.0,0.0,0.0,0.0,0.0,0.0,0.0,0.0,3.6422,3.6493,3.6514,3.6422,3.6479,3.6514,3.6422,3.6479,3.6389,3.6029,0.0,0.0,0.0,0.0,0.0,0.0,0.0,0.0,0.0,0.0,0.0,0.0,0.0,0.0,0.0,0.0,0.0,0.0,0.0,0.0,0.0,0.0,0.0,0.0,0.0,0.0,0.0,0.0,0.0,0.0,0.0,0.0,0.0,0.0,0.0,0.0,0.0,0.0,0.0,0.0,0.0,0.0,0.0,0.0,0.0,0.0,0.0,0.0,0.0,0.0,0.0,0.0,0.0,0.0,0.0,0.0,0.0,0.0,0.0,0.0,0.0,0.0,0.0,0.0,0.0,0.0,0.0,0.0,0.0,0.0,0.0,0.0,0.0,0.0,0.0,0.0,0.0,0.0,0.0,0.0,0.0,0.0,0.0,0.0,0.0,0.0,0.0,0.0,0.0,0.0,0.0,0.0,0.0,0.0,0.0,0.0,0.0,0.0,0.0,0.0,0.0,0.0,3.681,3.6937,3.7007,3.681,3.6987,3.7007,3.6825,3.6987,3.7048,3.7004,0.0,0.0,0.0,0.0,0.0,0.0,0.0,0.0,0.0,0.0,0.0,0.0,0.0,0.0,0.0,0.0,0.0,0.0,0.0,0.0,0.0,0.0,0.0,0.0,0.0,0.0,0.0,0.0,0.0,0.0,0.0,0.0,0.0,0.0,0.0,0.0,0.0,0.0,0.0,0.0,0.0,0.0,0.0,0.0,0.0,0.0,0.0,0.0,0.0,0.0,0.0,0.0,0.0,0.0,0.0,0.0,0.0,0.0,0.0,0.0,3.876,0.0,0.0,0.0,0.0,0.0,0.0,0.0,0.0,0.0,0.0,0.0,0.0,0.0,0.0,0.0,0.0,0.0,0.0,0.0,0.0,0.0,0.0,0.0,0.0,0.0,0.0,0.0,0.0,0.0,0.0,0.0,0.0,0.0,0.0,0.0,0.0,0.0,0.0,0.0,0.0,0.0,3.8348,3.8384,3.8384,3.8348,3.8384,3.8384,3.8348,3.8384,3.8214,3.7727,3.7662,0.0,0.0,0.0,0.0,0.0,0.0,0.0,0.0,0.0,0.0,0.0,0.0,0.0,0.0,0.0,0.0,0.0,0.0,0.0,0.0,0.0,0.0,0.0,0.0,0.0,0.0,0.0,0.0,0.0,0.0,0.0,0.0,0.0,0.0,0.0,0.0,0.0,0.0,0.0,0.0,0.0,0.0,0.0,0.0,0.0,0.0,0.0,0.0,0.0,0.0,0.0,0.0,0.0,0.0,0.0,0.0,0.0,0.0,0.0,0.0,3.887,0.0,0.0,0.0,0.0,0.0,0.0,0.0,0.0,0.0,0.0,0.0,0.0,0.0,0.0,0.0,0.0,0.0,0.0,0.0,0.0,0.0,0.0,0.0,0.0,0.0,0.0,0.0,0.0,0.0,0.0,0.0,0.0,0.0,0.0,0.0,0.0,0.0,0.0,0.0,0.0,3.8943,3.9017,3.9068,3.8943,3.9017,3.9068,3.8943,3.9017,3.9101,3.9134,3.9048,0.0,0.0,0.0,0.0,0.0,0.0,0.0,0.0,0.0,0.0,0.0,0.0,0.0,0.0,0.0,0.0,0.0,0.0,0.0,0.0,0.0,0.0,0.0,0.0,0.0,0.0,0.0,0.0,0.0,0.0,0.0,0.0,0.0,0.0,0.0,0.0,0.0,0.0,0.0,0.0,0.0,0.0,0.0,0.0,0.0,0.0,0.0,0.0,0.0,0.0,0.0,0.0,0.0,0.0,3.9068,3.9388,3.9358,3.943,3.9589,3.9349,3.922,3.9141,0.0,0.0,0.0,0.0,0.0,0.0,0.0,0.0,0.0,0.0,0.0,0.0,0.0,0.0,0.0,0.0,0.0,0.0,0.0,0.0,0.0,0.0,0.0,0.0,0.0,4.3066,4.3188,0.0,0.0,0.0,0.0,0.0,0.0,0.0,0.0,0.0,0.0,0.0,0.0,3.9508,3.9666,3.9702,3.9544,3.9666,3.9702,3.9544,3.9666,4.0021,4.065,4.0512,4.0687,0.0,0.0,0.0,0.0,0.0,0.0,0.0,0.0,0.0,0.0,0.0,0.0,0.0,0.0,0.0,0.0,0.0,0.0,0.0,0.0,0.0,0.0,0.0,0.0,0.0,0.0,0.0,0.0,0.0,0.0,0.0,0.0,4.0863,4.0863,0.0,0.0,0.0,0.0,0.0,0.0,0.0,0.0,0.0,0.0,0.0,0.0,0.0,0.0,3.9337,3.9337,3.9337,3.9337,3.9337,3.9337,3.9409,4.0041,4.0339,4.0374,4.0925,0.0,3.9337,3.9141,0.0,0.0,0.0,0.0,0.0,0.0,0.0,0.0,0.0,0.0,0.0,0.0,0.0,0.0,0.0,0.0,0.0,0.0,0.0,0.0,0.0,0.0,4.3462,4.3432,4.3539,4.3522,0.0,4.2787,4.238,4.238,0.0,0.0,0.0,0.0,0.0,0.0,0.0,0.0,4.1178,4.1194,4.1227,4.1194,4.1194,4.1227,4.1194,4.1194,4.126,4.136,4.1327,4.136,4.1459,4.1299,0.0,0.0,0.0,0.0,0.0,0.0,0.0,0.0,0.0,0.0,0.0,0.0,0.0,0.0,0.0,0.0,0.0,0.0,0.0,0.0,0.0,0.0,0.0,0.0,0.0,0.0,0.0,0.0,0.0,4.1329,4.1362,4.1362,4.0857,4.0512,0.0,0.0,0.0,0.0,0.0,0.0,0.0,0.0,0.0,4.1042,4.0737,4.0409,4.0021,4.0021,3.9824,3.9388,3.9388,3.9388,3.9424,4.0146,4.0512,4.0547,4.1194,4.116,4.0566,4.0497,4.0447,4.0447,0.0,0.0,0.0,0.0,0.0,4.116,4.1852,0.0,0.0,0.0,0.0,0.0,0.0,0.0,0.0,0.0,0.0,0.0,0.0,0.0,0.0,4.3628,4.3598,4.3628,4.3734,4.3432,4.3174,0.0,4.2617,4.2126,4.2126,0.0,0.0,0.0,0.0,0.0,4.1492,4.1492,4.1492,4.1492,4.1492,4.1492,4.1492,4.1492,4.1689,4.2078,4.2126,4.2285,4.2663,4.2317,4.1981,0.0,0.0,0.0,0.0,0.0,0.0,0.0,0.0,0.0,0.0,0.0,0.0,0.0,0.0,0.0,0.0,0.0,0.0,0.0,0.0,0.0,0.0,0.0,0.0,0.0,0.0,0.0,0.0,4.2045,4.2045,4.2045,4.1442,4.1042,0.0,0.0,0.0,0.0,0.0,0.0,4.1804,4.1641,4.1641,4.1885,4.1673,4.1311,4.0823,4.0771,4.0478,3.995,3.995,3.995,3.997,4.0703,4.1042,4.1075,4.1754,4.2045,4.2013,4.1656,4.1492,4.1492,4.1492,4.1492,4.1525,4.1722,4.1787,4.1884,4.2617,4.2881,4.3005,4.3492,0.0,4.3717,4.3717,0.0,0.0,0.0,0.0,4.391,4.3776,0.0,4.391,4.3747,4.3717,4.3776,4.391,4.3835,4.3717,0.0,4.3235,4.2851,4.2851,0.0,0.0,0.0,0.0,4.2045,4.2045,4.2045,4.2045,4.2045,4.2045,4.2045,4.2045,4.2045,4.2285,4.2803,4.2851,4.3066,4.3598,4.3113,4.2772,4.2617,0.0,0.0,0.0,0.0,0.0,0.0,0.0,0.0,0.0,0.0,0.0,0.0,0.0,0.0,0.0,0.0,0.0,0.0,0.0,0.0,0.0,0.0,0.0,0.0,0.0,0.0,0.0,0.0,0.0,4.3492,4.2912,0.0,0.0,0.0,0.0,4.1459,4.1492,4.1868,4.2693,4.2062,4.2077,4.289,4.2109,4.1658,4.1626,4.1494,4.1426,4.1393,4.1393,4.1393,4.1426,4.2158,4.2491,4.2522,4.3204,4.3492,4.3402,4.2045,4.1492,4.1492,4.1492,4.1492,4.1591,4.2285,4.2554,4.2648,4.3312,4.3658,4.3839,4.3868,4.3969,4.4068,4.4068,4.4068,0.0,0.0,4.4097,4.4097,4.4068,4.4068,4.4097,4.4068,4.4068,4.4068,4.4097,4.4068,4.4056,0.0,4.3687,4.3568,4.3568,0.0,4.3492,4.3492,4.3492,4.3492,4.3492,4.3492,4.3492,4.3492,4.3492,4.3492,4.3492,4.3492,4.3492,4.3568,4.3568,4.3552,4.3598,4.3568,4.3235,4.2617,4.3372,0.0,0.0,0.0,0.0,0.0,0.0,0.0,0.0,0.0,0.0,0.0,0.0,0.0,0.0,0.0,0.0,0.0,0.0,0.0,0.0,0.0,0.0,0.0,0.0,0.0,0.0,0.0,0.0,4.3598,4.3005,0.0,4.2709,4.2474,4.2363,4.2473,4.2878,4.3323,4.3608,4.3383,4.3396,4.368,4.3396,4.3031,4.255,4.2488,4.2252,4.182,4.182,4.182,4.1852,4.2552,4.2878,4.2909,4.3608,4.3923,4.3894,4.3399,4.305,4.2834,4.2834,4.2834,4.2912,4.3295,4.3432,4.3462,4.3805,4.3952,4.4027,4.4027,4.4056,4.4126,4.4196,4.4184,4.4126,4.4196,4.4224,4.4196,4.4126,4.4167,4.4212,4.4126,4.4097,4.4126,4.4196,4.4155,4.4097,4.4155,4.3952,4.3763,4.3628,4.3598,4.3628,4.3763,4.3687,4.3687,4.3894,4.3747,4.3687,4.3894,4.3747,4.3658,4.3763,4.3793,4.3793,4.3793,4.3864,4.3923,4.3923,4.3923,4.3818,4.3565,4.3864,4.3894,0.0,0.0,0.0,0.0,0.0,0.0,0.0,0.0,0.0,0.0,0.0,0.0,0.0,0.0,0.0,0.0,0.0,0.0,0.0,0.0,0.0,0.0,0.0,0.0,0.0,0.0,4.3628,4.3687,4.3295,4.3096,4.3216,4.3246,4.3276,4.3363,4.4047,4.4495,4.4524,4.4787,4.4951,4.5026,4.4951,4.4682,4.418,4.412,4.3875,4.3471,4.3471,4.3471,4.3471,4.3906,4.4089,4.412,4.4356,4.4465,4.4449,4.4198,4.3981,4.3776,4.3776,4.3776,4.3776,4.391,4.3985,4.3969,4.4126,4.4184,4.4184,4.4258,4.4286,4.4286,4.4384,4.4327,4.427,4.4384,4.4412,4.4384,4.4298,4.4327,4.4384,4.427,4.4286,4.4298,4.4367,4.4327,4.427,4.431,4.4126,4.3939,4.3776,4.3776,4.3805,4.3898,4.3822,4.3835,4.4027,4.3864,4.3864,4.4068,4.3894,4.3805,4.3956,4.3985,4.3985,4.3985,4.4056,4.4097,4.4097,4.4097,4.4097,4.4097,4.4155,4.4184,4.4184,0.0,0.0,0.0,0.0,0.0,0.0,0.0,0.0,0.0,0.0,0.0,0.0,0.0,0.0,0.0,0.0,0.0,0.0,0.0,0.0,0.0,0.0,0.0,4.3598,4.3598,4.3687,4.3868,4.3914,4.3973,4.4147,4.4147,4.4164,4.4164,4.4846,4.5307,4.5442,4.6127,4.6604,4.6786,4.6604,4.6514,4.6514,4.6381,4.6321,4.6321,4.6321,4.6321,4.6321,4.6321,4.6321,4.6287,4.555,4.5248,4.5181,4.4461,4.4131,4.4131,4.4114,4.4097,4.4097,4.4097,4.4097,4.4126,4.4253,4.431,4.4338,4.4542,4.4615,4.4615,4.4615,4.4615,4.4615,4.4615,4.4615,4.4615,4.4615,4.4615,4.4615,4.4615,4.4615,4.4615,4.4615,4.4615,4.4542,4.4338,4.4196,4.4097,4.4097,4.4097,4.4056,4.3927,4.4027,0.0,4.3927,4.4027,4.4097,4.4097,4.4097,4.4097,4.4097,4.4097,4.4097,4.4097,4.4097,4.4114,4.4114,4.4114,4.4114,4.4114,4.4253,4.431,4.431,0.0,0.0,0.0,0.0,0.0,0.0,0.0,0.0,0.0,0.0,0.0,0.0,0.0,0.0,0.0,0.0,0.0,0.0,0.0,0.0,0.0,0.0,4.3763,4.3628,4.3734,4.3839,4.3898,4.4465,4.4884,4.503,4.5547,4.5909,4.606,4.6245,4.6393,4.6422,4.6608,4.6756,4.6786,4.6756,4.6727,4.6727,4.6697,4.6667,4.6667,4.6667,4.6667,4.6667,4.6667,4.6667,4.665,4.6448,4.6364,4.6296,4.5571,4.5238,4.5187,4.4402,4.4097,4.4097,4.4196,4.4327,4.4457,4.4514,4.4514,4.4542,4.457,4.4615,4.4615,4.4615,4.4615,4.4615,4.4615,4.4615,4.4615,4.4615,4.4615,4.4615,4.4615,4.4615,4.4615,4.4615,4.4615,4.457,4.4542,4.4485,4.44,4.4126,4.4097,4.4126,4.4184,0.0,0.0,4.4372,4.4229,4.4184,4.4429,4.4258,4.4155,4.4224,4.4253,4.4253,4.4253,4.4384,4.4457,4.4457,4.4457,4.4457,4.4457,4.4514,4.4514,0.0,0.0,0.0,0.0,0.0,0.0,0.0,0.0,0.0,0.0,0.0,0.0,0.0,0.0,0.0,0.0,0.0,0.0,0.0,0.0,0.0,0.0,4.4072,4.4347,4.4284,4.4373,4.4478,4.452,4.5244,4.5816,4.5951,4.6368,4.668,4.6786,4.709,4.7259,4.7259,4.7547,4.7716,4.7716,4.7716,4.7716,4.7716,4.7716,4.7716,4.7716,4.7716,4.7716,4.7716,4.7716,4.7716,0.0,4.7394,4.7259,4.7208,4.6464,4.616,0.0,0.0,0.0,0.0,0.0,4.4497,4.4615,4.4615,4.4615,4.4615,4.4615,4.4615,4.4615,4.4615,4.4615,4.4615,4.4615,4.4615,4.4615,4.4615,4.4615,4.4615,4.4615,4.4615,4.4615,4.4615,4.4615,4.4615,4.4615,0.0,0.0,4.4344,4.4315,4.4298,4.431,4.4298,4.4355,4.4468,4.44,4.4372,4.457,4.4429,4.4327,4.4412,4.444,0.0,0.0,0.0,4.4615,4.4615,4.4615,0.0,0.0,0.0,4.4615,0.0,0.0,0.0,0.0,4.444,4.4468,0.0,0.0,0.0,0.0,0.0,0.0,0.0,0.0,0.0,0.0,0.0,0.0,0.0,0.0,0.0,0.0,4.4606,4.51,4.5315,4.5429,4.5505,4.5522,4.6207,4.6739,4.6921,4.6989,4.7039,4.7039,4.7665,4.8007,4.8007,0.0,0.0,0.0,0.0,4.9001,4.9001,4.9001,4.9001,4.9001,4.9001,4.9001,4.9001,4.9001,4.9001,4.8968,4.8325,4.8007,4.7986,4.7225,4.687,4.665,4.5275,4.4733,4.4716,4.4632,4.4615,0.0,0.0,0.0,0.0,4.4615,4.4615,4.4615,4.4615,4.4615,4.4615,4.4615,4.4615,4.4615,4.4615,4.4615,4.4615,4.4615,4.4615,4.4615,4.4615,4.4615,4.4615,4.4615,4.4615,4.4615,4.4615,4.4615,4.4542,4.4367,4.4468,4.4542,4.4367,4.4468,4.4615,4.4615,0.0,0.0,4.4615,4.4615,4.4615,4.4615,4.4615,4.4615,4.4615,4.4615,4.4615,4.4615,4.4615,4.4615,4.4615,4.4615,4.4615,4.4615,4.4615,4.4615,0.0,0.0,0.0,0.0,0.0,0.0,0.0,0.0,0.0,0.0,0.0,0.0,0.0,0.0,0.0,4.4825,4.5173,4.5547,4.6152,4.6894,4.7123,4.6363,4.7089,4.7622,4.7669,4.824,4.8578,4.8578,4.8714,4.8798,4.8798,4.8934,0.0,4.9001,4.9001,4.9001,4.9001,4.9001,4.9001,4.9001,0.0,0.0,4.9001,4.9001,4.9001,4.9001,4.8849,4.8798,4.8731,4.8003,4.7344,4.6701,4.5838,4.5483,4.5415,4.4835,4.4615,4.4615,4.4615,4.4615,4.4615,4.4615,4.4615,4.4615,4.4615,4.4615,0.0,4.4615,4.4615,4.4615,4.4615,4.4615,4.4615,4.4615,4.4615,4.4615,4.4615,4.4615,4.4615,4.4615,4.4615,4.4615,4.4615,4.4615,4.4587,4.4542,4.457,4.4587,4.4542,4.457,4.4615,4.4615,4.4615,4.4615,4.4615,4.4615,4.4615,4.4615,4.4615,4.4615,4.4615,4.4615,4.4615,4.4615,4.4615,4.4615,4.4615,4.4615,4.4615,4.4615,4.4615,4.4615,0.0,0.0,0.0,0.0,0.0,0.0,0.0,0.0,0.0,0.0,0.0,4.3658,0.0,0.0,4.4636,4.5224,4.6014,4.6709,4.7127,4.7926,4.8159,4.7308,4.7943,4.846,4.846,4.8781,4.9154,4.9526,4.9543,4.9712,5.0084,4.9746,4.9543,4.9543,4.9187,4.9001,4.9001,4.9001,4.9001,4.9001,4.9001,4.9001,4.9001,4.9001,4.9001,4.9001,4.9001,4.9001,4.8968,4.8612,4.824,4.7834,4.7107,4.6363,4.5669,4.528,4.4936,4.4615,4.4615,4.4615,4.4615,4.4615,4.4615,4.4615,4.4615,4.4615,4.4615,4.4615,4.4615,4.4615,4.4615,4.4615,4.4615,4.4615,4.4615,4.4615,4.4615,4.4615,4.4615,4.4615,4.4615,4.4615,4.4615,4.4615,4.4615,4.4615,4.4615,4.4615,4.4615,4.4615,4.4615,4.4615,4.4615,4.4615,4.4615,4.4615,4.4615,4.4615,4.4615,4.4615,4.4615,4.4615,4.4615,4.4615,4.4615,4.4615,4.4615,4.4615,4.4615,4.4615,4.4615,4.4615,0.0,0.0,0.0,0.0,0.0,0.0,0.0,0.0,4.3598,4.3598,4.3744,4.3933,4.4127,4.4786,4.5423,4.5812,4.6928,4.7831,4.8075,4.8646,4.8832,4.8392,4.8849,4.9221,4.9221,4.934,4.9678,5.027,5.0304,5.0574,5.1183,5.0642,5.0304,5.0304,4.9593,4.9221,4.9221,4.9069,4.9001,4.9001,4.9001,4.9001,4.9001,4.9001,4.9001,4.9001,4.9001,4.9001,4.9001,4.9001,4.9001,4.8951,4.8359,4.731,4.6126,4.5974,4.5449,4.479,4.479,4.4733,4.4615,4.4615,4.4615,4.4615,4.4615,4.4615,4.4615,4.4615,4.4615,4.4615,4.4615,4.4615,4.4615,4.4615,4.4615,4.4615,4.4615,4.4615,4.4615,4.4615,4.4615,4.4615,4.4615,4.4615,4.4615,4.4615,4.4615,4.4615,4.4615,4.4615,4.4615,4.4615,4.4615,4.4615,4.4615,4.4615,4.4615,4.4615,4.4615,4.4615,4.4615,4.4615,4.4615,4.4615,4.4615,4.4615,4.4615,4.4615,4.4615,4.4615,4.4615,4.4615,4.3598,4.3598,4.3598,4.3598,4.3598,4.3598,0.0,0.0,4.3598,4.3598,4.4261,4.4907,4.5039,4.5744,4.6615,4.7487,4.7787,4.8108,4.8798,4.8951,4.9221,4.9779,4.9915,4.9965,4.9965,5.0574,5.0997,5.1082,5.1099,5.1116,5.1185,5.1133,5.1099,5.1099,5.0355,4.9965,4.9965,4.9323,4.9001,4.9001,4.9001,4.9001,4.9001,4.9001,4.9001,4.9001,4.9001,4.9001,4.9001,4.9001,4.9001,4.9001,4.8917,4.8392,4.7551,4.6921,4.621,4.5585,4.5585,4.5145,4.4615,4.4615,4.4615,4.4615,4.4615,4.4615,4.4615,4.4615,4.4615,4.4615,4.4615,4.4615,4.4615,4.4615,4.4615,4.4615,4.4615,4.4615,4.4615,4.4615,4.4615,4.4615,4.4615,4.4615,4.4615,4.4615,4.4615,4.4615,4.4615,4.4615,4.4615,4.4615,4.4615,4.4615,4.4615,4.4615,4.4615,4.4615,4.4615,4.4615,4.4615,4.4615,4.4615,4.4615,4.4615,4.4615,4.4615,4.4615,4.4615,4.4615,4.4615,4.4615,4.3598,4.3598,4.3598,4.3598,4.3598,4.3598,4.3598,4.3598,4.3714,4.4158,4.4657,4.5187,4.5755,4.6576,4.7349,0.0,4.8244,4.8663,4.8968,4.9001,4.9272,4.9999,5.0473,5.0744,5.0744,5.1031,5.1403,5.1809,5.1843,5.2046,5.252,5.2097,5.1843,5.1843,5.1133,5.0541,5.0084,4.9779,4.9424,4.9001,4.9001,4.9001,4.9001,4.9001,4.9001,4.9001,4.9001,4.9001,4.9001,4.9001,4.9001,4.9001,4.9001,4.8815,4.846,4.7716,4.6701,4.5703,4.5703,4.5213,4.4615,4.4615,4.4615,4.4615,4.4615,4.4615,4.4615,4.4615,4.4615,4.4615,4.4615,4.4615,4.4615,4.4615,4.4615,4.4615,4.4615,4.4615,4.4615,4.4615,4.4615,4.4615,4.4615,4.4615,4.4615,4.4615,4.4615,4.4615,4.4615,4.4615,4.4615,4.4615,4.4615,4.4615,4.4615,4.4615,4.4615,4.4615,4.4615,4.4615,4.4615,4.4615,4.4615,4.4615,4.4615,4.4615,4.4615,4.4615,4.4615,4.4615,4.4615,4.4615,4.3598,4.3598,4.3598,4.3598,4.3598,4.3648,4.3876,4.388,4.4125,4.4915,4.5383,4.5882,4.6569,4.7426,4.8084,4.8193,4.8663,4.9001,4.9001,4.9187,4.9576,5.0321,5.1065,5.1606,5.1826,5.1843,5.2063,5.2587,5.2638,5.2892,5.3467,5.2959,5.2638,5.2638,5.1911,5.1251,5.071,5.0287,4.9813,4.9306,4.9103,4.9001,4.9001,4.9001,4.9001,4.9001,4.9001,4.9001,4.9001,4.9001,4.9001,4.9001,4.9001,4.9001,4.8934,4.8409,4.7411,4.6295,4.6075,4.5517,4.4886,4.4682,4.4615,4.4615,4.4615,4.4615,4.4615,4.4615,4.4615,4.4615,4.4615,4.4615,4.4615,4.4615,4.4615,4.4615,4.4615,4.4615,4.4615,4.4615,4.4615,4.4615,4.4615,4.4615,4.4615,4.4615,4.4615,4.4615,4.4615,4.4615,4.4615,4.4615,4.4615,4.4615,4.4615,4.4615,4.4615,4.4615,4.4615,4.4615,4.4615,4.4615,4.4615,4.4615,4.4615,4.4615,4.4615,4.4615,4.4615,4.4615,4.4615,4.4615,4.3598,4.3598,4.3598,4.3598,4.3598,4.378,4.4489,4.4655,4.4931,4.5865,4.6719,4.7376,4.7625,4.8385,4.8968,4.8968,4.8984,4.9001,4.9001,4.961,5.0338,5.1099,5.1826,5.257,0.0,5.3433,5.345,5.3467,5.3467,5.3467,5.3501,5.3484,5.3467,5.3467,5.2689,5.2266,5.2232,5.0811,5.0084,5.005,4.934,4.9001,4.9001,4.9001,4.9001,4.9001,4.9001,4.9001,4.9001,4.9001,4.9001,4.9001,4.9001,4.9001,4.9001,4.8984,4.8494,4.772,4.7005,4.6278,4.5551,4.4852,4.4615,4.4615,4.4615,4.4615,4.4615,4.4615,4.4615,4.4615,4.4615,4.4615,4.4615,4.4615,4.4615,4.4615,4.4615,4.4615,4.4615,4.4615,4.4615,4.4615,4.4615,4.4615,4.4615,4.4615,4.4615,4.4615,4.4615,4.4615,4.4615,4.4615,4.4615,4.4615,4.4615,4.4615,4.4615,4.4615,4.4615,4.4615,4.4615,4.4615,4.4615,4.4615,4.4615,4.4615,4.4615,4.4615,4.4615,4.4615,4.4615,4.4615,4.3598,4.3598,4.3714,4.4208,4.4324,4.4553,4.5421,4.5635,4.5865,4.677,4.7306,4.7779,4.8346,4.874,4.9001,4.9001,4.9001,4.9001,4.9001,4.9221,4.983,5.1065,5.1437,0.0,0.0,0.0,0.0,5.3501,5.3501,5.3501,5.3501,5.3501,5.3501,5.3501,5.3247,5.2841,5.2317,5.1319,5.0591,5.0084,4.9357,4.9001,4.9001,4.9001,4.9001,4.9001,4.9001,4.9001,4.9001,4.9001,4.9001,4.9001,4.9001,4.9001,4.9001,4.9001,4.8849,4.846,4.7225,4.6312,4.5585,4.4852,4.4615,4.4615,4.4615,4.4615,4.4615,4.4615,4.4615,4.4615,4.4615,4.4824,4.5045,4.5045,4.5337,4.5606,4.5606,4.5606,4.5606,4.5606,4.5606,4.5606,4.5606,4.5311,4.4971,4.4654,4.4615,4.4615,4.4615,4.4615,4.4615,4.4615,4.4615,4.4615,4.4615,4.4615,4.4615,4.4615,4.4615,4.4615,4.4615,4.4615,4.4615,4.4615,4.4615,4.4615,4.4615,4.4615,4.4615,4.4615,4.4615,4.4615,4.3913,4.3992,4.4175,4.4903,4.5086,4.5346,4.6265,4.651,4.6772,4.7725,4.8001,4.8259,4.8779,4.8956,4.9001,4.9001,4.9001,4.9001,4.9001,4.9221,4.9847,5.1065,5.1454,5.2114,0.0,0.0,0.0,5.3501,5.3501,5.3501,5.3501,5.3501,5.3501,5.3501,5.3501,5.3264,5.2739,5.1725,5.071,4.9695,4.9221,4.9001,4.9001,4.9001,4.9001,4.9001,4.9001,4.9001,4.9001,4.9001,4.9001,4.9001,4.9001,4.9001,4.9001,4.9001,4.9001,4.8832,4.7614,4.6718,4.5974,4.5213,4.479,4.4615,4.4615,4.472,4.4852,4.4852,4.4988,4.5133,4.5133,4.5346,4.5588,4.5588,4.585,4.6098,4.6098,4.6098,4.6098,4.6098,4.6098,4.6098,4.6098,4.58,4.5485,4.5169,4.5133,4.5015,4.4654,4.4615,4.4615,4.4615,4.4615,4.4615,4.4615,4.4615,4.4615,4.4615,4.4615,4.4615,4.4615,4.4615,4.4615,4.4615,4.4615,4.4615,4.4615,4.4615,4.4615,4.4615,4.4615,4.4615,4.4489,4.4688,4.487,4.5649,4.5847,4.6109,4.703,4.7276,4.7571,4.8604,4.8818,4.8832,0.0,0.0,4.9001,4.9001,4.9001,4.9001,4.9001,4.9593,5.0321,0.0,0.0,0.0,0.0,0.0,0.0,5.3501,0.0,5.3501,5.3501,5.3501,5.3501,5.3501,5.3501,5.3501,5.3501,5.1978,5.0473,4.9001,4.9001,4.9001,4.9001,4.9001,4.9001,4.9001,4.9001,4.9001,4.9001,4.9001,4.9001,4.9001,4.9001,4.9001,4.9001,4.9001,4.9001,4.89,4.8206,4.7479,4.6718,4.5957,4.5258,4.4677,4.4643,4.4971,4.5329,4.5329,4.5716,4.6098,4.6098,4.6123,4.6123,4.6123,4.6165,4.6189,4.6189,4.6189,4.6189,4.6189,4.6189,4.6172,4.6165,4.6147,4.6147,4.6098,4.6123,4.5792,4.4786,4.4682,4.4682,4.4682,4.4654,4.4626,4.4626,4.4598,4.4615,4.4615,4.4615,4.4615,4.4615,4.4615,4.4615,4.4615,4.4615,4.4615,4.4615,4.4615,4.4615,4.4615,4.4615,4.4615,4.4489,4.4688,4.5003,4.6295,4.6721,4.7078,4.7953,4.8295,4.8488,4.8875,4.8956,4.894,0.0,0.0,0.0,4.9001,4.9001,0.0,4.9001,4.9171,0.0,5.1065,0.0,5.2029,5.3382,5.3501,0.0,0.0,5.3501,5.3501,5.3501,5.3501,5.3501,5.3501,5.3501,5.3501,5.3501,5.1978,5.0473,4.9001,4.9001,4.9001,4.9001,4.9001,4.9001,4.9001,4.9001,4.9001,4.9001,4.9001,4.9001,4.9001,4.9001,4.9001,4.9001,4.9001,4.9001,4.8984,4.8781,4.824,4.7428,4.6126,4.5835,4.5887,4.5314,4.5485,4.5918,4.5918,4.6,4.6098,4.6098,4.6406,4.6707,4.6707,4.6999,4.728,4.728,4.728,4.728,4.728,4.728,4.7169,4.6753,4.7039,4.7017,4.6238,4.643,4.6454,4.5792,4.5734,4.5734,4.5734,4.5346,4.5125,4.5125,4.4814,4.4615,4.4615,4.4615,4.4615,4.4615,4.4615,4.4615,4.4615,4.4615,4.4615,4.4615,4.4615,4.4615,4.4615,4.4615,4.4615,4.497,4.5417,4.593,4.709,4.7452,4.7729,4.8351,4.8595,4.8721,4.894,4.9001,4.9001,4.9001,4.9001,4.9001,0.0,0.0,0.0,4.9001,4.9001,4.9441,0.0,5.1014,0.0,5.2858,5.3298,5.3501,0.0,5.3501,5.3501,5.3501,5.3501,5.3501,5.3501,5.3501,5.3179,5.2503,5.164,5.0473,4.9001,4.9001,4.9001,4.9001,4.9001,4.9001,4.9001,0.0,4.9001,4.9001,4.9001,4.9168,4.9364,4.9107,4.9316,4.9698,4.9182,4.9316,4.971,4.9466,4.9282,4.8902,4.7512,4.698,4.6778,4.6308,4.6305,4.6454,4.6454,4.6637,4.6799,4.6799,4.729,4.7779,4.7779,4.8283,4.8749,4.8749,4.8749,4.8749,4.8749,4.8749,4.8645,4.8367,4.854,4.854,4.7966,4.8105,4.8191,4.7902,4.683,4.6098,4.6098,4.5825,4.5648,4.5648,4.5416,4.5249,4.5249,4.5249,4.5142,4.4934,4.4906,4.4814,4.4598,4.4615,4.4615,4.4615,4.4615,4.4615,4.4615,4.4615,4.4615,4.5566,4.6262,4.6941,4.7785,4.8001,4.8115,4.842,4.8515,4.861,4.894,4.9001,4.9001,4.9001,4.9001,4.9001,4.9001,0.0,4.9001,4.9001,4.9001,4.9272,4.9999,5.076,5.1505,5.2232,5.3027,5.3501,5.3501,5.3501,5.3501,5.3501,5.3501,5.3501,5.3501,5.3501,5.2773,5.1202,5.1185,5.0473,4.9001,4.9001,4.9001,4.9001,4.9001,4.9001,4.9001,0.0,0.0,4.9001,4.9001,4.9303,4.9715,4.9199,4.961,5.0369,4.9449,4.9756,5.0552,5.0142,5.0377,5.0601,4.9313,4.8355,4.7681,4.7618,4.7447,4.7321,4.7321,4.7647,4.8025,4.8025,4.855,4.9075,4.9075,4.9582,5.0112,5.0112,5.0112,5.0112,5.0112,5.0112,5.0112,5.0112,5.0112,5.0112,5.0112,5.0112,5.0112,5.0112,4.7979,4.6469,4.6469,4.6315,4.6213,4.6213,4.6123,4.6098,4.6098,4.6098,4.5875,4.5433,4.5329,4.5098,4.4692,4.4626,4.4615,4.4615,4.4615,4.4615,4.4615,4.4615,4.4615,4.5433,4.5881,4.6311,4.7669,4.8082,4.8227,4.8452,4.8627,0.0,4.897,4.9001,4.9001,4.9001,4.9001,4.9001,4.9001,4.9001,4.9001,4.9001,4.9001,4.9272,0.0,5.076,5.1505,5.2232,0.0,0.0,0.0,0.0,5.3501,5.3501,5.3501,5.3501,5.3501,5.3501,5.2773,5.1202,5.1185,5.0473,4.9001,4.9001,4.9001,4.9001,4.9001,4.9001,4.9001,0.0,0.0,4.9001,4.9001,4.9063,4.9138,4.9032,4.9107,4.9316,4.9627,4.989,5.0085,5.0442,5.0955,5.1231,4.9873,4.9633,4.9742,4.9132,4.9236,4.9545,4.9545,4.9611,4.9695,4.9695,4.9782,4.9872,4.9872,4.9981,5.0112,5.0112,5.0112,5.0112,5.0112,5.0112,5.0112,5.0112,5.0112,5.0112,5.0112,5.0112,5.0112,5.0112,4.9125,4.8397,4.8397,4.7415,4.6753,4.6753,4.6358,4.6098,4.6098,4.6098,4.6049,4.5968,4.5537,4.5267,4.5188,4.4786,4.4615,4.4615,4.4615,4.4615,4.4615,4.4615,4.4615,4.55,4.6079,4.6626,4.7736,4.8066,4.8147,4.8292,4.85,0.0,4.831,4.8365,4.8443,4.8443,4.8443,4.8562,4.8951,4.9001,4.9001,4.9001,4.9001,4.9137,4.9492,5.0185,5.093,0.0,0.0,0.0,0.0,0.0,5.3501,5.3501,5.3501,5.3501,5.3501,5.3501,5.2773,5.1202,5.1185,5.0473,4.9001,4.9001,4.9001,4.9001,4.9001,4.9001,4.9001,4.9001,0.0,4.9001,4.9001,4.9199,4.9453,4.9107,4.9538,5.031,5.0017,5.0477,5.1244,5.1183,5.1576,5.1952,5.1339,5.1,5.0813,5.0458,5.024,5.0112,5.0112,5.0112,5.0112,5.0112,5.042,5.0728,5.0728,5.1031,5.1339,5.1339,5.1339,5.1339,5.1339,5.1339,5.1339,5.1339,5.1339,5.1339,5.1339,5.1339,5.1339,5.1339,5.0651,4.9999,4.9564,4.8951,4.8565,4.8565,4.7966,4.7556,4.7556,4.7163,4.6817,4.6525,4.6286,4.6,4.5724,4.5232,4.4971,4.4971,4.472,4.4615,4.4615,4.4615,4.4615,4.5351,4.598,4.6643,4.7537,4.7769,4.7835,4.8129,4.8207,4.8098,4.7681,4.7615,4.7656,4.7855,4.7889,4.8125,0.0,4.9001,4.9001,4.9001,4.9001,4.9001,0.0,4.9644,0.0,5.115,0.0,0.0,0.0,0.0,0.0,5.3501,5.3501,5.3501,5.3501,5.3331,5.2604,5.1202,5.1048,5.0304,4.9001,4.9001,4.9001,4.9001,4.9001,4.9001,4.9001,4.9001,0.0,0.0,4.9001,4.9273,4.9674,4.9199,4.9902,5.1148,5.0366,5.1017,5.2275,5.1909,5.2096,5.2498,5.2498,5.2063,5.1556,5.1556,5.1126,5.0619,5.0619,5.0619,5.0619,5.0619,5.1067,5.1556,5.1556,5.2027,5.2498,5.2498,5.2498,5.2498,5.2498,5.2498,5.2498,5.2498,5.2498,5.2498,5.2498,5.2498,5.2498,5.2498,5.1937,5.1303,5.0691,5.0311,5.0112,5.0112,4.9528,4.9166,4.9166,4.8405,4.7764,4.7335,4.7043,4.6707,4.6286,4.5622,4.5303,4.5303,4.4841,4.4615,4.4615,4.4615,4.4615,4.4589,4.4837,4.5235,4.6643,4.699,4.7205,4.8013,4.7744,4.7371,4.755,4.7087,4.6894,4.7723,4.7889,4.8125,0.0,0.0,4.9001,4.9001,4.9001,4.9001,4.9001,0.0,0.0,5.115,0.0,0.0,0.0,0.0,0.0,0.0,5.3501,5.3501,5.3501,5.279,5.2029,5.1217,5.0541,4.9796,4.9001,4.9001,4.9001,4.9001,4.9001,4.9001,4.9001,0.0,0.0,0.0,4.9001,4.9032,4.9094,4.9032,4.9436,5.0102,5.0497,5.1061,5.1743,5.2251,5.2457,5.2498,5.2498,5.2444,5.2389,5.2389,5.2335,5.2281,5.2281,5.2281,5.2281,5.2281,5.2317,5.2389,5.2389,5.2444,5.2498,5.2498,5.2498,5.2498,5.2498,5.2498,5.2498,5.2498,5.2498,5.2498,5.2498,5.2498,5.2498,5.2498,5.2426,5.2353,5.2281,5.0981,5.0112,5.0112,5.0039,5.0003,5.0003,4.9238,4.8761,4.8739,4.7546,4.6886,4.684,4.5825,4.5303,4.5303,4.4841,4.4615,4.4615,4.4615,4.4615,4.4489,4.4688,4.4937,4.5963,4.6228,4.6343,4.6688,4.6649,4.6488,4.6203,4.6001,4.6001,4.6486,4.6955,4.7479,4.824,0.0,0.0,4.9001,4.9001,4.9001,4.9001,4.9255,0.0,0.0,0.0,0.0,0.0,0.0,0.0,0.0,5.3501,5.3501,5.3501,5.2723,5.1961,5.1217,5.0473,4.9729,4.9001,4.9001,4.9001,4.9001,4.9001,4.9001,4.9001,0.0,0.0,0.0,4.9001,4.9001,4.9001,4.9001,4.9568,5.0415,5.0616,5.1312,5.2162,5.241,5.2498,5.2498,5.2498,5.2498,5.2498,5.2498,5.2498,5.2498,5.2498,5.2498,5.2498,5.2498,5.2498,5.2498,5.2498,5.2498,5.2498,5.2498,5.2498,5.2498,5.2498,5.2498,5.2498,5.2498,5.2498,5.2498,5.2498,5.2498,5.2498,5.2498,5.2498,5.2498,5.2498,5.1919,5.1538,5.1538,5.1086,5.0836,5.0836,5.0071,4.9619,4.9619,4.9099,4.8614,4.8105,4.737,4.6597,4.5775,4.5267,4.4879,4.4615,4.4615,4.4615,4.4241,4.4373,4.4539,4.5284,4.5467,4.5516,4.5748,4.5725,4.5596,4.526,4.5106,4.5151,4.5624,4.6295,4.7039,4.78,0.0,4.9001,4.9001,4.9001,4.9001,0.0,0.0,0.0,0.0,0.0,0.0,0.0,0.0,0.0,0.0,5.3501,5.3501,5.3501,5.252,5.1742,5.1217,5.0253,4.9509,4.9001,4.9001,4.9001,4.9001,4.9001,4.9001,4.9001,0.0,0.0,0.0,4.9001,4.9001,4.9032,4.9199,4.9855,5.0724,5.0885,5.1626,5.2498,5.2498,5.2498,5.2498,5.2498,5.2498,5.2498,5.2498,5.2498,5.2498,5.2498,5.2498,5.2498,5.2498,5.2498,5.2498,5.2498,5.2498,5.2498,5.2498,5.2498,5.2498,5.2498,5.2498,5.2498,5.2498,5.2498,5.2498,5.2498,5.2498,5.2498,5.2498,5.2526,5.2531,5.2531,5.2572,5.2549,5.2521,5.1973,5.1647,5.1647,5.0909,5.0456,5.0456,5.0238,4.9818,4.9275,4.8716,4.7998,4.7119,4.6531,4.5992,4.5544,4.5488,4.5394,4.3615,4.3615,4.378,4.4522,4.4705,4.4887,4.5616,4.5235,4.4796,4.513,4.4633,4.4435,4.551,4.6295,4.7039,4.78,4.8528,0.0,4.9001,4.9001,4.9001,0.0,0.0,0.0,0.0,0.0,0.0,0.0,0.0,0.0,0.0,5.3501,5.3501,5.3501,5.2029,5.1217,5.1185,4.9746,4.9018,4.9001,4.9001,4.9001,4.9001,4.9001,4.9001,0.0,0.0,0.0,0.0,4.9001,4.9001,4.9063,4.9674,5.0209,5.0778,5.1381,5.1975,5.2498,5.2498,5.2498,5.2498,5.2498,5.2498,5.2498,5.2498,5.2498,5.2498,5.2498,5.2498,5.2498,5.2498,5.2498,5.2498,5.2498,5.2498,5.2498,5.2498,5.2498,5.2498,5.2498,5.2498,5.2498,5.2498,5.2498,5.2498,5.2498,5.2498,5.2498,5.2498,5.2559,5.259,5.259,5.2717,5.2712,5.2521,5.248,5.248,5.248,5.1719,5.1285,5.1285,5.0506,5.0112,5.0093,4.957,4.9365,4.9441,4.8795,4.8216,4.7773,4.7637,4.7272,4.3598,4.3598,4.3648,4.388,4.3959,4.4026,4.4227,4.4231,4.4231,4.439,4.4351,4.4394,4.4863,4.5551,4.6295,4.7022,4.7784,0.0,0.0,0.0,0.0,4.9001,4.9441,0.0,0.0,0.0,0.0,0.0,0.0,0.0,0.0,5.2993,5.2689,5.2689,5.1725,5.098,5.0439,4.9492,4.9001,4.9001,4.9001,4.9001,4.9001,4.9001,0.0,0.0,0.0,0.0,0.0,4.9001,4.9001,4.9063,4.9656,5.0237,5.0778,5.1381,5.1975,5.2498,5.2498,5.2498,5.2498,5.2498,5.2498,5.2498,5.2498,5.2498,5.2498,5.2498,5.2498,5.2498,5.2498,5.2498,5.2498,5.2498,5.2498,5.2498,5.2498,5.2498,5.2498,5.2498,5.2498,5.2503,5.2559,5.2581,5.2604,5.269,5.2712,5.2712,5.2712,5.2717,5.2739,5.2739,5.2783,5.2761,5.2712,5.2712,5.2712,5.2712,5.2476,5.233,5.233,5.2076,5.1693,5.1129,5.0961,5.0453,4.9639,4.9435,4.887,4.7996,4.796,4.7669,4.3598,4.3598,4.3598,4.3598,4.3598,4.3598,4.3598,4.3763,4.3956,4.4068,4.4212,4.4367,4.457,4.5415,4.6261,4.6718,4.7648,4.8494,0.0,0.0,0.0,4.9001,0.0,0.0,0.0,0.0,0.0,0.0,0.0,0.0,0.0,0.0,5.2046,5.1488,5.1031,5.0557,5.0084,4.9373,4.9001,4.9001,4.9001,4.9001,4.9001,4.9001,0.0,0.0,0.0,0.0,0.0,4.9001,4.9001,4.9077,4.9902,5.0415,5.0805,5.1626,5.2162,5.2498,5.2498,5.2498,5.2498,5.2498,5.2498,5.2498,5.2498,5.2498,5.2498,5.2498,5.2498,5.2498,5.2498,5.2498,5.2498,5.2498,5.2498,5.2498,5.2498,5.2526,5.2531,5.2531,5.2595,5.2622,5.2654,5.2676,5.2698,5.2783,5.2806,5.2806,5.2806,5.2828,5.289,5.289,5.2912,5.2955,5.2955,5.2868,5.2806,5.2806,5.2806,5.2806,5.2806,5.2806,5.2568,5.2058,5.2058,5.1693,5.0927,5.071,5.0247,4.9552,4.9135,4.8692,0.0,4.3598,4.3598,4.3598,4.3598,4.3598,4.3628,4.3763,0.0,4.4085,4.4224,4.4367,4.457,4.5754,4.6735,4.6786,4.7986,4.8951,0.0,4.9001,0.0,0.0,0.0,0.0,0.0,0.0,0.0,0.0,0.0,0.0,0.0,0.0,5.1522,5.0135,5.0033,5.0016,5.0016,4.934,4.9001,4.9001,4.9001,4.9001,4.9001,4.9001,0.0,0.0,0.0,0.0,0.0,4.9001,4.9001,4.9107,5.022,5.067,5.0832,5.2024,5.2457,5.2498,5.2498,5.2498,5.2498,5.2498,5.2498,5.2498,5.2498,5.2498,5.2498,5.2498,5.2498,5.2498,5.2498,5.2498,5.2498,5.2498,5.2498,5.2498,5.2498,5.2536,5.259,5.259,5.2698,5.2806,5.2806,5.2806,5.2806,5.2846,5.2846,5.2846,5.2846,5.2934,5.302,5.302,5.3143,5.3185,5.3185,5.2955,5.2846,5.2846,5.2846,5.2846,5.2846,5.2846,5.2846,5.2846,5.2846,5.289,5.302,5.2445,5.2125,5.1988,5.0929,5.0304,4.3598,0.0,4.3598,4.3598,4.3598,4.3628,0.0,4.3939,4.4097,4.4224,4.4412,4.4542,4.4598,4.5331,4.6143,4.6701,4.7564,4.8376,4.8934,0.0,0.0,0.0,0.0,0.0,0.0,0.0,0.0,0.0,0.0,0.0,0.0,0.0,5.0456,5.0101,4.9543,4.9255,4.9255,4.9086,4.9001,4.9001,4.9001,4.9001,4.9001,4.9001,0.0,0.0,0.0,0.0,4.9001,4.9001,4.9001,4.9077,4.9786,5.0331,5.0805,5.1551,5.2096,5.2498,5.2498,5.2498,5.2498,5.2498,5.2498,5.2498,5.2498,5.2498,5.2498,5.2498,5.2498,5.2498,5.2498,5.2498,5.2498,5.2498,5.2498,5.2498,5.2498,5.2536,5.259,5.259,5.2698,5.2828,5.2934,5.2955,5.2977,5.3082,5.3121,5.3121,5.3121,5.3124,5.3146,5.3146,5.3185,5.3185,5.3185,5.3143,5.3121,5.3121,5.3121,5.3121,5.3121,5.3121,5.3121,5.3121,5.3121,5.3103,5.3146,5.302,5.2676,5.2155,5.1879,5.1465,4.3598,4.3598,4.3598,4.3598,4.3598,4.3658,4.3868,4.3998,4.4155,4.4281,4.4468,4.4716,4.5026,4.5703,4.6447,4.7192,4.7936,0.0,0.0,0.0,0.0,0.0,0.0,0.0,0.0,0.0,0.0,0.0,0.0,0.0,0.0,0.0,4.9932,4.961,4.9204,4.9001,4.9001,4.9001,4.9001,4.9001,4.9001,4.9001,4.9001,4.9001,0.0,0.0,0.0,0.0,4.9001,4.9001,4.9001,4.9063,4.9656,5.0237,5.0778,5.1381,5.1975,5.2498,5.2498,5.2498,5.2498,5.2498,5.2498,5.2498,5.2498,5.2498,5.2498,5.2498,5.2498,5.2498,5.2498,5.2498,5.2498,5.2498,5.2498,5.2521,5.2531,5.2627,5.2698,5.2765,5.2893,5.3017,5.3082,5.3082,5.3103,5.3185,5.3185,5.3185,5.3185,5.3185,5.3185,5.3185,5.3185,5.3185,5.3185,5.3185,5.3185,5.3185,5.3185,5.3185,5.3185,5.3185,5.3185,5.3185,5.3185,5.3185,5.3185,5.3185,5.2977,5.2568,5.232,5.1946,4.3598,4.3598,4.3598,4.3598,4.3628,4.3704,4.3898,4.4027,4.4184,4.431,4.4468,4.4835,4.5568,4.6295,0.0,0.0,0.0,0.0,4.9001,4.9001,0.0,0.0,0.0,0.0,0.0,0.0,0.0,0.0,0.0,0.0,0.0,0.0,0.0,4.9018,4.9001,4.9001,4.9001,4.9001,4.9001,4.9001,4.9001,4.9001,4.9001,4.9001,0.0,0.0,0.0,0.0,4.9001,4.9001,4.9001,4.9063,4.9555,5.0113,5.0643,5.1235,5.1842,5.2387,5.2475,5.2498,5.2498,5.2498,5.2498,5.2498,5.2498,5.2498,5.2498,5.2498,5.2498,5.2498,5.2498,5.2498,5.2498,5.2498,5.2521,5.2531,5.2586,5.2721,5.285,5.2977,5.3103,5.3185,5.3185,5.3185,5.3185,5.3185,5.3185,5.3185,5.3164,5.3185,5.3185,5.3185,5.3185,5.3185,5.3185,5.3185,5.3185,5.3185,5.3185,5.3185,5.3185,5.3185,5.3185,5.3185,5.3185,5.3185,5.3185,5.3185,5.3124,5.2955,5.2499,5.2137,4.3598,4.3598,4.3598,4.3598,4.3734,4.3881,4.4056,4.4167,4.431,4.4514,4.457,4.4835,4.5568,4.6295,4.7039,0.0,0.0,4.9001,0.0,0.0,0.0,0.0,0.0,0.0,0.0,0.0,0.0,0.0,0.0,0.0,0.0,0.0,0.0,4.9001,4.9001,4.9001,4.9001,4.9001,4.9001,4.9001,4.9001,4.9001,4.9001,4.9001,4.9001,0.0,0.0,4.9001,4.9001,4.9001,4.9001,4.9001,4.9077,4.9496,5.0085,5.0634,5.1235,5.1811,5.2322,5.2498,5.2498,5.2498,5.2498,5.2498,5.2498,5.2498,5.2498,5.2498,5.2498,5.2498,5.2498,5.2498,5.2498,5.2498,5.2554,5.2586,5.259,5.2787,5.2977,5.2999,5.3103,5.3185,5.3185,5.3185,5.3164,5.3042,5.3143,5.3164,5.306,5.3124,5.3185,5.3185,5.3185,5.3185,5.3185,5.3185,5.3185,5.3185,5.3185,5.3185,5.3185,5.3185,5.3185,5.3185,5.3185,5.3185,5.3185,5.3185,5.306,5.2828,5.2761,5.2581,4.3598,4.3598,4.3628,4.3734,4.3822,4.3939,4.4155,4.4253,4.4367,4.4542,4.4936,4.5415,4.616,0.0,4.7648,4.8376,0.0,0.0,0.0,0.0,0.0,0.0,0.0,0.0,0.0,0.0,0.0,0.0,0.0,0.0,0.0,0.0,0.0,0.0,4.9001,4.9001,4.9001,4.9001,4.9001,4.9001,4.9001,4.9001,4.9001,4.9001,4.9001,4.9001,0.0,4.9001,4.9001,4.9001,4.9001,4.9001,4.9001,4.9364,4.9988,5.0867,5.1576,5.2138,5.241,5.2498,5.2498,5.2498,5.2498,5.2498,5.2498,5.2498,5.2498,5.2498,5.2498,5.2498,5.2498,5.2498,5.2498,5.2498,5.2526,5.2577,5.2676,5.2806,5.2915,5.3082,5.3164,5.3185,5.3185,5.3185,5.3185,5.3103,5.3164,5.3185,5.3103,5.3164,5.3185,5.3185,5.3185,5.3185,5.3185,5.3185,5.3185,5.3185,5.3185,5.3185,5.3185,5.3185,5.3185,5.3185,5.3185,5.3185,5.3185,5.3185,5.3103,5.2912,5.2828,5.2717,4.3598,4.3628,4.3717,4.3881,4.3956,4.3998,4.4253,4.4338,4.4462,4.4807,4.5314,4.5991,4.6887,4.7665,0.0,4.8917,4.9001,0.0,0.0,0.0,0.0,0.0,0.0,0.0,0.0,0.0,0.0,0.0,0.0,0.0,0.0,0.0,0.0,0.0,4.9001,4.9001,4.9001,4.9001,4.9001,4.9001,4.9001,4.9001,4.9001,4.9001,4.9001,4.9001,4.9001,4.9001,4.9001,4.9001,4.9001,4.9001,4.9001,4.9364,5.0017,5.1026,5.1768,5.2298,5.2434,5.2498,5.2498,5.2498,5.2498,5.2498,5.2498,5.2498,5.2498,5.2498,5.2498,5.2498,5.2498,5.2498,5.2498,5.2526,5.2549,5.2618,5.2824,5.2868,5.2955,5.3164,5.3185,5.3185,5.3185,5.3185,5.3185,5.3164,5.3185,5.3185,5.3164,5.3185,5.3185,5.3185,5.3185,5.3185,5.3185,5.3185,5.3185,5.3185,5.3185,5.3185,5.3185,5.3185,5.3185,5.3185,5.3185,5.3185,5.3185,5.3185,5.3124,5.2999,5.2893,5.2761,4.3598,4.3734,4.391,4.4056,4.4085,4.4126,4.4281,4.444,4.4773,4.5483,4.5669,4.6143,4.7551,4.8426,4.8951,4.9001,0.0,0.0,0.0,0.0,0.0,0.0,0.0,0.0,0.0,0.0,0.0,0.0,0.0,0.0,0.0,0.0,0.0,0.0,0.0,4.9001,4.9001,4.9001,4.9001,4.9001,4.9001,4.9001,4.9001,4.9001,4.9001,4.9001,4.9001,4.9001,4.9001,4.9001,4.9001,4.9001,4.9001,4.9364,4.9959,5.0552,5.1157,5.1743,5.2298,5.2498,5.2498,5.2498,5.2498,5.2498,5.2498,5.2498,5.2498,5.2498,5.2498,5.2498,5.2498,5.2498,5.2503,5.2586,5.2694,5.2824,5.2955,5.3082,5.3185,5.3185,5.3185,5.3185,5.3185,5.3185,5.3164,5.302,5.3124,5.3164,5.302,5.3124,5.3185,5.3185,5.3185,5.3185,5.3185,5.3185,5.3185,5.3185,5.3185,5.3185,5.3185,5.3185,5.3185,5.3185,5.3185,5.3185,5.3185,5.3185,5.3124,5.2999,5.2999,5.285,4.3598,4.3763,4.3927,4.4085,4.4167,4.4253,4.444,4.4542,4.4818,4.5551,4.6058,4.6836,0.0,0.0,4.9001,4.9001,0.0,0.0,0.0,0.0,0.0,0.0,0.0,0.0,0.0,0.0,0.0,0.0,0.0,0.0,0.0,0.0,0.0,0.0,0.0,4.9001,4.9001,4.9001,4.9001,4.9001,4.9001,4.9001,4.9001,4.9001,4.9001,4.9001,4.9001,4.9001,4.9001,4.9001,4.9001,4.9001,4.9001,4.9364,4.9902,5.0142,5.0786,5.1626,5.186,5.2186,5.2498,5.2498,5.2498,5.2498,5.2498,5.2498,5.2498,5.2498,5.2498,5.2498,5.2498,5.2531,5.2581,5.259,5.2698,5.2846,5.2977,5.3042,5.3103,5.3185,5.3185,5.3185,5.3185,5.3185,5.3185,5.3124,5.3164,5.3185,5.3124,5.3164,5.3185,5.3185,5.3185,5.3185,5.3185,5.3185,5.3185,5.3185,5.3185,5.3185,5.3185,5.3185,5.3185,5.3185,5.3185,5.3185,5.3185,5.3185,5.3185,5.3124,5.3042,5.2893,4.3674,4.3822,4.3998,4.4126,4.4281,4.444,4.457,4.4784,4.5145,4.5906,4.6819,4.78,4.8815,0.0,0.0,0.0,0.0,0.0,0.0,0.0,0.0,0.0,0.0,0.0,0.0,0.0,0.0,0.0,0.0,0.0,0.0,0.0,0.0,0.0,0.0,4.9001,4.9001,4.9001,4.9001,4.9001,4.9001,4.9001,4.9001,4.9001,4.9001,4.9001,4.9001,4.9001,4.9001,4.9001,4.9001,4.9001,4.9001,4.926,4.9644,4.9832,5.0394,5.1122,5.1475,5.186,5.2251,5.2434,5.2498,5.2498,5.2498,5.2498,5.2498,5.2498,5.2503,5.2531,5.2531,5.2581,5.2613,5.2721,5.2806,5.2912,5.302,5.3063,5.3082,5.3185,5.3185,5.3185,5.3185,5.3185,5.3185,5.3185,5.3185,5.3185,5.3185,5.3185,5.3185,5.3185,5.3185,5.3185,5.3185,5.3185,5.3185,5.3185,5.3185,5.3185,5.3185,5.3185,5.3185,5.3185,5.3185,5.3185,5.3185,5.3185,5.3185,5.3185,5.3103,5.2999,4.3868,4.3998,4.4126,4.4281,4.444,4.4615,4.4615,4.5162,4.5923,4.665,4.7986,4.9001,4.9001,4.9001,0.0,0.0,0.0,0.0,0.0,0.0,0.0,0.0,0.0,0.0,0.0,0.0,0.0,0.0,0.0,0.0,0.0,0.0,0.0,0.0,0.0,0.0,4.9001,4.9001,4.9001,4.9001,4.9001,4.9001,4.9001,4.9001,4.9001,4.9001,4.9001,4.9001,4.9001,4.9001,4.9001,4.9001,4.9001,4.9001,4.9063,4.9674,4.989,5.0045,5.1174,5.1576,5.1694,5.2298,5.2498,5.2498,5.2498,5.2498,5.2498,5.2498,5.2554,5.259,5.259,5.259,5.2676,5.2937,5.2999,5.3042,5.3164,5.3185,5.3185,5.3185,5.3185,5.3185,5.3185,5.3185,5.3185,5.3185,5.3185,5.3185,5.3185,5.3185,5.3185,5.3185,5.3185,5.3185,5.3185,5.3185,5.3185,5.3185,5.3185,5.3185,5.3185,5.3185,5.3185,5.3185,5.3185,5.3185,5.3185,5.3185,5.3185,5.3185,5.3185,5.3143,4.3868,4.3998,4.4126,4.4281,4.444,4.4615,4.4615,4.5162,4.6075,4.7327,4.8342,4.9001,4.9001,0.0,0.0,0.0,0.0,0.0,0.0,0.0,0.0,0.0,0.0,0.0,0.0,0.0,0.0,0.0,0.0,0.0,0.0,0.0,0.0,0.0,0.0,0.0,4.9001,4.9001,4.9001,4.9001,4.9001,4.9001,4.9001,4.9001,4.9001,4.9001,4.9001,4.9001,4.9001,4.9001,4.9001,4.9001,4.9001,4.9001,4.9032,4.9199,4.9526,4.9948,5.03,5.0938,5.1644,5.1811,5.2162,5.2498,5.2498,5.2498,5.2498,5.2498,5.2503,5.2554,5.2694,5.2739,5.2783,5.2955,5.3082,5.3164,5.3185,5.3185,5.3185,5.3185,5.3185,5.3185,5.3185,5.3185,5.3185,5.3185,5.3185,5.3185,5.3185,5.3185,5.3185,5.3185,5.3185,5.3185,5.3185,5.3185,5.3185,5.3185,5.3185,5.3185,5.3185,5.3185,5.3185,5.3185,5.3185,5.3185,5.3185,5.3185,5.3185,5.3185,5.3185,5.3082,4.391,4.4056,4.4155,4.4384,4.4514,4.475,4.5359,4.5821,4.6566,4.8037,4.8697,4.9001,4.9001,4.9001,0.0,0.0,0.0,0.0,0.0,0.0,0.0,0.0,0.0,0.0,0.0,0.0,0.0,0.0,0.0,0.0,0.0,0.0,0.0,0.0,0.0,0.0,4.9001,4.9001,4.9001,4.9001,4.9001,4.9001,4.9001,4.9001,4.9001,4.9001,4.9001,4.9001,4.9001,4.9001,4.9001,4.9001,4.9001,4.9001,4.9001,4.9001,4.9229,4.9585,4.9803,5.0338,5.0991,5.1449,5.186,5.2186,5.241,5.2526,5.2531,5.2531,5.2618,5.2731,5.2846,5.2912,5.2977,5.306,5.3143,5.3185,5.3185,5.3185,5.3185,5.3185,5.3185,5.3185,5.3185,5.3185,5.3185,5.3185,5.3185,5.3185,5.3185,5.3185,5.3185,5.3185,5.3185,5.3185,5.3185,5.3185,5.3185,5.3185,5.3185,5.3185,5.3185,5.3185,5.3185,5.3185,5.3185,5.3185,5.3185,5.3185,5.3185,5.3185,5.3185,5.3103,4.401,4.4097,4.4184,4.4514,4.4615,4.5004,4.6447,4.6786,4.7208,4.8697,0.0,4.9001,4.9001,0.0,0.0,0.0,0.0,0.0,0.0,0.0,0.0,0.0,0.0,0.0,0.0,0.0,0.0,0.0,0.0,0.0,0.0,0.0,0.0,0.0,0.0,0.0,4.9001,4.9001,4.9001,0.0,4.9001,4.9001,4.9001,4.9001,4.9001,4.9001,4.9001,4.9001,4.9001,4.9001,4.9001,4.9001,4.9001,4.9001,4.9001,4.9001,4.9001,4.9094,4.9644,4.9861,5.0074,5.1096,5.1475,5.1626,5.2251,5.2467,5.2545,5.259,5.2787,5.2977,5.2977,5.3082,5.3185,5.3185,5.3185,5.3185,5.3185,5.3185,5.3185,5.3185,5.3185,5.3185,5.3185,5.3185,5.3185,5.3185,5.3185,5.3185,5.3185,5.3185,5.3185,5.3185,5.3185,5.3185,5.3185,5.3185,5.3185,5.3185,5.3185,5.3185,5.3185,5.3185,5.3185,5.3185,5.3185,5.3185,5.3185,5.3185,5.3185,5.3185,5.3185,5.3185,4.401,4.4097,4.4184,4.4514,4.4615,4.5004,4.6447,4.6786,4.7208,4.8697,4.9001,4.9001,0.0,0.0,0.0,0.0,0.0,0.0,0.0,0.0,0.0,0.0,0.0,0.0,0.0,0.0,0.0,0.0,0.0,0.0,0.0,0.0,0.0,0.0,0.0,4.9001,4.9001,4.9001,4.9001,0.0,4.9001,4.9001,4.9001,4.9001,4.9001,4.9001,4.9001,4.9001,4.9001,4.9001,4.9001,4.9001,4.9001,4.9001,4.9001,4.9001,4.9001,4.9032,4.9138,4.9496,4.9948,5.0187,5.0542,5.1008,5.1601,5.1891,5.2066,5.2499,5.2721,5.2828,5.2828,5.2955,5.3042,5.3042,5.3124,5.3185,5.3185,5.3185,5.3185,5.3185,5.3185,5.3185,5.3185,5.3185,5.3185,5.3185,5.3185,5.3185,5.3185,5.3185,5.3185,5.3185,5.3185,5.3185,5.3185,5.3185,5.3185,5.3185,5.3185,5.3185,5.3185,5.3185,5.3185,5.3185,5.3185,5.3185,5.3185,5.3185,5.3185,5.3185,5.3185,5.3082,4.401,4.4097,4.4184,4.4514,4.4615,4.5004,4.6447,4.6786,4.7208,4.8697,4.9001,4.9001,0.0,0.0,0.0,0.0,0.0,0.0,0.0,0.0,0.0,0.0,0.0,0.0,0.0,0.0,0.0,0.0,0.0,0.0,0.0,0.0,0.0,0.0,4.9001,4.9001,4.9001,4.9001,4.9001,4.9001,4.9001,4.9001,4.9001,4.9001,4.9001,4.9001,4.9001,4.9001,4.9001,4.9001,4.9001,4.9001,4.9001,4.9001,4.9001,4.9001,4.9001,4.9001,4.9001,4.9199,4.9526,4.9803,5.0085,5.046,5.1096,5.1576,5.197,5.232,5.2698,5.2995,5.2995,5.3039,5.3103,5.3103,5.3164,5.3185,5.3185,5.3185,5.3185,5.3185,5.3185,5.3185,5.3185,5.3185,5.3185,5.3185,5.3185,5.3185,5.3185,5.3185,5.3185,5.3185,5.3185,5.3185,5.3185,5.3185,5.3185,5.3185,5.3185,5.3185,5.3185,5.3185,5.3185,5.3185,5.3185,5.3185,5.3185,5.3185,5.3185,5.3185,5.3185,5.3082,4.3981,4.4097,4.4212,4.4514,4.4615,4.4953,4.6295,4.6701,4.7175,4.8528,4.8917,0.0,0.0,0.0,0.0,0.0,0.0,0.0,0.0,0.0,0.0,0.0,0.0,0.0,0.0,0.0,0.0,0.0,0.0,0.0,0.0,0.0,4.9001,4.9001,4.9001,4.9001,4.9001,4.9001,4.9001,4.9001,4.9001,4.9001,4.9001,4.9001,4.9001,4.9001,4.9001,4.9001,4.9001,4.9001,4.9001,4.9001,4.9001,4.9001,4.9001,4.9001,4.9001,4.9001,4.9001,4.9001,4.9094,4.9585,4.9744,4.9919,5.0632,5.1252,5.1799,5.2108,5.2608,5.306,5.3121,5.3164,5.3185,5.3164,5.3185,5.3185,5.3185,5.3185,5.3185,5.3185,5.3185,5.3185,5.3185,5.3185,5.3185,5.3185,5.3185,5.3185,5.3185,5.3185,5.3185,5.3185,5.3185,5.3185,5.3185,5.3185,5.3185,5.3185,5.3185,5.3185,5.3185,5.3185,5.3185,5.3185,5.3185,5.3185,5.3185,5.3185,5.3185,5.3185,5.3185,5.3103,4.3868,4.4097,4.431,4.4542,4.4615,4.4835,4.5652,0.0,4.7039,0.0,0.0,0.0,0.0,0.0,0.0,0.0,0.0,0.0,0.0,0.0,0.0,0.0,0.0,0.0,0.0,0.0,0.0,0.0,0.0,0.0,0.0,4.9001,4.9001,4.9001,4.9001,4.9001,4.9001,4.9001,4.9001,4.9001,4.9001,4.9001,4.9001,4.9001,4.9001,4.9001,4.9001,4.9001,4.9001,4.9001,4.9001,4.9001,4.9001,4.9001,4.9001,4.9001,4.9001,4.9001,4.9001,4.9001,4.9001,4.9077,4.9199,4.9424,5.0017,5.0449,5.0893,5.1775,5.225,5.2563,5.2783,5.3039,5.3164,5.3042,5.3103,5.3185,5.3185,5.3185,5.3185,5.3185,5.3185,5.3185,5.3185,5.3185,5.3185,5.3185,5.3185,5.3185,5.3185,5.3185,5.3185,5.3185,5.3185,5.3185,5.3185,5.3185,5.3185,5.3185,5.3185,5.3185,5.3185,5.3185,5.3185,5.3185,5.3185,5.3185,5.3185,5.3185,5.3185,5.3185,5.3185,5.306,4.3868,4.4097,4.4338,4.4412,4.4514,4.4801,4.5534,4.6261,4.7005,4.7767,0.0,0.0,0.0,0.0,0.0,0.0,0.0,0.0,0.0,0.0,0.0,0.0,0.0,0.0,0.0,0.0,0.0,0.0,0.0,0.0,4.9001,4.9001,4.9001,4.9001,4.9001,4.9001,4.9001,4.9001,4.9001,4.9001,4.9001,4.9001,4.9001,4.9001,4.9001,4.9001,4.9001,4.9001,4.9001,4.9001,4.9001,4.9001,4.9001,4.9001,4.9001,4.9001,4.9001,4.9001,4.9001,4.9063,4.9107,4.9107,4.9229,4.9441,4.9762,5.0377,5.1069,5.1608,5.2291,5.289,5.2977,5.3103,5.3185,5.3143,5.3164,5.3185,5.3185,5.3185,5.3185,5.3185,5.3185,5.3185,5.3185,5.3185,5.3185,5.3185,5.3185,5.3185,5.3185,5.3185,5.3185,5.3185,5.3185,5.3185,5.3185,5.3185,5.3185,5.3185,5.3185,5.3185,5.3185,5.3185,5.3185,5.3185,5.3185,5.3185,5.3185,5.3185,5.3185,5.3185,5.3185,5.3103,4.3868,4.4056,4.4196,4.4265,4.4412,4.4694,0.0,0.0,4.6955,0.0,0.0,0.0,0.0,0.0,0.0,0.0,0.0,0.0,0.0,0.0,0.0,0.0,0.0,0.0,0.0,0.0,0.0,0.0,0.0,0.0,4.9001,4.9001,4.9001,4.9001,4.9001,4.9001,4.9001,4.9001,4.9001,4.9001,4.9001,4.9001,4.9001,4.9001,4.9001,4.9001,4.9001,4.9001,4.9001,4.9001,4.9001,4.9001,4.9001,4.9001,4.9001,4.9001,4.9001,4.9001,4.9001,4.9094,4.9199,4.9199,4.935,4.959,4.982,5.0505,5.1243,5.1633,5.2361,5.3017,5.3124,5.3185,5.3185,5.3185,5.3185,5.3185,5.3185,5.3185,5.3185,5.3185,5.3185,5.3185,5.3185,5.3185,5.3185,5.3185,5.3185,5.3185,5.3185,5.3185,5.3185,5.3185,5.3185,5.3185,5.3185,5.3185,5.3185,5.3185,5.3185,5.3185,5.3185,5.3185,5.3185,5.3185,5.3185,5.3185,5.3185,5.3185,5.3185,5.3185,5.3185,5.3124,4.3868,4.3898,4.3969,4.4224,4.431,4.4384,0.0,0.0,0.0,0.0,0.0,0.0,0.0,0.0,0.0,0.0,0.0,0.0,0.0,0.0,0.0,0.0,0.0,0.0,0.0,0.0,0.0,0.0,0.0,0.0,4.9001,4.9001,4.9001,4.9001,4.9001,4.9001,4.9001,4.9001,4.9001,4.9001,4.9001,4.9001,4.9001,4.9001,4.9001,4.9001,4.9001,4.9001,4.9001,4.9001,4.9001,4.9001,4.9001,4.9001,4.9001,4.9001,4.9001,4.9001,4.9001,4.9094,4.9199,4.9199,4.9411,4.9779,5.031,5.0632,5.0999,5.1922,5.2297,5.254,5.2915,5.3103,5.3185,5.3185,5.3185,5.3185,5.3185,5.3185,5.3185,5.3185,5.3185,5.3185,5.3185,5.3185,5.3185,5.3185,5.3185,5.3185,5.3185,5.3185,5.3185,5.3185,5.3185,5.3185,5.3185,5.3185,5.3185,5.3185,5.3185,5.3185,5.3185,5.3185,5.3185,5.3185,5.3185,5.3185,5.3185,5.3185,5.3185,5.3185,5.3185,5.3124,4.3687,4.3793,4.3927,4.4027,4.4167,4.4338,4.4395,4.5291,0.0,0.0,0.0,0.0,0.0,0.0,0.0,0.0,0.0,0.0,0.0,0.0,0.0,0.0,0.0,0.0,0.0,0.0,0.0,0.0,0.0,0.0,4.9001,4.9001,4.9001,4.9001,4.9001,4.9001,4.9001,4.9001,4.9001,4.9001,4.9001,4.9001,4.9001,4.9001,4.9001,4.9001,4.9001,4.9001,4.9001,4.9001,4.9001,4.9001,4.9001,4.9001,4.9001,4.9094,4.9138,4.9138,4.9277,4.9411,4.953,4.953,4.9924,5.0446,5.0649,5.1218,5.1915,5.2226,5.2608,5.2934,5.3082,5.3164,5.3185,5.3185,5.3185,5.3185,5.3185,5.3185,5.3185,5.3185,5.3185,5.3185,5.3185,5.3185,5.3185,5.3185,5.3185,5.3185,5.3185,5.3185,5.3185,5.3185,5.3185,5.3185,5.3185,5.3185,5.3185,5.3185,5.3185,5.3185,5.3185,5.3185,5.3185,5.3185,5.3185,5.3185,5.3185,5.3185,5.3185,5.3185,5.3185,5.3185,4.3598,4.3704,4.3839,4.3898,4.4027,4.4196,4.4281,0.0,0.0,0.0,0.0,0.0,0.0,0.0,0.0,0.0,0.0,0.0,0.0,0.0,0.0,0.0,0.0,0.0,0.0,0.0,0.0,0.0,0.0,0.0,4.9001,4.9001,4.9001,4.9001,4.9001,4.9001,4.9001,4.9001,4.9001,4.9001,4.9001,4.9001,4.9001,4.9001,4.9001,4.9001,4.9001,4.9001,4.9001,4.9001,4.9001,4.9001,4.9001,4.9001,4.9001,4.9077,4.9168,4.9229,4.935,4.953,4.9708,4.9708,5.0211,5.083,5.0999,5.1651,5.2384,5.2608,5.289,5.3124,5.3185,5.3185,5.3185,5.3185,5.3185,5.3185,5.3185,5.3185,5.3185,5.3185,5.3185,5.3185,5.3185,5.3185,5.3185,5.3185,5.3185,5.3185,5.3185,5.3185,5.3185,5.3185,5.3185,5.3185,5.3185,5.3185,5.3185,5.3185,5.3185,5.3185,5.3185,5.3185,5.3185,5.3185,5.3185,5.3185,5.3185,5.3185,5.3185,5.3185,5.3185,5.3143,0.0,0.0,0.0,0.0,0.0,0.0,4.4224,0.0,0.0,0.0,0.0,0.0,0.0,0.0,0.0,0.0,0.0,0.0,0.0,0.0,0.0,0.0,0.0,0.0,0.0,0.0,0.0,0.0,0.0,4.9001,4.9001,4.9001,4.9001,4.9001,4.9001,4.9001,4.9001,4.9001,4.9001,4.9001,4.9001,4.9001,4.9001,4.9001,4.9001,4.9001,4.9001,4.9001,4.9001,4.9001,4.9001,4.9001,4.9001,4.9001,4.9001,4.9001,4.9077,4.9199,4.9229,4.9441,4.9737,4.9737,5.0222,5.0937,5.1467,5.1897,5.2366,5.3017,5.3103,5.3042,5.3164,5.3185,5.3185,5.3185,5.3185,5.3185,5.3185,5.3185,5.3185,5.3185,5.3185,5.3185,5.3185,5.3185,5.3185,5.3185,5.3185,5.3185,5.3185,5.3185,5.3185,5.3185,5.3185,5.3185,5.3185,5.3185,5.3185,5.3185,5.3185,5.3185,5.3185,5.3185,5.3185,5.3185,5.3185,5.3185,5.3185,5.3185,5.3185,5.3185,5.3185,5.3039,4.3598,0.0,0.0,0.0,0.0,0.0,0.0,0.0,0.0,0.0,0.0,0.0,0.0,0.0,0.0,0.0,0.0,0.0,0.0,0.0,0.0,0.0,0.0,0.0,0.0,0.0,0.0,0.0,4.9001,4.9001,4.9001,4.9001,4.9001,4.9001,4.9001,4.9001,4.9001,4.9001,4.9001,4.9001,4.9001,4.9001,4.9001,4.9001,4.9001,4.9001,4.9001,4.9001,4.9001,4.9001,4.9001,4.9001,4.9124,4.9094,4.9032,4.9381,4.9471,4.9458,4.9683,5.0086,5.0502,5.0502,5.1166,5.1988,5.2132,5.254,5.2955,5.3143,5.3185,5.3146,5.3185,5.3185,5.3185,5.3185,5.3185,5.3185,5.3185,5.3185,5.3185,5.3185,5.3185,5.3185,5.3185,5.3185,5.3185,5.3185,5.3185,5.3185,5.3185,5.3185,5.3185,5.3185,5.3185,5.3185,5.3185,5.3185,5.3185,5.3185,5.3185,5.3185,5.3185,5.3185,5.3185,5.3185,5.3185,5.3185,5.3185,5.3185,5.3185,5.3185,5.2806,5.2302,0.0,0.0,0.0,0.0,0.0,0.0,4.3939,4.4097,0.0,0.0,0.0,0.0,0.0,0.0,0.0,0.0,0.0,0.0,0.0,0.0,0.0,0.0,0.0,0.0,0.0,0.0,0.0,4.9001,4.9001,4.9001,4.9001,4.9001,4.9001,4.9001,4.9001,4.9001,4.9001,4.9001,4.9001,4.9001,4.9001,4.9001,4.9001,4.9001,4.9001,4.9001,4.9001,4.9001,4.9001,4.9001,4.9001,4.9001,4.9094,4.9063,4.9032,4.9307,4.9602,4.9861,5.0068,5.0557,5.1131,5.1131,5.1719,5.2408,5.2408,5.2739,5.3124,5.3185,5.3185,5.3185,5.3185,5.3185,5.3185,5.3185,5.3185,5.3185,5.3185,5.3185,5.3185,5.3185,5.3185,5.3185,5.3185,5.3185,5.3185,5.3185,5.3185,5.3185,5.3185,5.3185,5.3185,5.3185,5.3185,5.3185,5.3185,5.3185,5.3185,5.3185,5.3185,5.31,5.289,5.2868,5.2761,5.254,5.254,5.254,5.254,5.2977,5.3082,5.285,5.2232,5.169,0.0,0.0,0.0,0.0,0.0,0.0,4.3981,4.4068,4.4356,0.0,0.0,0.0,0.0,0.0,0.0,0.0,0.0,0.0,0.0,0.0,0.0,0.0,0.0,0.0,0.0,4.9001,4.9001,4.9001,4.9001,4.9001,4.9001,4.9001,4.9001,4.9001,4.9001,4.9001,4.9001,4.9001,4.9001,4.9032,4.9001,4.9001,4.9032,4.9001,4.9001,4.9001,4.9001,4.9032,4.9077,4.9077,4.9063,4.9001,4.9001,4.9063,4.9124,4.9168,4.9686,5.0404,5.0415,5.0973,5.1651,5.1676,5.206,5.2495,5.2495,5.2739,5.306,5.3164,5.3185,5.3185,5.3185,5.3185,5.3185,5.3185,5.3185,5.3185,5.3185,5.3185,5.3185,5.3185,5.3185,5.3185,5.3185,5.3185,5.3185,5.3185,5.3185,5.3185,5.3185,5.3185,5.3185,5.3185,5.3185,5.3185,5.3185,5.3185,5.3185,5.3185,5.3143,5.289,5.2408,5.2338,5.2084,5.1619,5.1601,5.1601,5.1601,5.2563,5.2739,5.2203,5.1594,5.1263,0.0,0.0,0.0,0.0,0.0,0.0,4.3687,4.3822,4.3989,0.0,0.0,0.0,0.0,0.0,0.0,0.0,0.0,0.0,0.0,0.0,0.0,0.0,0.0,0.0,0.0,4.9001,4.9001,4.9001,4.9001,4.9001,4.9001,4.9001,4.9001,4.9001,4.9001,4.9001,4.9001,4.9001,4.9063,4.9168,4.9063,4.9063,4.9168,4.9063,4.9001,4.9001,4.9001,4.929,4.9715,4.9715,4.9453,4.9001,4.9107,4.9466,4.9919,5.0142,5.056,5.1061,5.1252,5.1658,5.209,5.2203,5.2608,5.3039,5.3039,5.3103,5.3164,5.3185,5.3185,5.3185,5.3185,5.3185,5.3185,5.3185,5.3185,5.3185,5.3185,5.3185,5.3185,5.3185,5.3185,5.3185,5.3185,5.3185,5.3185,5.3185,5.3185,5.3185,5.3185,5.3185,5.3185,5.3185,5.3185,5.3185,5.3185,5.3185,5.3185,5.3185,5.2783,5.2518,5.2408,5.1988,5.1719,5.1601,5.1601,5.1601,5.1601,5.1817,5.1644,5.1123,5.1419,5.1244,0.0,0.0,0.0,4.3598,0.0,0.0,0.0,4.3839,4.3927,4.3969,0.0,0.0,0.0,0.0,0.0,0.0,0.0,0.0,0.0,0.0,0.0,0.0,0.0,0.0,0.0,4.9001,4.9001,4.9001,4.9001,4.9001,4.9001,4.9001,4.9001,4.9001,4.9001,4.9001,4.9001,4.9063,4.9138,4.9199,4.9138,4.9138,4.9199,4.9364,4.9453,4.9466,4.9727,5.0067,5.0404,5.0404,5.0237,4.9971,4.9953,5.0181,5.0515,5.0661,5.1095,5.1665,5.1813,5.2232,5.2698,5.2783,5.2977,5.3185,5.3185,5.3185,5.3185,5.3185,5.3185,5.3185,5.3185,5.3185,5.3185,5.3185,5.3185,5.3185,5.3185,5.3185,5.3185,5.3185,5.3185,5.3185,5.3185,5.3185,5.3185,5.3185,5.3185,5.3185,5.3185,5.3185,5.3185,5.3185,5.3185,5.3185,5.3185,5.3185,5.31,5.2806,5.254,5.2155,5.1601,5.1339,5.1096,5.0803,5.1144,5.1337,5.1337,5.1723,5.1678,5.121,5.1494,5.1447,0.0,0.0,0.0,0.0,0.0,4.3628,0.0,0.0,0.0,4.3981,0.0,0.0,0.0,0.0,0.0,0.0,0.0,0.0,0.0,0.0,0.0,0.0,0.0,0.0,0.0,4.8578,4.8578,4.8578,4.8714,4.8798,4.8798,4.8934,4.9001,4.9001,4.9001,4.9001,4.9001,4.9243,4.9376,4.9406,4.9496,4.9555,4.9585,4.993,5.0085,5.0085,5.0552,5.0858,5.1034,5.1043,5.1121,5.1199,5.0894,5.0894,5.1095,5.1147,5.1611,5.2271,5.2294,5.2684,5.3164,5.3185,5.3185,5.3185,5.3185,5.3185,5.3185,5.3185,5.3185,5.3185,5.3185,5.3185,5.3185,5.3185,5.3185,5.3185,5.3185,5.3185,5.3185,5.3185,5.3185,5.3185,5.3185,5.3185,5.3185,5.3185,5.3185,5.3185,5.3185,5.3185,5.3185,5.3185,5.3185,5.3185,5.3185,5.3121,5.2868,5.2431,5.2221,5.1701,5.083,5.0712,5.0495,5.0218,5.0804,5.1183,5.1291,5.205,5.2114,5.1668,5.1846,5.1853,0.0,0.0,0.0,0.0,4.3598,0.0,0.0,0.0,4.3628,4.3658,0.0,0.0,0.0,0.0,0.0,0.0,0.0,0.0,0.0,0.0,0.0,0.0,0.0,0.0,0.0,0.0,4.7039,4.7039,4.7665,4.8007,4.8007,4.8646,4.9001,4.9001,4.9001,4.9001,4.9001,4.9593,4.9993,5.0181,5.0552,5.0796,5.0955,5.0822,5.0724,5.0616,5.0805,5.1113,5.1525,5.1633,5.1976,5.2325,5.1411,5.1378,5.1879,5.1922,5.2358,5.2915,5.302,5.3042,5.3042,5.3164,5.3185,5.3185,5.3185,5.3185,5.3185,5.3185,5.3185,5.3185,5.3185,5.3185,5.3185,5.3185,5.3185,5.3185,5.3185,5.3185,5.3185,5.3185,5.3185,5.3185,5.3185,5.3185,5.3185,5.3185,5.3185,5.3185,5.3185,5.3185,5.3185,5.3185,5.3185,5.3185,5.3185,5.2761,5.2454,5.2408,5.1518,5.0937,5.082,5.0331,5.0362,5.0976,5.108,5.1412,5.2067,5.2685,5.2637,5.1976,5.2435,5.2603,0.0,0.0,0.0,0.0,0.0,0.0,4.3598,0.0,4.3598,0.0,0.0,0.0,0.0,0.0,0.0,0.0,0.0,0.0,0.0,0.0,0.0,0.0,0.0,0.0,0.0,0.0,0.0,0.0,0.0,4.7259,4.7259,4.7856,4.8243,4.8359,4.8975,4.9378,4.9593,5.0321,5.0742,5.0867,5.1026,5.1131,5.1243,5.1371,5.1421,5.149,5.1837,5.2161,5.2431,5.2458,5.2635,5.2787,5.244,5.2435,5.2568,5.2617,5.2831,5.3124,5.3185,5.3164,5.3143,5.3185,5.3185,5.3185,5.3185,5.3185,5.3185,5.3185,5.3185,5.3185,5.3185,5.3185,5.3185,5.3185,5.3185,5.3185,5.3185,5.3185,5.3185,5.3185,5.3185,5.3185,5.3185,5.3185,5.3185,5.3185,5.3185,5.3185,5.3185,5.3185,5.3185,5.3185,5.3185,5.3185,5.3185,5.2717,5.2268,5.1964,5.0937,5.0331,5.0331,5.0524,5.0787,5.1097,5.1994,5.2519,5.2719,5.3413,5.3524,5.3169,5.3284,5.3241,4.4434,0.0,0.0,0.0,0.0,0.0,0.0,0.0,0.0,0.0,0.0,0.0,0.0,0.0,0.0,0.0,0.0,0.0,0.0,0.0,0.0,0.0,0.0,0.0,0.0,0.0,0.0,0.0,4.68,4.6902,4.6902,4.7482,4.7889,4.8019,4.8784,4.9423,4.9928,5.0708,5.1226,5.1512,5.1608,5.1683,5.1777,5.1976,5.2132,5.2226,5.2676,5.289,5.2955,5.2999,5.2999,5.302,5.3164,5.3143,5.3042,5.3042,5.3103,5.3185,5.3185,5.3185,5.3185,5.3185,5.3185,5.3185,5.3185,5.3185,5.3185,5.3185,5.3185,5.3185,5.3185,5.3185,5.3185,5.3185,5.3185,5.3185,5.3185,5.3185,5.3185,5.3185,5.3185,5.3185,5.3185,5.3185,5.3185,5.3185,5.3185,5.3185,5.3185,5.3185,5.3185,5.3185,5.3185,5.3143,5.2995,5.2495,5.1891,5.121,5.0425,5.0068,5.0228,5.0792,5.1274,5.1658,5.276,5.3352,5.3398,5.3869,5.4013,5.3915,5.3783,5.3651,0.0,0.0,0.0,4.5794,0.0,0.0,0.0,0.0,4.4456,0.0,0.0,0.0,0.0,0.0,0.0,0.0,0.0,0.0,0.0,0.0,0.0,0.0,0.0,0.0,0.0,0.0,0.0,4.607,4.6778,4.7199,4.7199,4.7927,4.8382,4.8373,4.8417,4.8854,4.9714,5.0448,5.1227,5.2089,5.2527,5.2828,5.2937,5.2828,5.2761,5.2783,5.2915,5.2915,5.2806,5.2955,5.2999,5.302,5.3164,5.3185,5.3185,5.3185,5.3185,5.3185,5.3185,5.3185,5.3185,5.3185,5.3185,5.3185,5.3185,5.3185,5.3185,5.3185,5.3185,5.3185,5.3185,5.3185,5.3185,5.3185,5.3185,5.3185,5.3185,5.3185,5.3185,5.3185,5.3185,5.3185,5.3185,5.3185,5.3185,5.3185,5.3185,5.3185,5.3185,5.3185,5.3185,5.3185,5.3185,5.2995,5.2454,5.1939,5.1184,5.0138,5.004,5.0216,5.0738,5.0991,5.1696,5.3018,5.3086,5.345,5.4156,5.3865,5.37,5.37,5.37,5.3717,0.0,0.0,4.6185,4.6032,0.0,0.0,0.0,0.0,0.0,0.0,0.0,0.0,0.0,0.0,0.0,0.0,0.0,0.0,0.0,0.0,0.0,0.0,0.0,0.0,0.0,0.0,0.0,4.5563,4.6145,4.631,0.0,4.6871,4.7473,4.7618,4.8431,4.9105,4.9627,5.0855,5.1646,5.205,5.2638,5.2999,5.3143,5.2999,5.2977,5.306,5.3103,5.3103,5.306,5.3103,5.3124,5.3143,5.3185,5.3185,5.3185,5.3185,5.3185,5.3185,5.3185,5.3185,5.3185,5.3185,5.3185,5.3185,5.3185,5.3185,5.3185,5.3185,5.3185,5.3185,5.3185,5.3185,5.3185,5.3185,5.3185,5.3185,5.3185,5.3185,5.3185,5.3185,5.3185,5.3185,5.3185,5.3185,5.3185,5.3185,5.3185,5.3185,5.3185,5.3185,5.306,5.2717,5.2654,5.2454,5.1915,5.1391,5.0749,5.0068,5.0324,5.0656,5.0991,5.1941,5.2637,5.3072,5.3587,5.3836,5.3865,5.375,5.37,5.3717,5.3601,5.3584,4.7334,4.7186,0.0,4.6984,4.697,0.0,4.6387,0.0,0.0,0.0,0.0,0.0,0.0,0.0,0.0,0.0,0.0,0.0,0.0,0.0,0.0,0.0,0.0,0.0,0.0,0.0,4.5875,4.5875,4.6358,4.6525,0.0,0.0,4.7231,4.737,4.8185,4.8883,4.9454,5.0405,5.1245,5.1995,5.2404,5.2807,5.3185,5.306,5.3063,5.3185,5.3185,5.3185,5.3185,5.3185,5.3185,5.3185,5.3185,5.3185,5.3185,5.3185,5.3185,5.3185,5.3185,5.3185,5.3185,5.3185,5.3185,5.3185,5.3185,5.3185,5.313,5.2858,5.2986,5.3133,5.2858,5.3004,5.3185,5.3185,5.3185,5.3185,5.3185,5.3185,5.3185,5.3185,5.3185,5.3185,5.3185,5.3185,5.3185,5.3185,5.3185,5.3185,5.3185,5.3185,5.306,5.2717,5.2499,5.2108,5.1391,5.1004,5.0638,5.0314,5.0824,5.1295,5.1709,5.2543,5.3235,5.38,5.3958,5.4034,5.4091,5.3787,5.3634,5.3634,5.3517,5.3501]}]]